[[{"header":{"parameterUnit":"m.s-1","parameterCategory":1,"la1":31.0,"la2":29.5877,"lo1":-88.7671,"lo2":-86.6584,"dy":0.0162,"dx":0.0185,"nx":115,"ny":88,"refTime":"2024-04-03T06:00:00:Z","depth":0,"parameterNumber":2,"parameterNumberName":"U-component_of_WINDS"},"data":[0.0,0.0,0.0,0.0,0.0,0.0,0.0,0.0,0.0,0.0,0.0,0.0,0.0,0.0,0.0,0.0,0.0,0.0,0.0,0.0,0.0,0.0,0.0,0.0,0.0,0.0,0.0,0.0,0.0,0.0,0.0,0.0,0.0,0.0,0.0,0.0,0.0,0.0,0.0,0.0,0.0,0.0,0.0,0.0,0.0,0.0,0.0,0.0,0.0,0.0,0.0,0.0,0.0,0.0,0.0,0.0,0.0,0.0,0.0,0.0,0.0,0.0,0.0,0.0,0.0,0.0,0.0,0.0,0.0,0.0,0.0,0.0,0.0,0.0,0.0,0.0,0.0,0.0,0.0,0.0,0.0,0.0,0.0,0.0,0.0,0.0,0.0,0.0,0.0,0.0,0.0,0.0,0.0,0.0,0.0,0.0,0.0,0.0,0.0,0.0,0.0,0.0,0.0,0.0,0.0,0.0,0.0,0.0,0.0,0.0,0.0,0.0,0.0,0.0,0.0,0.0,0.0,0.0,0.0,0.0,0.0,0.0,0.0,0.0,0.0,0.0,0.0,0.0,0.0,0.0,0.0,0.0,0.0,0.0,0.0,0.0,0.0,0.0,0.0,0.0,0.0,0.0,0.0,0.0,0.0,0.0,0.0,0.0,0.0,0.0,0.0,0.0,0.0,0.0,0.0,0.0,0.0,0.0,0.0,0.0,0.0,0.0,0.0,0.0,0.0,0.0,0.0,0.0,0.0,0.0,0.0,0.0,0.0,0.0,0.0,0.0,0.0,0.0,0.0,0.0,0.0,0.0,0.0,0.0,0.0,0.0,0.0,0.0,0.0,0.0,0.0,0.0,0.0,0.0,0.0,0.0,0.0,0.0,0.0,0.0,0.0,0.0,0.0,0.0,0.0,0.0,0.0,0.0,0.0,0.0,0.0,0.0,0.0,0.0,0.0,0.0,0.0,0.0,0.0,0.0,0.0,0.0,0.0,0.0,0.0,0.0,0.0,0.0,0.0,0.0,0.0,0.0,0.0,0.0,0.0,0.0,0.0,0.0,0.0,0.0,0.0,0.0,0.0,0.0,0.0,0.0,0.0,0.0,0.0,0.0,0.0,0.0,0.0,0.0,0.0,0.0,0.0,0.0,0.0,0.0,0.0,0.0,0.0,0.0,0.0,0.0,0.0,0.0,0.0,0.0,0.0,0.0,0.0,0.0,0.0,0.0,0.0,0.0,0.0,0.0,0.0,0.0,0.0,0.0,0.0,0.0,0.0,0.0,0.0,0.0,0.0,0.0,0.0,0.0,0.0,0.0,0.0,0.0,0.0,0.0,0.0,0.0,0.0,0.0,0.0,0.0,0.0,0.0,0.0,0.0,0.0,0.0,0.0,0.0,0.0,0.0,0.0,0.0,0.0,0.0,0.0,0.0,0.0,0.0,0.0,0.0,0.0,0.0,0.0,0.0,0.0,0.0,0.0,0.0,0.0,0.0,0.0,0.0,0.0,0.0,0.0,0.0,0.0,0.0,0.0,0.0,0.0,0.0,0.0,0.0,0.0,0.0,0.0,0.0,0.0,0.0,0.0,0.0,0.0,0.0,0.0,0.0,0.0,0.0,0.0,0.0,0.0,0.0,0.0,0.0,0.0,0.0,0.0,0.0,0.0,0.0,0.0,0.0,0.0,0.0,0.0,0.0,0.0,0.0,0.0,0.0,0.0,0.0,0.0,0.0,0.0,0.0,0.0,0.0,0.0,0.0,0.0,0.0,0.0,0.0,0.0,0.0,0.0,0.0,0.0,0.0,0.0,0.0,0.0,0.0,0.0,0.0,0.0,0.0,0.0,0.0,0.0,0.0,0.0,0.0,0.0,0.0,0.0,0.0,0.0,0.0,0.0,0.0,0.0,0.0,0.0,0.0,0.0,0.0,0.0,0.0,0.0,0.0,0.0,0.0,0.0,0.0,0.0,0.0,0.0,0.0,0.0,0.0,0.0,0.0,0.0,0.0,0.0,0.0,0.0,0.0,0.0,0.0,0.0,0.0,0.0,0.0,0.0,0.0,0.0,0.0,0.0,0.0,0.0,0.0,0.0,0.0,0.0,0.0,0.0,0.0,0.0,0.0,0.0,0.0,0.0,0.0,0.0,0.0,0.0,0.0,0.0,0.0,0.0,0.0,0.0,0.0,0.0,0.0,0.0,0.0,0.0,0.0,0.0,0.0,0.0,0.0,0.0,0.0,0.0,0.0,0.0,0.0,0.0,0.0,0.0,0.0,0.0,0.0,0.0,0.0,0.0,0.0,0.0,0.0,0.0,0.0,0.0,0.0,0.0,0.0,0.0,0.0,0.0,0.0,0.0,0.0,0.0,0.0,0.0,0.0,0.0,0.0,0.0,0.0,0.0,0.0,0.0,0.0,0.0,0.0,0.0,0.0,0.0,0.0,0.0,0.0,0.0,0.0,0.0,0.0,0.0,0.0,0.0,0.0,0.0,0.0,0.0,0.0,0.0,0.0,0.0,0.0,0.0,0.0,0.0,0.0,0.0,0.0,0.0,0.0,0.0,0.0,0.0,0.0,0.0,0.0,0.0,0.0,0.0,0.0,0.0,0.0,0.0,0.0,0.0,0.0,0.0,0.0,0.0,0.0,0.0,0.0,0.0,0.0,0.0,0.0,0.0,0.0,0.0,0.0,0.0,0.0,0.0,0.0,0.0,0.0,0.0,0.0,0.0,0.0,0.0,0.0,0.0,0.0,0.0,0.0,0.0,0.0,0.0,0.0,0.0,0.0,0.0,0.0,0.0,0.0,0.0,0.0,0.0,0.0,0.0,0.0,0.0,0.0,0.0,0.0,0.0,0.0,0.0,0.0,0.0,0.0,0.0,0.0,0.0,0.0,0.0,0.0,0.0,0.0,0.0,0.0,0.0,0.0,0.0,0.0,0.0,0.0,0.0,0.0,0.0,0.0,0.0,0.0,0.0,0.0,0.0,0.0,0.0,0.0,0.0,0.0,0.0,0.0,0.0,0.0,0.0,0.0,0.0,0.0,0.0,0.0,0.0,0.0,0.0,0.0,0.0,0.0,0.0,0.0,0.0,0.0,0.0,0.0,0.0,0.0,0.0,0.0,0.0,0.0,0.0,0.0,0.0,0.0,0.0,0.0,0.0,0.0,0.0,0.0,0.0,0.0,0.0,0.0,0.0,0.0,0.0,0.0,0.0,0.0,0.0,0.0,0.0,0.0,0.0,0.0,0.0,0.0,0.0,0.0,0.0,0.0,0.0,0.0,0.0,0.0,0.0,0.0,0.0,0.0,0.0,0.0,0.0,0.0,0.0,0.0,0.0,0.0,0.0,0.0,0.0,0.0,0.0,0.0,0.0,0.0,0.0,0.0,0.0,0.0,0.0,0.0,0.0,0.0,0.0,0.0,0.0,0.0,0.0,0.0,0.0,0.0,0.0,0.0,0.0,0.0,0.0,0.0,0.0,0.0,0.0,0.0,0.0,0.0,0.0,0.0,0.0,0.0,0.0,0.0,0.0,0.0,0.0,0.0,0.0,0.0,0.0,0.0,0.0,0.0,0.0,0.0,0.0,0.0,0.0,0.0,0.0,0.0,0.0,0.0,0.0,0.0,0.0,0.0,0.0,0.0,0.0,0.0,0.0,0.0,0.0,0.0,0.0,0.0,0.0,0.0,0.0,0.0,0.0,0.0,0.0,0.0,0.0,0.0,0.0,0.0,0.0,0.0,0.0,0.0,0.0,0.0,0.0,0.0,0.0,0.0,0.0,0.0,0.0,0.0,0.0,0.0,0.0,0.0,0.0,0.0,0.0,0.0,0.0,0.0,0.0,0.0,0.0,0.0,0.0,0.0,0.0,0.0,0.0,0.0,0.0,0.0,0.0,0.0,0.0,0.0,0.0,0.0,0.0,0.0,0.0,0.0,0.0,0.0,0.0,0.0,0.0,0.0,0.0,0.0,0.0,0.0,0.0,0.0,0.0,0.0,0.0,0.0,0.0,0.0,0.0,0.0,0.0,0.0,0.0,0.0,0.0,0.0,0.0,0.0,0.0,0.0,0.0,0.0,0.0,0.0,0.0,0.0,0.0,0.0,0.0,0.0,0.0,0.0,0.0,0.0,0.0,0.0,0.0,0.0,0.0,0.0,0.0,0.0,0.0,0.0,0.0,0.0,0.0,0.0,0.0,0.0,0.0,0.0,0.0,0.0,0.0,0.0,0.0,0.0,0.0,0.0,0.0,0.0,0.0,0.0,0.0,0.0,0.0,0.0,2.4043,0.0,0.0,0.0,0.0,0.0,0.0,0.0,0.0,0.0,0.0,0.0,0.0,0.0,0.0,0.0,0.0,0.0,0.0,0.0,0.0,0.0,0.0,0.0,0.0,0.0,0.0,0.0,0.0,0.0,0.0,0.0,0.0,0.0,0.0,0.0,0.0,0.0,0.0,0.0,0.0,0.0,0.0,0.0,0.0,0.0,0.0,0.0,0.0,0.0,0.0,0.0,0.0,0.0,0.0,0.0,0.0,0.0,0.0,0.0,0.0,0.0,0.0,0.0,0.0,0.0,0.0,0.0,0.0,0.0,0.0,0.0,0.0,0.0,0.0,0.0,0.0,0.0,0.0,0.0,0.0,0.0,0.0,0.0,0.0,0.0,0.0,0.0,0.0,0.0,0.0,0.0,0.0,0.0,0.0,0.0,0.0,0.0,0.0,0.0,0.0,0.0,0.0,0.0,0.0,0.0,0.0,0.0,0.0,0.0,0.0,2.419,2.419,2.419,2.419,2.419,0.0,0.0,0.0,0.0,0.0,0.0,0.0,0.0,0.0,0.0,0.0,0.0,0.0,0.0,0.0,0.0,0.0,0.0,0.0,0.0,0.0,0.0,0.0,0.0,0.0,0.0,0.0,0.0,0.0,0.0,0.0,0.0,0.0,0.0,0.0,0.0,0.0,0.0,0.0,0.0,0.0,0.0,0.0,0.0,0.0,0.0,0.0,0.0,0.0,0.0,0.0,0.0,0.0,0.0,0.0,0.0,0.0,0.0,0.0,0.0,0.0,0.0,0.0,0.0,0.0,0.0,0.0,0.0,0.0,0.0,0.0,0.0,0.0,0.0,0.0,0.0,0.0,0.0,0.0,0.0,0.0,0.0,0.0,0.0,0.0,0.0,0.0,0.0,0.0,0.0,0.0,0.0,0.0,0.0,0.0,0.0,0.0,0.0,0.0,0.0,0.0,0.0,0.0,0.0,0.0,0.0,0.0,0.0,0.0,0.0,0.0,0.0,2.419,2.419,2.419,0.0,0.0,0.0,0.0,0.0,0.0,0.0,0.0,0.0,0.0,0.0,0.0,0.0,0.0,0.0,0.0,0.0,0.0,0.0,0.0,0.0,0.0,0.0,0.0,0.0,0.0,0.0,0.0,0.0,0.0,0.0,0.0,0.0,0.0,0.0,0.0,0.0,0.0,0.0,0.0,0.0,0.0,0.0,0.0,0.0,0.0,0.0,0.0,0.0,0.0,0.0,0.0,0.0,0.0,0.0,0.0,0.0,0.0,0.0,0.0,0.0,0.0,0.0,0.0,0.0,0.0,0.0,0.0,0.0,0.0,0.0,0.0,0.0,0.0,0.0,0.0,0.0,0.0,0.0,0.0,0.0,0.0,0.0,0.0,0.0,0.0,0.0,0.0,0.0,0.0,0.0,0.0,0.0,0.0,0.0,0.0,0.0,0.0,0.0,0.0,0.0,0.0,0.0,0.0,0.0,0.0,0.0,0.0,0.0,0.0,2.419,2.419,2.419,0.0,2.419,0.0,0.0,0.0,0.0,0.0,0.0,0.0,0.0,0.0,0.0,0.0,0.0,0.0,0.0,0.0,0.0,0.0,0.0,0.0,0.0,0.0,0.0,0.0,0.0,0.0,0.0,0.0,0.0,0.0,0.0,0.0,0.0,0.0,0.0,0.0,0.0,0.0,0.0,0.0,0.0,0.0,0.0,0.0,0.0,0.0,0.0,0.0,0.0,0.0,0.0,0.0,0.0,0.0,0.0,0.0,0.0,0.0,0.0,0.0,0.0,0.0,0.0,0.0,0.0,0.0,0.0,0.0,0.0,0.0,0.0,0.0,0.0,0.0,0.0,0.0,0.0,0.0,0.0,0.0,0.0,0.0,0.0,0.0,0.0,0.0,0.0,0.0,0.0,0.0,0.0,0.0,0.0,0.0,0.0,0.0,0.0,0.0,0.0,0.0,0.0,0.0,0.0,0.0,0.0,0.0,0.0,0.0,0.0,0.0,0.0,2.419,2.419,2.419,2.419,0.0,0.0,0.0,0.0,0.0,0.0,0.0,0.0,0.0,0.0,0.0,0.0,0.0,0.0,0.0,0.0,0.0,0.0,0.0,0.0,0.0,0.0,0.0,0.0,0.0,0.0,0.0,0.0,0.0,0.0,0.0,0.0,0.0,0.0,0.0,0.0,0.0,0.0,0.0,0.0,0.0,0.0,0.0,0.0,0.0,0.0,0.0,0.0,0.0,0.0,0.0,0.0,0.0,0.0,0.0,0.0,0.0,0.0,0.0,0.0,0.0,0.0,0.0,0.0,0.0,0.0,0.0,0.0,0.0,0.0,0.0,0.0,0.0,0.0,0.0,0.0,0.0,0.0,0.0,0.0,0.0,0.0,0.0,0.0,0.0,0.0,0.0,0.0,0.0,0.0,0.0,0.0,0.0,0.0,0.0,0.0,0.0,0.0,0.0,0.0,0.0,0.0,0.0,0.0,0.0,0.0,0.0,0.0,0.0,0.0,2.419,2.419,2.419,2.419,2.419,2.419,0.0,0.0,0.0,0.0,0.0,0.0,0.0,0.0,0.0,0.0,0.0,0.0,0.0,0.0,0.0,0.0,0.0,0.0,0.0,0.0,0.0,0.0,0.0,0.0,0.0,0.0,0.0,0.0,0.0,0.0,0.0,0.0,0.0,0.0,0.0,0.0,0.0,0.0,0.0,0.0,0.0,0.0,0.0,0.0,0.0,0.0,0.0,0.0,0.0,0.0,0.0,0.0,0.0,0.0,0.0,0.0,0.0,0.0,0.0,0.0,0.0,0.0,0.0,0.0,0.0,0.0,0.0,0.0,0.0,0.0,0.0,0.0,0.0,0.0,0.0,0.0,0.0,0.0,0.0,0.0,0.0,0.0,0.0,0.0,0.0,0.0,0.0,0.0,0.0,0.0,0.0,0.0,0.0,0.0,0.0,0.0,0.0,0.0,0.0,0.0,0.0,0.0,0.0,0.0,0.0,0.0,0.0,0.0,2.419,2.419,2.419,2.419,2.419,2.419,0.0,0.0,0.0,0.0,0.0,0.0,0.0,0.0,0.0,0.0,0.0,0.0,0.0,0.0,0.0,0.0,0.0,0.0,0.0,0.0,0.0,0.0,0.0,0.0,0.0,0.0,0.0,0.0,0.0,0.0,0.0,0.0,0.0,0.0,0.0,0.0,0.0,0.0,0.0,0.0,0.0,0.0,0.0,0.0,0.0,0.0,0.0,0.0,0.0,0.0,0.0,0.0,0.0,0.0,0.0,0.0,0.0,0.0,0.0,0.0,0.0,0.0,0.0,0.0,0.0,0.0,0.0,0.0,0.0,0.0,0.0,0.0,0.0,0.0,0.0,0.0,0.0,0.0,0.0,0.0,0.0,0.0,0.0,0.0,0.0,0.0,0.0,0.0,0.0,0.0,0.0,0.0,0.0,0.0,0.0,0.0,0.0,0.0,0.0,0.0,0.0,0.0,0.0,0.0,0.0,0.0,0.0,0.0,0.0,2.419,2.419,2.419,2.419,2.419,2.419,0.0,0.0,0.0,0.0,0.0,0.0,0.0,0.0,0.0,0.0,0.0,0.0,0.0,0.0,0.0,0.0,0.0,0.0,0.0,0.0,0.0,0.0,0.0,0.0,0.0,0.0,0.0,0.0,0.0,0.0,0.0,0.0,0.0,0.0,0.0,0.0,0.0,0.0,0.0,0.0,0.0,0.0,0.0,0.0,0.0,0.0,0.0,0.0,0.0,0.0,0.0,0.0,0.0,0.0,0.0,0.0,0.0,0.0,0.0,0.0,0.0,0.0,0.0,0.0,0.0,0.0,0.0,0.0,0.0,0.0,0.0,0.0,0.0,0.0,0.0,0.0,0.0,0.0,0.0,0.0,0.0,0.0,0.0,0.0,0.0,0.0,0.0,0.0,0.0,0.0,0.0,0.0,0.0,0.0,0.0,0.0,0.0,0.0,0.0,0.0,0.0,0.0,0.0,0.0,0.0,0.0,0.0,0.0,0.0,2.4575,0.0,2.4593,2.4595,2.4575,2.4483,0.0,0.0,0.0,0.0,0.0,0.0,0.0,0.0,0.0,0.0,0.0,0.0,0.0,0.0,0.0,0.0,0.0,0.0,0.0,0.0,0.0,0.0,0.0,0.0,0.0,0.0,0.0,0.0,0.0,0.0,0.0,0.0,0.0,0.0,0.0,0.0,0.0,0.0,0.0,0.0,0.0,0.0,0.0,0.0,0.0,0.0,0.0,0.0,0.0,0.0,0.0,0.0,0.0,0.0,0.0,0.0,0.0,0.0,0.0,0.0,0.0,0.0,0.0,0.0,0.0,0.0,0.0,0.0,0.0,0.0,0.0,0.0,0.0,0.0,0.0,0.0,0.0,0.0,0.0,0.0,0.0,0.0,0.0,0.0,0.0,0.0,0.0,0.0,0.0,0.0,0.0,0.0,0.0,0.0,0.0,0.0,0.0,0.0,0.0,0.0,0.0,0.0,0.0,0.0,0.0,0.0,0.0,0.0,2.4612,2.5348,2.5403,2.5421,2.5403,2.5384,2.5017,0.0,0.0,0.0,0.0,0.0,0.0,0.0,0.0,0.0,0.0,0.0,0.0,0.0,0.0,0.0,0.0,0.0,0.0,0.0,0.0,0.0,0.0,0.0,0.0,0.0,0.0,0.0,0.0,0.0,0.0,0.0,0.0,0.0,0.0,0.0,0.0,0.0,0.0,0.0,0.0,0.0,0.0,0.0,0.0,0.0,0.0,0.0,0.0,0.0,0.0,0.0,0.0,0.0,0.0,0.0,0.0,0.0,0.0,0.0,0.0,0.0,0.0,0.0,0.0,0.0,0.0,0.0,0.0,0.0,0.0,0.0,0.0,0.0,0.0,0.0,0.0,0.0,0.0,0.0,0.0,0.0,0.0,0.0,0.0,0.0,0.0,0.0,0.0,0.0,0.0,0.0,0.0,0.0,0.0,0.0,0.0,0.0,0.0,0.0,0.0,0.0,0.0,0.0,0.0,0.0,0.0,0.0,0.0,0.0,2.536,2.5913,2.6227,2.6227,2.5676,2.5293,0.0,0.0,0.0,0.0,0.0,0.0,0.0,0.0,0.0,0.0,0.0,0.0,0.0,0.0,0.0,0.0,0.0,0.0,0.0,0.0,0.0,0.0,0.0,0.0,0.0,0.0,0.0,0.0,0.0,0.0,0.0,0.0,0.0,0.0,0.0,0.0,0.0,0.0,0.0,0.0,0.0,0.0,0.0,0.0,0.0,0.0,0.0,0.0,0.0,0.0,0.0,0.0,0.0,0.0,0.0,0.0,0.0,0.0,0.0,0.0,0.0,0.0,0.0,0.0,0.0,0.0,0.0,0.0,0.0,0.0,0.0,0.0,0.0,0.0,0.0,0.0,0.0,0.0,0.0,0.0,0.0,0.0,0.0,0.0,0.0,0.0,0.0,0.0,0.0,0.0,0.0,0.0,0.0,0.0,0.0,0.0,0.0,0.0,0.0,0.0,0.0,0.0,0.0,0.0,0.0,0.0,0.0,0.0,0.0,2.7344,2.7666,2.7738,2.7449,2.6933,2.6216,2.534,0.0,0.0,0.0,0.0,0.0,0.0,0.0,0.0,0.0,0.0,0.0,0.0,0.0,0.0,0.0,0.0,0.0,0.0,0.0,0.0,0.0,0.0,0.0,0.0,0.0,0.0,0.0,0.0,0.0,0.0,0.0,0.0,0.0,0.0,0.0,0.0,0.0,0.0,0.0,0.0,0.0,0.0,0.0,0.0,0.0,0.0,0.0,0.0,0.0,0.0,0.0,0.0,0.0,0.0,0.0,0.0,0.0,0.0,0.0,0.0,0.0,0.0,0.0,0.0,0.0,0.0,0.0,0.0,0.0,0.0,0.0,0.0,0.0,0.0,0.0,0.0,0.0,0.0,0.0,0.0,0.0,0.0,0.0,0.0,0.0,0.0,0.0,0.0,0.0,0.0,0.0,0.0,0.0,0.0,0.0,0.0,0.0,0.0,0.0,0.0,0.0,0.0,0.0,0.0,0.0,0.0,0.0,0.0,3.0901,3.0523,2.9951,2.9119,2.8852,2.7676,0.0,0.0,0.0,0.0,0.0,0.0,0.0,0.0,0.0,0.0,0.0,0.0,0.0,0.0,0.0,0.0,0.0,0.0,0.0,0.0,0.0,0.0,0.0,0.0,0.0,0.0,0.0,0.0,0.0,0.0,0.0,0.0,0.0,0.0,0.0,0.0,0.0,0.0,0.0,0.0,0.0,0.0,0.0,0.0,0.0,0.0,0.0,0.0,0.0,0.0,0.0,0.0,0.0,0.0,0.0,0.0,0.0,0.0,0.0,0.0,0.0,0.0,0.0,0.0,0.0,0.0,0.0,0.0,0.0,0.0,0.0,0.0,0.0,0.0,0.0,0.0,0.0,0.0,0.0,0.0,0.0,0.0,0.0,0.0,0.0,0.0,0.0,0.0,0.0,0.0,0.0,0.0,0.0,0.0,0.0,0.0,0.0,0.0,0.0,0.0,0.0,0.0,0.0,0.0,0.0,0.0,0.0,0.0,0.0,3.3062,3.4062,3.3476,3.1273,2.9999,2.8781,0.0,0.0,0.0,0.0,0.0,0.0,0.0,0.0,0.0,0.0,0.0,0.0,0.0,0.0,0.0,0.0,0.0,0.0,0.0,0.0,0.0,0.0,0.0,0.0,0.0,0.0,0.0,0.0,0.0,0.0,0.0,0.0,0.0,0.0,0.0,0.0,0.0,0.0,0.0,0.0,0.0,0.0,0.0,0.0,0.0,0.0,0.0,0.0,0.0,0.0,0.0,0.0,0.0,0.0,0.0,0.0,0.0,0.0,0.0,0.0,0.0,0.0,0.0,0.0,0.0,0.0,0.0,0.0,0.0,0.0,0.0,0.0,0.0,0.0,0.0,0.0,0.0,0.0,0.0,0.0,0.0,0.0,0.0,0.0,0.0,0.0,0.0,0.0,0.0,0.0,0.0,0.0,0.0,0.0,0.0,0.0,0.0,0.0,0.0,0.0,0.0,0.0,0.0,0.0,0.0,0.0,0.0,0.0,3.2125,3.4516,3.6045,3.5892,3.3916,3.2119,3.038,0.0,0.0,0.0,0.0,0.0,0.0,0.0,0.0,0.0,0.0,0.0,0.0,0.0,0.0,0.0,0.0,0.0,0.0,0.0,0.0,0.0,0.0,0.0,0.0,0.0,0.0,0.0,0.0,0.0,0.0,0.0,0.0,0.0,0.0,0.0,0.0,0.0,0.0,0.0,0.0,0.0,0.0,0.0,0.0,0.0,0.0,0.0,0.0,0.0,0.0,0.0,0.0,0.0,0.0,0.0,0.0,0.0,0.0,0.0,0.0,0.0,0.0,0.0,0.0,0.0,0.0,0.0,0.0,0.0,0.0,0.0,0.0,0.0,0.0,0.0,0.0,0.0,0.0,0.0,0.0,0.0,0.0,0.0,0.0,0.0,0.0,0.0,0.0,0.0,0.0,0.0,0.0,0.0,0.0,0.0,0.0,0.0,0.0,0.0,0.0,0.0,0.0,0.0,0.0,0.0,0.0,0.0,0.0,3.3121,3.5457,3.7082,3.7532,3.6696,3.4617,3.2126,0.0,0.0,0.0,0.0,0.0,0.0,0.0,0.0,0.0,0.0,0.0,0.0,0.0,0.0,0.0,0.0,0.0,0.0,0.0,0.0,0.0,0.0,0.0,0.0,0.0,0.0,0.0,0.0,0.0,0.0,0.0,0.0,0.0,0.0,0.0,0.0,0.0,0.0,0.0,0.0,0.0,0.0,0.0,0.0,0.0,0.0,0.0,0.0,0.0,0.0,0.0,0.0,0.0,0.0,0.0,0.0,0.0,0.0,0.0,0.0,0.0,0.0,0.0,0.0,0.0,0.0,0.0,0.0,0.0,0.0,0.0,0.0,0.0,0.0,0.0,0.0,0.0,0.0,0.0,0.0,0.0,0.0,0.0,0.0,0.0,0.0,0.0,0.0,0.0,0.0,0.0,0.0,0.0,0.0,0.0,0.0,0.0,0.0,0.0,0.0,0.0,0.0,0.0,0.0,0.0,0.0,0.0,0.0,3.4014,3.6818,3.835,3.9055,3.882,3.5711,3.285,0.0,0.0,0.0,0.0,0.0,0.0,0.0,0.0,0.0,0.0,0.0,0.0,0.0,0.0,0.0,0.0,0.0,0.0,0.0,0.0,0.0,0.0,0.0,0.0,0.0,0.0,0.0,0.0,0.0,0.0,0.0,0.0,0.0,0.0,0.0,0.0,0.0,0.0,0.0,0.0,0.0,0.0,0.0,0.0,0.0,0.0,0.0,0.0,2.6249,0.0,0.0,0.0,0.0,0.0,0.0,0.0,0.0,0.0,0.0,0.0,0.0,0.0,0.0,0.0,0.0,0.0,0.0,0.0,0.0,0.0,0.0,0.0,0.0,0.0,0.0,0.0,0.0,0.0,0.0,0.0,0.0,0.0,0.0,0.0,0.0,0.0,0.0,0.0,0.0,0.0,0.0,0.0,0.0,0.0,0.0,0.0,0.0,0.0,0.0,0.0,0.0,0.0,0.0,0.0,0.0,0.0,0.0,0.0,3.4354,3.699,3.8478,3.9092,3.8683,3.6573,3.4179,0.0,0.0,0.0,0.0,0.0,0.0,0.0,0.0,0.0,0.0,0.0,0.0,0.0,0.0,0.0,0.0,0.0,0.0,0.0,0.0,0.0,0.0,0.0,0.0,0.0,0.0,0.0,0.0,0.0,0.0,0.0,0.0,0.0,0.0,0.0,0.0,0.0,0.0,0.0,0.0,0.0,0.0,0.0,0.0,0.0,0.0,0.0,0.0,0.0,0.0,0.0,0.0,0.0,0.0,0.0,0.0,0.0,0.0,0.0,0.0,0.0,0.0,0.0,0.0,0.0,0.0,0.0,0.0,0.0,0.0,0.0,0.0,0.0,0.0,0.0,0.0,0.0,0.0,0.0,0.0,0.0,0.0,0.0,0.0,0.0,0.0,0.0,0.0,0.0,0.0,0.0,0.0,0.0,0.0,0.0,0.0,0.0,0.0,0.0,0.0,0.0,0.0,0.0,0.0,0.0,0.0,0.0,3.2442,3.4675,3.6891,3.8396,3.8819,3.8091,3.7229,3.5457,3.265,0.0,0.0,0.0,0.0,0.0,0.0,0.0,0.0,0.0,0.0,0.0,0.0,0.0,0.0,0.0,0.0,0.0,0.0,0.0,0.0,0.0,0.0,0.0,0.0,0.0,0.0,0.0,0.0,0.0,0.0,0.0,0.0,0.0,0.0,0.0,0.0,0.0,0.0,2.5723,2.7776,0.0,0.0,0.0,0.0,0.0,0.0,0.0,0.0,2.8013,0.0,0.0,0.0,0.0,0.0,0.0,0.0,0.0,0.0,0.0,0.0,0.0,0.0,0.0,0.0,0.0,0.0,0.0,0.0,0.0,0.0,0.0,0.0,0.0,0.0,0.0,0.0,0.0,0.0,0.0,0.0,0.0,0.0,0.0,0.0,0.0,0.0,0.0,0.0,0.0,0.0,0.0,0.0,0.0,0.0,0.0,0.0,0.0,0.0,0.0,0.0,0.0,0.0,0.0,0.0,0.0,3.097,3.3186,3.5419,3.7686,3.9157,3.9546,3.8819,3.7483,3.5413,3.2523,0.0,0.0,0.0,0.0,0.0,0.0,0.0,0.0,0.0,0.0,0.0,0.0,0.0,0.0,0.0,0.0,0.0,0.0,0.0,0.0,0.0,0.0,0.0,0.0,0.0,0.0,0.0,0.0,0.0,0.0,0.0,0.0,0.0,0.0,0.0,0.0,0.0,0.0,0.0,2.9276,3.0147,0.0,0.0,0.0,0.0,0.0,0.0,0.0,0.0,3.0251,0.0,0.0,0.0,0.0,0.0,0.0,0.0,0.0,0.0,0.0,0.0,0.0,0.0,0.0,0.0,0.0,0.0,0.0,0.0,0.0,0.0,0.0,0.0,0.0,0.0,0.0,0.0,0.0,0.0,0.0,0.0,0.0,0.0,0.0,0.0,0.0,0.0,0.0,0.0,0.0,0.0,0.0,0.0,0.0,0.0,0.0,0.0,0.0,0.0,0.0,0.0,0.0,0.0,0.0,0.0,3.1123,3.3744,3.5994,3.7872,3.9326,3.9546,3.8447,3.7364,3.5182,0.0,0.0,0.0,0.0,0.0,0.0,0.0,0.0,0.0,0.0,0.0,0.0,0.0,0.0,0.0,0.0,0.0,0.0,0.0,0.0,0.0,0.0,0.0,0.0,0.0,0.0,0.0,0.0,0.0,0.0,0.0,0.0,0.0,0.0,0.0,0.0,0.0,0.0,0.0,0.0,3.0189,3.0931,3.1787,0.0,0.0,0.0,0.0,0.0,0.0,3.1385,3.1356,0.0,0.0,0.0,0.0,0.0,0.0,0.0,0.0,0.0,0.0,0.0,0.0,0.0,0.0,0.0,0.0,0.0,0.0,0.0,0.0,0.0,0.0,0.0,0.0,0.0,0.0,0.0,0.0,0.0,0.0,0.0,0.0,0.0,0.0,0.0,0.0,0.0,0.0,0.0,0.0,0.0,0.0,0.0,0.0,0.0,0.0,0.0,0.0,0.0,0.0,0.0,0.0,0.0,0.0,0.0,3.1376,3.4336,3.6586,3.8091,3.9394,3.9377,3.7956,3.7043,3.4861,0.0,0.0,0.0,0.0,0.0,0.0,0.0,0.0,0.0,0.0,0.0,0.0,0.0,0.0,0.0,0.0,0.0,0.0,0.0,0.0,0.0,0.0,0.0,0.0,0.0,0.0,0.0,0.0,0.0,0.0,0.0,0.0,0.0,0.0,0.0,0.0,0.0,0.0,0.0,0.0,0.0,3.1899,3.2731,3.2804,0.0,0.0,0.0,0.0,3.2831,3.2829,0.0,0.0,0.0,0.0,0.0,0.0,0.0,0.0,0.0,0.0,0.0,0.0,0.0,0.0,0.0,0.0,0.0,0.0,0.0,0.0,0.0,0.0,0.0,0.0,0.0,0.0,0.0,0.0,0.0,0.0,0.0,0.0,0.0,0.0,0.0,0.0,0.0,0.0,0.0,0.0,0.0,0.0,0.0,0.0,0.0,0.0,0.0,0.0,0.0,0.0,0.0,0.0,0.0,0.0,0.0,0.0,3.2121,3.5115,3.7364,3.8819,3.9665,3.9394,3.7939,3.6502,3.432,0.0,0.0,0.0,0.0,0.0,0.0,0.0,0.0,0.0,0.0,0.0,0.0,0.0,0.0,0.0,0.0,0.0,0.0,0.0,0.0,0.0,0.0,0.0,0.0,0.0,0.0,0.0,0.0,0.0,0.0,0.0,0.0,0.0,0.0,0.0,0.0,0.0,0.0,0.0,0.0,0.0,3.3506,3.4336,3.4331,3.4239,0.0,0.0,3.4445,3.5016,3.5206,0.0,0.0,0.0,0.0,0.0,0.0,0.0,0.0,0.0,0.0,0.0,0.0,0.0,0.0,0.0,0.0,0.0,0.0,0.0,0.0,0.0,0.0,0.0,0.0,0.0,0.0,0.0,0.0,0.0,0.0,0.0,0.0,0.0,0.0,0.0,0.0,0.0,0.0,0.0,0.0,0.0,0.0,0.0,0.0,0.0,0.0,0.0,0.0,0.0,0.0,0.0,0.0,0.0,0.0,0.0,2.9939,3.2882,3.5453,3.7499,3.8954,3.9698,3.9377,3.7939,3.6857,3.4878,0.0,0.0,0.0,0.0,0.0,0.0,0.0,0.0,0.0,0.0,0.0,0.0,0.0,0.0,0.0,0.0,0.0,0.0,0.0,0.0,0.0,0.0,0.0,0.0,0.0,0.0,0.0,0.0,0.0,0.0,0.0,0.0,0.0,0.0,0.0,0.0,0.0,0.0,0.0,0.0,0.0,0.0,3.5781,3.5853,0.0,0.0,0.0,3.647,3.6769,0.0,0.0,0.0,0.0,0.0,0.0,0.0,0.0,0.0,0.0,0.0,0.0,0.0,0.0,0.0,0.0,0.0,0.0,0.0,0.0,0.0,0.0,0.0,0.0,0.0,0.0,0.0,0.0,0.0,0.0,0.0,0.0,0.0,0.0,0.0,0.0,0.0,0.0,0.0,0.0,0.0,0.0,0.0,0.0,0.0,0.0,0.0,0.0,0.0,0.0,0.0,0.0,0.0,0.0,0.0,0.0,0.0,3.3643,3.591,3.777,3.9208,3.98,3.9462,3.8227,3.7263,0.0,0.0,0.0,0.0,0.0,0.0,0.0,0.0,0.0,0.0,0.0,0.0,0.0,0.0,0.0,0.0,0.0,0.0,0.0,0.0,0.0,0.0,0.0,0.0,0.0,0.0,0.0,2.1046,0.0,0.0,0.0,0.0,0.0,0.0,0.0,0.0,0.0,0.0,0.0,0.0,0.0,0.0,3.5562,3.7243,3.7352,3.7363,0.0,0.0,3.8428,3.8629,3.8504,3.8137,0.0,0.0,0.0,0.0,0.0,0.0,0.0,0.0,0.0,0.0,0.0,0.0,0.0,0.0,0.0,0.0,0.0,0.0,0.0,0.0,0.0,0.0,0.0,0.0,0.0,0.0,0.0,0.0,0.0,0.0,0.0,0.0,0.0,0.0,0.0,0.0,0.0,0.0,0.0,0.0,0.0,0.0,0.0,0.0,0.0,0.0,0.0,0.0,0.0,0.0,0.0,0.0,0.0,0.0,0.0,3.4387,3.6671,3.8514,3.9935,4.0054,3.9715,3.892,3.7533,3.5707,0.0,0.0,0.0,0.0,0.0,0.0,0.0,0.0,0.0,0.0,0.0,0.0,0.0,0.0,0.0,0.0,0.0,0.0,0.0,0.0,0.0,0.0,0.0,0.0,0.0,0.0,0.0,0.0,0.0,0.0,0.0,0.0,0.0,0.0,0.0,0.0,0.0,0.0,0.0,0.0,0.0,3.6456,3.8745,3.8887,3.9293,0.0,0.0,4.0178,4.086,4.0373,3.9697,3.896,0.0,0.0,0.0,0.0,0.0,0.0,0.0,0.0,0.0,0.0,0.0,0.0,0.0,0.0,0.0,0.0,0.0,0.0,0.0,0.0,0.0,0.0,0.0,0.0,0.0,0.0,0.0,0.0,0.0,0.0,0.0,0.0,0.0,0.0,0.0,0.0,0.0,0.0,0.0,0.0,0.0,0.0,0.0,0.0,0.0,0.0,0.0,0.0,0.0,0.0,0.0,0.0,0.0,3.2239,3.5148,3.6975,3.8616,4.0003,4.0087,3.9732,3.9005,3.8447,3.7077,0.0,0.0,0.0,0.0,0.0,0.0,0.0,0.0,0.0,0.0,0.0,0.0,0.0,0.0,0.0,0.0,0.0,0.0,0.0,0.0,0.0,0.0,0.0,0.0,0.0,0.0,0.0,0.0,2.5886,2.6812,2.7618,0.0,0.0,0.0,0.0,0.0,0.0,0.0,0.0,0.0,0.0,3.779,3.9556,4.0096,0.0,0.0,4.1332,4.1565,4.186,4.1225,4.0467,3.9736,3.8405,0.0,0.0,0.0,0.0,0.0,0.0,0.0,0.0,0.0,0.0,0.0,0.0,0.0,0.0,0.0,0.0,0.0,0.0,0.0,0.0,0.0,0.0,0.0,0.0,0.0,0.0,0.0,0.0,0.0,0.0,0.0,0.0,0.0,0.0,0.0,0.0,0.0,0.0,0.0,0.0,0.0,0.0,0.0,0.0,0.0,0.0,0.0,0.0,0.0,0.0,0.0,0.0,3.2645,3.5543,3.7127,3.8616,4.0087,4.0087,3.9834,3.9326,3.9123,3.8142,0.0,0.0,0.0,0.0,0.0,0.0,0.0,0.0,0.0,0.0,0.0,0.0,0.0,0.0,0.0,0.0,0.0,0.0,0.0,0.0,0.0,0.0,0.0,0.0,0.0,0.0,0.0,0.0,2.7411,2.8338,2.8473,0.0,0.0,0.0,0.0,0.0,0.0,0.0,0.0,0.0,0.0,3.8804,4.03,4.1077,4.1604,4.1772,4.2307,4.266,4.266,4.1996,4.1309,4.0785,0.0,0.0,0.0,0.0,0.0,0.0,0.0,0.0,0.0,0.0,0.0,0.0,0.0,0.0,0.0,0.0,0.0,0.0,0.0,0.0,0.0,0.0,0.0,0.0,0.0,0.0,0.0,0.0,0.0,0.0,0.0,0.0,0.0,0.0,0.0,0.0,0.0,0.0,0.0,0.0,0.0,0.0,0.0,0.0,0.0,0.0,0.0,0.0,0.0,0.0,0.0,0.0,0.0,3.2696,3.5588,3.7161,3.8633,4.002,4.0087,4.007,4.002,3.936,3.8633,3.7838,0.0,0.0,0.0,0.0,0.0,0.0,0.0,0.0,0.0,0.0,0.0,0.0,0.0,0.0,0.0,0.0,0.0,0.0,0.0,0.0,0.0,0.0,0.0,0.0,0.0,0.0,2.775,2.857,2.9104,0.0,0.0,0.0,0.0,0.0,0.0,0.0,0.0,0.0,0.0,3.7469,3.9438,4.0977,4.1811,4.2551,4.3311,4.3424,4.3461,4.3442,4.2782,4.2301,0.0,0.0,0.0,0.0,0.0,0.0,0.0,0.0,0.0,0.0,0.0,0.0,0.0,0.0,0.0,0.0,0.0,0.0,0.0,0.0,0.0,0.0,0.0,0.0,0.0,0.0,0.0,0.0,2.7633,0.0,0.0,0.0,0.0,0.0,0.0,0.0,0.0,0.0,0.0,0.0,3.397,3.409,0.0,0.0,0.0,0.0,0.0,0.0,0.0,0.0,0.0,0.0,0.0,0.0,3.388,3.6332,3.7872,3.9089,4.0054,4.0087,4.0087,4.0087,3.9901,3.914,3.7922,0.0,0.0,0.0,0.0,0.0,0.0,0.0,0.0,0.0,0.0,0.0,0.0,0.0,0.0,0.0,0.0,0.0,0.0,0.0,0.0,0.0,0.0,0.0,0.0,0.0,2.8815,0.0,0.0,0.0,0.0,0.0,0.0,0.0,0.0,0.0,0.0,0.0,3.5764,3.758,3.8865,4.0204,4.1793,4.2629,4.3201,0.0,0.0,0.0,0.0,0.0,0.0,0.0,0.0,0.0,0.0,0.0,0.0,0.0,0.0,3.6384,3.5552,3.4967,3.4632,3.4734,0.0,0.0,0.0,0.0,0.0,0.0,0.0,0.0,0.0,0.0,0.0,0.0,0.0,0.0,0.0,0.0,2.927,0.0,0.0,0.0,0.0,0.0,0.0,0.0,0.0,3.3762,3.4839,3.6041,3.6215,3.6055,0.0,3.4928,3.3846,0.0,0.0,0.0,0.0,0.0,0.0,0.0,0.0,3.4776,3.6785,3.8244,3.9343,4.0037,4.0087,4.0087,4.0087,4.0087,3.9495,3.8328,3.6603,3.4641,0.0,0.0,0.0,0.0,0.0,0.0,0.0,0.0,0.0,0.0,0.0,0.0,0.0,0.0,0.0,0.0,0.0,0.0,0.0,0.0,0.0,0.0,0.0,3.0461,0.0,0.0,0.0,0.0,0.0,0.0,0.0,0.0,0.0,3.4631,3.5784,3.7285,3.9106,4.0204,4.1158,4.2206,0.0,0.0,0.0,0.0,0.0,0.0,0.0,4.3222,4.3516,4.3146,4.2555,4.1765,4.0988,4.0511,4.0522,0.0,0.0,3.7968,3.7201,3.6882,3.6962,3.7004,3.7341,3.8409,3.9083,3.982,0.0,0.0,0.0,0.0,0.0,0.0,0.0,0.0,3.2129,3.2133,0.0,3.1304,0.0,0.0,0.0,0.0,0.0,0.0,0.0,0.0,3.5629,3.6522,3.7236,3.7551,3.7698,3.7679,3.7067,3.6789,3.6552,3.3152,0.0,0.0,0.0,0.0,0.0,0.0,3.5318,3.6874,3.8311,3.9377,4.0054,4.0087,4.0087,4.0087,4.0087,3.9749,3.9056,3.8294,3.6891,3.4675,3.2476,0.0,0.0,0.0,0.0,0.0,0.0,0.0,0.0,0.0,0.0,0.0,0.0,0.0,0.0,0.0,0.0,0.0,0.0,0.0,0.0,3.177,0.0,0.0,0.0,0.0,0.0,0.0,0.0,0.0,0.0,0.0,3.5588,3.744,3.9166,3.9958,0.0,0.0,0.0,0.0,4.3534,4.3534,4.3552,4.3866,4.462,4.4729,4.4984,4.5718,0.0,0.0,4.4856,4.4066,4.3497,4.3552,4.3487,4.2673,3.9849,3.931,3.9222,3.9285,3.9342,3.9843,4.1197,4.1672,4.2173,3.4177,0.0,0.0,0.0,0.0,3.1977,3.2415,3.2532,3.349,3.3702,3.3413,3.3029,0.0,0.0,0.0,0.0,0.0,0.0,3.463,3.5412,3.6425,3.7355,3.822,3.8504,3.8448,3.812,3.797,3.7701,3.7391,3.6363,3.4958,3.3271,0.0,0.0,0.0,0.0,3.6857,3.8328,3.9292,3.9868,4.007,4.0087,4.0087,4.0087,4.0087,3.9969,3.9766,3.9073,3.8142,3.6958,3.4776,0.0,0.0,0.0,0.0,0.0,0.0,0.0,0.0,0.0,0.0,0.0,0.0,0.0,0.0,0.0,0.0,0.0,0.0,0.0,3.3458,3.4614,3.4761,0.0,0.0,0.0,0.0,0.0,0.0,0.0,0.0,0.0,3.9289,3.9987,4.0758,0.0,0.0,4.2488,4.3057,4.3864,4.4342,4.4373,0.0,0.0,0.0,4.5535,4.5626,4.5865,4.5902,4.581,4.559,4.5369,4.5223,4.5223,4.5204,4.4909,4.4107,4.3011,4.2365,4.241,4.2894,4.343,4.3892,4.4428,4.4964,3.7982,3.6205,3.4102,3.3276,3.3397,3.4182,3.4546,3.4576,3.526,3.5474,3.5262,3.4988,3.4662,3.4415,3.3902,0.0,0.0,0.0,3.5884,3.6495,3.7568,3.8344,3.8921,3.9357,3.9411,3.9133,3.9351,3.9312,3.9191,3.8941,3.8052,3.6645,0.0,0.0,3.6113,3.7432,3.8548,3.9428,4.0443,4.0815,4.0527,4.024,4.0087,4.0087,4.0087,4.0087,4.0087,3.9665,3.9089,3.8345,3.6738,3.503,0.0,0.0,0.0,0.0,0.0,0.0,0.0,0.0,0.0,0.0,0.0,2.7145,0.0,0.0,0.0,0.0,3.2472,3.3935,3.5404,3.6266,0.0,0.0,0.0,0.0,0.0,0.0,0.0,3.763,3.8834,4.0152,4.1405,4.1864,4.2231,4.2708,4.2763,4.3075,4.3864,0.0,4.4819,4.511,4.5608,4.603,4.6305,4.6379,4.6471,4.6819,4.6856,4.6856,4.6856,4.6856,4.6874,4.6874,4.6837,4.6874,4.6836,4.6066,4.5224,4.4722,4.4996,4.542,4.5751,4.623,4.6635,4.116,4.0292,3.7255,3.5923,3.5878,3.6462,3.6716,3.6761,3.733,3.7278,3.6827,3.6995,3.6413,3.5385,3.5,0.0,0.0,3.6538,3.7142,3.7633,3.8763,3.9298,3.9346,3.9982,4.0285,4.0345,4.0743,4.1107,4.1262,4.0768,4.0338,4.0001,3.8839,3.7855,3.7212,3.9089,4.0155,4.0273,4.1593,4.1931,4.1221,4.0527,4.0138,4.0087,4.0087,4.0087,4.0087,4.0087,3.9783,3.9106,3.8396,3.6975,3.4793,0.0,0.0,0.0,0.0,0.0,0.0,0.0,0.0,0.0,0.0,0.0,0.0,0.0,0.0,0.0,3.5067,0.0,3.667,3.7331,0.0,0.0,0.0,3.7776,3.7716,3.8409,3.9203,3.9991,0.0,0.0,0.0,0.0,4.3479,4.3479,4.3479,4.3791,4.4599,4.4765,4.5058,4.5865,4.6067,4.6359,4.7091,4.7166,4.7425,4.8031,4.8324,4.8214,4.8214,4.8214,4.8269,4.8214,4.8306,4.8269,4.8306,4.8141,4.7847,4.6342,4.6104,4.6324,4.6985,4.7186,4.7407,4.2491,4.1773,4.0516,3.9409,3.8497,3.8661,3.8721,3.8736,3.8886,3.8556,3.8012,3.7997,3.7684,3.7116,3.7081,3.7227,3.738,3.7597,3.7684,3.7852,3.8284,3.8542,3.8642,3.898,3.9298,3.9612,3.9782,4.0132,4.0785,4.077,4.1005,4.1318,4.116,4.0509,3.9411,3.9834,4.0646,4.1745,4.2117,4.1948,4.1238,4.1035,4.0663,4.0104,4.0087,4.0087,4.0087,4.0087,4.0053,3.9817,3.9123,3.7973,3.6315,3.4269,0.0,0.0,0.0,0.0,0.0,0.0,0.0,0.0,0.0,3.0428,3.2421,0.0,3.4629,0.0,3.7064,3.8634,3.9845,4.012,0.0,0.0,3.9753,4.0005,3.9399,4.0044,4.0832,4.162,4.1886,4.2334,4.3112,4.3387,4.3479,4.3479,4.3479,4.3791,4.458,4.5241,4.5883,4.6654,4.7297,4.7772,4.7956,4.7992,4.8067,4.8269,4.8324,4.8324,4.8324,4.8324,4.8324,4.8324,4.8324,4.8324,4.8324,4.8324,4.8214,4.781,4.7737,4.7774,4.7976,4.8012,4.8067,4.4107,4.321,4.2851,4.2087,4.1115,4.0546,4.0292,4.0292,4.0292,4.0083,3.9694,3.9409,3.9167,3.8877,3.8647,3.8747,3.9018,3.9018,3.9184,3.9455,3.9627,3.9838,3.9878,4.0155,4.043,4.0686,4.079,4.1238,4.1853,4.1588,4.1765,4.2525,4.2468,4.2303,4.2117,4.1745,4.1965,4.2777,4.2794,4.2439,4.1711,4.1356,4.0849,4.0104,3.9766,3.9597,3.958,3.9292,3.9106,3.9089,3.8734,3.799,3.6869,3.5267,3.3728,0.0,0.0,0.0,0.0,0.0,0.0,0.0,0.0,0.0,0.0,0.0,3.7004,0.0,3.925,0.0,4.1038,4.1097,4.0928,4.0487,4.1167,4.1456,4.1038,4.1687,4.2338,4.2787,4.2837,4.2999,4.3424,4.3479,4.3479,4.3479,4.3479,4.3791,4.4617,4.5388,4.6177,4.6966,4.7774,4.8324,4.8324,4.8324,4.8324,4.8324,4.8324,4.8324,4.8324,4.8324,4.8324,4.8324,4.8324,4.8324,4.8324,4.8324,4.8324,4.8324,4.8324,4.8324,4.8324,4.8324,4.8324,4.5633,4.4571,4.4481,4.4107,4.3494,4.2372,4.1788,4.1639,4.1624,4.1579,4.1474,4.0816,4.0531,4.0487,3.9933,3.9978,4.0516,4.0531,4.0831,4.1369,4.155,4.1626,4.1716,4.1984,4.2117,4.2117,4.2452,4.2869,4.3488,4.2611,4.2654,4.363,4.3322,4.3688,4.4693,4.4125,4.3753,4.3724,4.3606,4.3149,4.2303,4.1677,4.095,4.0104,3.9377,3.8988,3.8971,3.8278,3.7922,3.7922,3.7922,3.7601,3.6958,3.6197,3.5199,0.0,3.3202,0.0,0.0,0.0,0.0,0.0,0.0,0.0,0.0,3.7275,3.9414,4.1097,4.1277,4.1313,4.1405,4.1405,4.1423,4.1442,4.2029,4.2448,4.2478,4.3054,4.3479,4.3479,4.3479,4.3479,4.3479,4.3479,4.3479,4.3479,4.3479,4.3736,4.4433,4.5186,4.5975,4.6815,4.7532,4.781,4.7847,4.7902,4.7957,4.8067,4.8104,4.8196,4.8288,4.8324,4.8324,4.8324,4.8324,4.8324,4.8324,4.8324,4.8324,4.8324,4.8324,4.8324,4.8324,4.8324,4.8324,4.6172,4.5888,4.5349,4.5035,4.49,4.4661,4.3958,4.297,4.297,4.2656,4.2147,4.1489,4.119,4.119,4.1055,4.1085,4.119,4.1205,4.1265,4.1384,4.146,4.146,4.146,4.1535,4.1611,4.1776,4.1835,4.2249,4.2956,4.3012,4.3556,4.4448,4.4798,4.5251,4.5734,0.0,0.0,0.0,4.4654,4.369,4.2354,4.2151,4.1441,4.0121,3.936,0.0,3.8971,3.8294,3.7922,3.7922,3.7922,0.0,0.0,0.0,0.0,0.0,0.0,0.0,0.0,0.0,0.0,0.0,3.6759,3.7208,3.8074,3.9553,4.0894,4.1959,4.2066,4.2341,4.2965,4.3039,4.3039,4.3057,4.3185,4.3293,4.3293,4.3422,4.3479,4.3479,4.3479,4.3479,4.3479,4.3479,4.3479,4.3479,4.3479,4.3552,4.3699,4.447,4.5205,4.5953,4.6359,4.6397,4.6342,4.6416,4.6728,4.7113,4.7333,4.759,4.8122,4.8306,4.8324,4.8324,4.8324,4.8324,4.8324,4.8324,4.8324,4.8324,4.8324,4.8324,4.8324,4.8324,4.8324,4.6621,0.0,4.5948,4.5618,0.0,4.5289,4.4915,4.4272,4.3958,4.3449,4.2821,4.2491,4.2342,4.2342,4.2342,4.2342,4.2342,4.2342,4.2342,4.2342,4.2342,4.2342,4.2342,4.2342,4.2419,4.2511,4.2511,4.2895,4.3525,4.3479,4.3937,4.4921,4.5406,4.5929,4.6358,4.6809,4.6608,4.572,4.5331,4.4401,4.2929,4.2489,4.1762,4.0663,0.0,0.0,0.0,0.0,0.0,0.0,0.0,0.0,0.0,0.0,0.0,3.733,3.6975,3.6755,3.6847,3.6905,3.732,3.8116,3.8946,3.9596,4.0059,4.0799,4.1684,4.2734,4.2842,4.3023,4.3424,4.3479,4.3479,4.3479,4.3479,4.3479,4.3479,4.3479,4.3479,4.3479,4.3479,4.3479,4.3479,4.3479,4.3479,4.3479,4.3479,4.3479,4.3571,4.4195,4.5003,4.5736,4.592,4.59,4.592,4.5902,4.5975,4.6452,4.6856,4.7241,4.7664,4.8031,4.8324,4.8324,4.8324,4.8324,4.8324,4.8324,4.8324,4.8324,4.8324,4.8324,4.8324,4.8324,4.8324,4.6995,4.6501,4.6501,4.6172,4.5648,4.5648,4.5574,4.5424,0.0,0.0,0.0,4.3673,4.3673,4.3673,4.3554,4.3509,4.3509,4.3374,4.3344,4.3344,4.3344,4.3344,4.3344,4.3344,4.3344,4.3344,4.3344,4.3566,4.4205,4.3792,4.4095,4.5033,4.5576,4.6171,4.6959,4.75,4.7188,4.6143,4.5838,4.5043,4.3656,4.2878,4.2083,4.1221,3.9901,3.9123,3.8971,3.8294,3.7922,3.7905,3.7889,3.7956,3.8091,3.8075,3.8142,3.8278,3.8294,3.8294,3.8294,3.8357,3.8659,3.9353,4.0439,4.1161,4.1346,4.1629,4.2214,4.3286,4.3394,4.3411,4.3497,4.3479,4.3479,4.3479,4.3479,4.3479,4.3479,4.3479,4.3479,4.3479,4.3479,4.3479,4.3479,4.3479,4.3479,4.3479,4.3479,4.3479,4.3552,4.4011,4.4635,4.5186,4.5256,4.5418,4.5424,4.5388,4.5516,4.5663,4.6232,4.6709,4.6966,4.7443,4.7829,4.7755,4.7976,4.8047,4.8104,4.8196,4.8306,4.8324,4.8324,4.8324,4.8324,4.8324,4.8324,4.7249,4.7174,4.716,4.7115,4.7025,4.7025,4.6711,4.6142,4.5454,4.5095,4.5005,4.502,4.502,4.499,4.4421,4.4182,4.4137,4.3584,4.3344,0.0,4.3344,4.3344,4.3344,4.3344,4.3344,4.3344,4.3344,4.3503,4.3754,4.3897,4.4205,4.4719,4.5353,4.6373,4.7655,4.7996,4.7931,4.7537,4.6363,4.528,4.4434,4.3639,4.2591,4.1255,4.0392,3.9614,3.9022,3.8328,3.7922,3.7905,3.7899,3.8201,3.8785,3.8851,3.9122,3.9698,3.9783,3.9783,3.9783,3.9816,3.9917,4.0118,4.0402,4.099,4.1884,4.225,4.2685,4.3196,4.3286,4.3411,4.3497,4.3479,4.3479,4.3479,4.3479,4.3479,4.3479,4.3479,4.3479,4.3479,4.3479,4.3479,4.3479,4.3479,4.3479,4.3479,4.3479,4.3479,4.3497,4.3571,4.3699,4.3809,4.3844,4.3844,4.3993,4.3846,4.4195,4.4782,4.5021,4.5443,4.5993,4.6287,4.6434,4.6305,4.6854,4.7221,4.7277,4.7865,4.8159,4.8233,4.8251,4.8306,4.8324,4.8324,4.8324,4.7309,4.7309,4.7309,4.7309,4.7309,4.7309,4.7145,4.6845,4.6531,4.5963,4.5304,4.5289,4.5289,4.5259,4.4975,4.484,4.484,4.4526,4.4392,4.4392,4.4392,4.4212,4.3898,4.3868,4.3868,4.3868,4.3883,4.4128,4.4655,4.4448,4.4582,4.5018,4.5536,4.6394,4.7455,4.7951,4.8269,4.8388,4.7402,4.6363,4.5213,4.4434,4.3521,4.2439,4.166,4.1136,4.0798,4.046,4.029,4.0273,3.9935,3.9867,4.0138,3.9833,3.9748,4.0104,4.0087,4.0087,4.0087,4.0087,4.0121,4.0305,4.0339,4.0714,4.1436,4.1878,4.2304,4.2844,4.3086,4.3269,4.3446,4.3463,4.3479,4.3479,4.3479,4.3479,4.3479,4.3479,4.3479,4.3479,4.3479,4.3479,4.3479,4.3479,4.3479,4.3479,4.3479,4.3479,4.3479,4.3479,4.3479,4.3479,4.3479,4.3497,4.3479,4.3479,4.3644,4.403,4.4433,4.48,4.5259,4.5535,4.5847,4.5902,4.6214,4.6415,4.6471,4.713,4.7571,4.7719,4.8067,4.8251,4.8324,4.8324,4.8324,4.7309,4.7309,4.7309,4.7309,4.7309,4.7309,4.7309,4.7309,4.7294,4.6711,4.5828,4.5753,4.5753,4.5738,4.5589,4.5514,4.5514,4.5364,4.5289,4.5289,4.5289,4.502,4.4571,4.4541,4.4541,4.4541,4.4526,4.4877,4.5417,4.5011,4.4921,4.5292,4.5618,4.6182,4.705,4.7737,4.8308,4.8736,4.8399,4.753,4.6244,4.5314,4.4468,4.3707,4.2929,4.2472,4.2303,4.2303,4.2303,4.2269,4.1743,4.1439,4.1424,4.0899,4.0578,4.0578,4.0578,4.0493,4.0358,4.0324,4.0324,4.0255,4.0256,4.0389,4.0836,4.1235,4.176,4.2418,4.2842,4.3123,4.3305,4.3446,4.3497,4.3479,4.3479,4.3479,4.3479,4.3479,4.3479,4.3479,4.3479,4.3479,4.3479,4.3479,4.3479,4.3479,4.3479,4.3479,4.3479,4.3479,4.3479,4.3479,4.3479,4.3479,4.3479,4.3479,4.3497,4.3497,4.3993,4.4305,4.4525,4.4966,4.5278,4.5259,4.5479,4.5626,4.5681,4.6269,4.6727,4.6874,4.7425,4.8031,4.8269,4.8306,4.8324,4.7309,4.7309,4.7309,4.7309,4.7309,4.7309,4.7309,4.7309,4.7309,4.7264,4.7055,4.7115,4.707,4.704,4.6486,4.6232,4.6172,4.5574,4.5334,4.5349,4.5289,4.5274,4.52,4.52,4.5214,4.52,4.52,4.5274,4.5492,4.5342,4.5242,4.526,4.5017,4.5624,4.6759,4.7421,4.8098,4.8769,4.8889,4.8528,4.7699,4.6329,4.5229,4.4485,4.3741,4.298,4.2439,4.2303,4.2303,4.2286,4.2252,4.2202,4.2185,4.2117,4.2066,4.2049,4.2049,4.1813,4.1187,4.1102,4.0815,4.0206,4.0206,4.0239,4.0421,4.0724,4.1258,4.2032,4.2516,4.2882,4.316,4.334,4.3446,4.3497,4.3479,4.3479,4.3479,4.3479,4.3479,4.3479,4.3479,4.3479,4.3479,4.3479,4.3479,4.3479,4.3479,4.3479,4.3479,4.3479,4.3479,4.3479,4.3479,4.3479,4.3479,4.3479,4.3479,4.3497,4.3534,4.3681,4.3791,4.3773,4.3754,4.4232,4.4412,4.4779,4.4981,4.544,4.6007,4.614,4.6709,4.748,4.8086,4.8324,4.8324,4.7309,4.7309,4.7309,4.7309,4.7309,4.7309,4.7309,4.7309,4.7309,4.7309,4.7309,4.7309,4.7309,4.7279,4.701,4.689,4.6875,4.6606,4.6486,4.6486,4.6471,4.6277,4.5933,4.5903,4.5903,4.5903,4.5903,4.6112,4.6352,4.6082,4.5725,4.5455,4.5309,4.5703,4.6702,4.7123,4.7688,4.8436,4.8769,4.8742,4.8494,4.7547,4.6447,4.5365,4.4925,4.4418,4.3741,4.3639,4.3639,4.3623,4.3192,4.2955,4.2963,4.2526,4.2307,4.232,4.2303,4.2168,4.1863,4.1863,4.1711,4.139,4.1393,4.129,4.0968,4.1117,4.1367,4.1515,4.205,4.2537,4.29,4.3123,4.3322,4.3411,4.3463,4.3497,4.3479,4.3479,4.3479,4.3479,4.3479,4.3479,4.3479,4.3479,4.3479,4.3479,4.3479,4.3479,4.3479,4.3479,4.3479,4.3479,4.3479,4.3479,4.3479,4.3479,4.3479,4.3479,4.3479,4.3479,4.3479,4.3479,4.3497,4.3479,4.3807,4.4044,4.3956,4.4612,4.5215,4.5424,4.6342,4.7352,4.8141,4.8306,4.8324,4.7309,4.7309,4.7309,4.7309,4.7309,4.7309,4.7309,4.7309,4.7309,4.7309,4.7309,4.7309,4.7309,4.7309,4.7309,4.7309,4.7309,4.7309,4.7309,4.7309,4.7309,4.7055,4.6621,4.6591,4.6591,4.6591,4.6591,4.683,4.7189,4.6651,4.6137,4.586,4.5761,4.6021,4.6618,4.7065,4.7601,4.8098,4.858,4.8832,4.8934,4.8494,4.7597,4.643,4.5906,4.5432,4.4925,4.4671,4.457,4.4553,4.4035,4.3748,4.3686,4.3211,4.2925,4.2946,4.2929,4.2811,4.2625,4.2608,4.2506,4.2356,4.2278,4.2142,4.1767,4.1784,4.1731,4.1691,4.2166,4.2732,4.2936,4.3302,4.3543,4.3723,4.3811,4.3773,4.3534,4.3479,4.3479,4.3479,4.3479,4.3479,4.3479,4.3479,4.3479,4.3479,4.3479,4.3479,4.3479,4.3479,4.3479,4.3479,4.3479,4.3479,4.3479,4.3479,4.3479,4.3479,4.3479,4.3479,4.3479,4.3479,4.3479,4.3479,4.3479,4.3516,4.3644,4.4118,4.4593,4.4928,4.5828,4.7021,4.7719,4.8049,4.8288,4.7309,4.7309,4.7309,4.7309,4.7309,4.7309,4.7309,4.7309,4.7309,4.7309,4.7309,4.7309,4.7309,4.7309,4.7309,4.7309,4.7309,4.7309,4.7309,4.7309,4.7309,4.7279,4.7279,4.7279,4.7249,4.7174,4.7174,4.7219,4.7264,4.6681,4.6391,4.6554,4.6331,4.6297,4.6614,4.7397,4.7887,4.8018,4.8517,4.8832,4.9001,4.8968,4.8545,4.7733,4.6481,4.5771,4.5551,4.4976,4.4587,4.457,4.4519,4.4502,4.4485,4.4451,4.4401,4.4384,4.4401,4.4113,4.3487,4.3386,4.3115,4.2506,4.2492,4.2339,4.2323,4.2409,4.2499,4.2756,4.3048,4.3371,4.3638,4.3999,4.4288,4.451,4.4619,4.4342,4.3608,4.3626,4.3497,4.3479,4.3479,4.3479,4.3479,4.3479,4.3479,4.3479,4.3479,4.3479,4.3479,4.3479,4.3479,4.3479,4.3479,4.3479,4.3479,4.3479,4.3479,4.3479,4.3479,4.3479,4.3479,4.3479,4.3479,4.3479,4.3479,4.3497,4.3497,4.3736,4.4156,4.4654,4.5424,4.6397,4.7572,4.7957,4.8214,4.7309,4.7309,4.7309,4.7309,4.7309,4.7309,4.7309,4.7309,4.7309,4.7309,4.7309,4.7309,4.7309,4.7309,4.7309,4.7309,4.7309,4.7309,4.7309,4.7309,4.7309,4.7309,4.7309,4.7309,4.7309,4.7309,4.7309,4.7309,4.7294,4.7055,4.695,4.7016,4.6879,4.695,4.7294,4.7495,4.7767,4.833,4.8542,4.8753,4.9018,4.9018,4.8866,4.8578,4.7648,4.6667,4.572,4.5432,4.5094,4.4604,4.457,4.457,4.457,4.457,4.457,4.457,4.457,4.4451,4.4215,4.4164,4.4062,4.3809,4.3758,4.3487,4.3132,4.3051,4.2988,4.2911,4.313,4.3663,4.452,4.4821,4.4953,4.5184,4.5352,4.5149,4.4488,4.4248,4.4081,4.366,4.3479,4.3479,4.3479,4.3479,4.3479,4.3479,4.3479,4.3479,4.3479,4.3479,4.3479,4.3479,4.3479,4.3479,4.3479,4.3479,4.3479,4.3479,4.3479,4.3479,4.3479,4.3479,4.3479,4.3479,4.3479,4.3479,4.3497,4.3534,4.3938,4.4984,4.5718,4.6361,4.7627,4.8012,4.8214,4.7309,4.7309,4.7309,4.7309,4.7309,4.7309,4.7309,4.7309,4.7309,4.7309,4.7309,4.7309,4.7309,4.7309,4.7309,4.7309,4.7309,4.7309,4.7309,4.7309,4.7309,4.7309,4.7309,4.7309,4.7309,4.7309,4.7309,4.7309,4.7309,4.7309,4.7309,4.7264,4.7271,4.7507,4.7803,4.7877,4.8271,4.8554,4.8728,4.8925,4.899,4.9018,4.9018,4.8934,4.8528,4.7699,4.6464,4.5974,4.55,4.4993,4.4705,4.457,4.457,4.457,4.457,4.457,4.457,4.457,4.457,4.457,4.457,4.457,4.4553,4.4316,4.3842,4.3813,4.3651,4.3524,4.3718,4.4448,4.5305,4.5686,4.5761,4.5981,4.6176,4.5957,4.5204,4.5072,4.4702,4.4062,4.3679,4.3516,4.3479,4.3479,4.3479,4.3479,4.3479,4.3479,4.3479,4.3479,4.3479,4.3479,4.3479,4.3479,4.3479,4.3479,4.3479,4.3479,4.3479,4.3479,4.3479,4.3479,4.3479,4.3479,4.3479,4.3479,4.3479,4.3479,4.4232,4.5333,4.5828,4.6269,4.726,4.8067,4.8233,4.7309,4.7309,4.7309,4.7309,4.7309,4.7309,4.7309,4.7309,4.7309,4.7309,4.7309,4.7309,4.7309,4.7309,4.7309,4.7309,4.7309,4.7309,4.7309,4.7309,4.7309,4.7309,4.7309,4.7309,4.7309,4.7309,4.7309,4.7309,4.7309,4.7309,4.7309,4.7381,4.7764,4.7836,4.7635,4.8606,4.9038,4.8862,4.926,4.9332,4.9058,4.9035,4.9018,4.9018,4.8951,4.8578,4.7868,4.6515,4.5754,4.5568,4.4959,4.4587,4.457,4.457,4.457,4.457,4.457,4.457,4.457,4.457,4.457,4.457,4.457,4.4536,4.4451,4.4451,4.4529,4.4555,4.4864,4.539,4.6014,4.65,4.6755,4.6833,4.6962,4.6745,4.614,4.5862,4.5598,4.4812,4.4209,4.3589,4.3534,4.3644,4.3644,4.3516,4.3479,4.3479,4.3479,4.3479,4.3479,4.3479,4.3479,4.3479,4.3479,4.3479,4.3479,4.3479,4.3479,4.3479,4.3479,4.3479,4.3479,4.3479,4.3479,4.3479,4.3571,4.3644,4.4176,4.5094,4.5553,4.6361,4.7278,4.8104,4.8233,4.7309,4.7309,4.7309,4.7309,4.7309,4.7309,4.7309,4.7309,4.7309,4.7309,4.7309,4.7309,4.7309,4.7309,4.7309,4.7309,4.7309,4.7309,4.7309,4.7309,4.7309,4.7309,4.7309,4.7309,4.7309,4.7309,4.7309,4.7309,4.7309,4.7309,4.7309,4.7396,4.781,4.8111,4.8266,4.9,4.9505,4.9894,4.9676,4.9648,4.9712,4.9255,4.9018,4.9018,4.9001,4.8883,4.8612,4.7242,4.6244,4.5754,4.4993,4.457,4.457,4.457,4.457,4.457,4.457,4.457,4.457,4.457,4.457,4.457,4.457,4.457,4.457,4.457,4.466,4.4822,4.5029,4.5424,4.597,4.6584,4.699,4.7448,4.7706,4.7532,4.6838,4.6232,4.5845,4.5571,4.5314,4.4947,4.447,4.4323,4.4066,4.3608,4.3516,4.3479,4.3479,4.3479,4.3479,4.3479,4.3479,4.3479,4.3479,4.3479,4.3479,4.3479,4.3479,4.3479,4.3479,4.3479,4.3479,4.3479,4.3479,4.3516,4.3589,4.3956,4.4488,4.5278,4.6122,4.6929,4.7719,4.8124,4.8345,4.7309,4.7309,4.7309,4.7309,4.7309,4.7309,4.7309,4.7309,4.7309,4.7309,4.7309,4.7309,4.7309,4.7309,4.7309,4.7309,4.7309,4.7309,4.7309,4.7309,4.7309,4.7309,4.7309,4.7309,4.7309,4.7309,4.7309,4.7309,4.7309,4.7309,4.7309,4.7396,4.7639,4.8049,4.8506,4.9221,4.9892,5.0301,5.0336,5.0206,4.9991,4.9644,4.9272,4.9052,4.9018,4.9018,4.8917,4.7834,4.687,4.6075,4.5145,4.4604,4.457,4.457,4.457,4.457,4.457,4.457,4.457,4.457,4.457,4.457,4.457,4.457,4.457,4.457,4.4677,4.4749,4.4903,4.5283,4.5768,4.6315,4.6908,4.7627,4.7974,4.7988,4.7497,4.6838,4.6379,4.6269,4.603,4.5663,4.5296,4.48,4.4562,4.403,4.3681,4.3479,4.3479,4.3479,4.3516,4.3516,4.3479,4.3479,4.3479,4.3479,4.3479,4.3479,4.3479,4.3479,4.3479,4.3479,4.3479,4.3479,4.3479,4.3479,4.3571,4.4176,4.4782,4.5736,4.6617,4.7353,4.7959,4.8347,4.8587,4.7309,4.7309,4.7309,4.7309,4.7309,4.7309,4.7309,4.7309,4.7309,4.7309,4.7309,4.7309,4.7309,4.7309,4.7309,4.7309,4.7324,4.7444,4.7459,4.7444,4.7429,4.7429,4.7324,4.7309,4.7309,4.7309,4.7309,4.7309,4.7309,4.7309,4.7309,4.7309,4.7538,4.788,4.8438,4.939,4.9894,5.0334,5.097,5.0844,5.0048,5.0004,4.9712,4.9069,4.9018,4.9018,4.89,4.8223,4.7479,4.665,4.5365,4.4705,4.4604,4.457,4.457,4.457,4.457,4.457,4.457,4.457,4.457,4.457,4.457,4.457,4.457,4.457,4.4587,4.4643,4.4737,4.5032,4.5529,4.6038,4.6649,4.7407,4.797,4.8153,4.8194,4.759,4.7222,4.7056,4.6544,4.6012,4.6012,4.5406,4.5002,4.4562,4.414,4.3993,4.3789,4.3862,4.3697,4.3716,4.3789,4.3624,4.3642,4.3479,4.3479,4.3479,4.3497,4.3516,4.3497,4.3497,4.3479,4.3479,4.3608,4.3571,4.3864,4.4526,4.5259,4.6104,4.6893,4.7592,4.8126,4.8513,4.8804,4.7309,4.7309,4.7309,4.7309,4.7309,4.7309,4.7309,4.7309,4.7309,4.7309,4.7309,4.7309,4.7309,4.7309,4.7309,4.7309,4.7444,4.7803,4.8027,4.8027,4.8027,4.7728,4.7399,4.7309,4.7309,4.7309,4.7309,4.7309,4.7309,4.7309,4.7309,4.7294,4.7467,4.7794,4.837,4.9178,5.0041,5.0704,5.1076,5.1177,5.0707,5.0308,4.9746,4.9103,4.9018,4.9018,4.8951,4.8308,4.7293,4.6109,4.5686,4.5128,4.4705,4.4587,4.457,4.457,4.457,4.457,4.457,4.457,4.457,4.457,4.457,4.457,4.457,4.457,4.457,4.4626,4.4737,4.4995,4.5441,4.5938,4.6631,4.7542,4.8032,4.8267,4.8269,4.8141,4.7956,4.7937,4.7737,4.7333,4.6874,4.6489,4.592,4.5149,4.4929,4.4947,4.4634,4.4759,4.4814,4.4483,4.4391,4.4007,4.3752,4.3552,4.3479,4.3479,4.3516,4.3571,4.3552,4.3552,4.3516,4.3479,4.3936,4.4009,4.449,4.5132,4.5847,4.6544,4.739,4.82,4.8402,4.8714,4.8959,4.7563,4.7309,4.7309,4.7309,4.7309,4.7309,4.7309,4.7309,4.7309,4.7309,4.7309,4.7309,4.7309,4.7309,4.7309,4.7489,4.7743,4.8117,4.8431,4.8641,4.8401,4.7923,4.7444,4.7309,4.7309,4.7309,4.7309,4.7309,4.7309,4.7309,4.7309,4.7309,4.7396,4.7709,4.8202,4.8934,4.9805,5.0735,5.1254,5.1453,5.1296,5.0818,5.0219,4.9543,4.9221,4.9018,4.8951,4.8595,4.78,4.6786,4.6092,4.55,4.5094,4.4739,4.4587,4.457,4.457,4.457,4.457,4.457,4.457,4.457,4.457,4.457,4.457,4.457,4.457,4.4626,4.4682,4.494,4.5441,4.6119,4.6908,4.7645,4.8072,4.8324,4.8324,4.8306,4.8306,4.8324,4.8288,4.8177,4.7627,4.7352,4.6709,4.603,4.5755,4.5571,4.5333,4.5716,4.586,4.5421,4.5165,4.4928,4.4727,4.4599,4.447,4.436,4.4232,4.4176,4.3883,4.3864,4.4009,4.4101,4.4322,4.4652,4.5205,4.5792,4.6397,4.715,4.8053,4.8513,4.866,4.8872,4.9127,4.7893,4.7309,4.7309,4.7309,4.7309,4.7309,4.7309,4.7309,4.7309,4.7309,4.7309,4.7309,4.7309,4.7309,4.7324,4.7638,4.8252,4.8401,4.8835,4.9045,4.8895,4.8327,4.7788,4.7578,4.7534,4.7504,4.7429,4.7369,4.7339,4.7309,4.7309,4.7309,4.7309,4.7553,4.8034,4.8671,4.947,5.0493,5.1484,5.1777,5.1698,5.1393,5.0896,4.9999,4.9306,4.9035,4.9018,4.8917,4.8595,4.8054,4.6684,4.6075,4.5805,4.5128,4.4773,4.4705,4.4671,4.457,4.457,4.457,4.457,4.457,4.457,4.457,4.457,4.457,4.457,4.457,4.457,4.4886,4.5529,4.6537,4.7258,4.7723,4.805,4.8286,4.8324,4.8324,4.8324,4.8324,4.8324,4.8324,4.8141,4.7755,4.7168,4.6673,4.6526,4.6489,4.6342,4.6507,4.6452,4.6122,4.6012,4.5938,4.581,4.5718,4.5626,4.5516,4.5369,4.5168,4.458,4.4507,4.4707,4.4908,4.5037,4.5424,4.5957,4.6507,4.6985,4.7481,4.8181,4.8513,4.8768,4.9061,4.9289,4.7893,4.7309,4.7309,4.7309,4.7309,4.7309,4.7309,4.7309,4.7309,4.7309,4.7309,4.7309,4.7309,4.7309,4.7339,4.7653,4.8386,4.885,4.9419,4.9942,4.9927,4.9449,4.882,4.8371,4.8072,4.8042,4.8057,4.7788,4.7444,4.7309,4.7309,4.7309,4.7396,4.7553,4.8049,4.8671,4.9454,5.0493,5.1475,5.1943,5.1966,5.1932,5.1386,5.0185,4.9407,4.9052,4.9018,4.9018,4.8917,4.8578,4.7919,4.7141,4.6549,4.5855,4.5483,4.5331,4.4908,4.4604,4.4587,4.4604,4.457,4.457,4.457,4.457,4.457,4.457,4.457,4.457,4.4626,4.4923,4.5632,4.6631,4.7302,4.7681,4.805,4.8324,4.8324,4.8324,4.8324,4.8324,4.8324,4.8324,4.8324,4.8214,4.7755,4.7333,4.7278,4.7388,4.7388,4.7333,4.713,4.6874,4.68,4.6782,4.6543,4.6525,4.6526,4.6507,4.6434,4.6342,4.5736,4.5461,4.5754,4.579,4.5698,4.6195,4.68,4.6929,4.7334,4.7849,4.8254,4.855,4.8839,4.9127,4.9626,4.8192,4.7324,4.7309,4.7309,4.7309,4.7309,4.7309,4.7309,4.7309,4.7309,4.7309,4.7309,4.7309,4.7309,4.7354,4.7803,4.882,4.9748,5.0361,5.0571,5.0421,5.0197,5.0032,4.9224,4.8641,4.8371,4.8282,4.7923,4.7474,4.7309,4.7309,4.7309,4.7396,4.7709,4.8218,4.8836,4.9789,5.0723,5.1712,5.2233,5.2419,5.2319,5.1589,5.0371,4.9695,4.939,4.9035,4.9018,4.9018,4.89,4.8612,4.8071,4.7344,4.6633,4.6261,4.6092,4.5534,4.5145,4.5094,4.479,4.457,4.4587,4.457,4.457,4.457,4.457,4.457,4.457,4.4665,4.4923,4.5735,4.6695,4.7363,4.7681,4.8032,4.8286,4.8324,4.8324,4.8324,4.8324,4.8324,4.8324,4.8324,4.8324,4.8251,4.7792,4.7792,4.7884,4.7921,4.7884,4.7864,4.7736,4.7661,4.7551,4.7313,4.7239,4.7333,4.737,4.7407,4.7388,4.715,4.6966,4.6911,4.6765,4.6599,4.7095,4.7607,4.7664,4.7683,4.8032,4.8402,4.8623,4.8927,4.937,4.9973,4.8401,4.7309,4.7309,4.7309,4.7309,4.7309,4.7309,4.7309,4.7309,4.7309,4.7309,4.7309,4.7309,4.7309,4.7309,4.8042,4.9119,5.0287,5.081,5.0765,5.0631,5.069,5.0676,4.9957,4.9105,4.8491,4.8327,4.7938,4.7474,4.7309,4.7309,4.7294,4.7467,4.788,4.8438,4.9163,5.0104,5.1102,5.1931,5.259,5.2976,5.2674,5.1843,5.0625,5.0084,4.9644,4.9154,4.9018,4.9018,4.9018,4.9018,4.8663,4.8088,4.7411,4.6955,4.6938,4.6261,4.5805,4.5517,4.5145,4.4823,4.4756,4.4773,4.488,4.4987,4.5083,4.5049,4.4868,4.4895,4.5086,4.5837,4.6742,4.7363,4.7723,4.8053,4.8267,4.8324,4.8324,4.8324,4.8324,4.8324,4.8324,4.8324,4.8324,4.8324,4.8324,4.8324,4.8324,4.8324,4.8306,4.8194,4.8176,4.8047,4.8011,4.7809,4.7679,4.7829,4.7865,4.8031,4.8031,4.8049,4.7865,4.759,4.7573,4.7609,4.7976,4.8141,4.8067,4.8122,4.8344,4.8734,4.914,4.9403,4.9634,5.043,4.7997,4.7309,4.7309,4.7309,4.7309,4.7309,4.7309,4.7309,4.7309,4.7309,4.7309,4.7309,4.7309,4.7309,4.7309,4.7773,4.8701,4.9853,5.0481,5.0586,5.072,5.1109,5.0885,5.0257,4.9583,4.9105,4.8536,4.7863,4.7444,4.7309,4.7309,4.7381,4.7553,4.7949,4.8687,4.939,5.04,5.1401,5.2148,5.2817,5.3111,5.3146,5.252,5.1116,5.0541,4.983,4.9238,4.9035,4.9018,4.9018,4.9018,4.8917,4.8663,4.8088,4.7784,4.7581,4.7022,4.643,4.5991,4.5669,4.5517,4.5517,4.55,4.5841,4.6175,4.6282,4.597,4.5665,4.5463,4.558,4.6087,4.6941,4.7389,4.777,4.8053,4.8324,4.8324,4.8324,4.8324,4.8324,4.8324,4.8324,4.8324,4.8324,4.8324,4.8324,4.8324,4.8324,4.8324,4.8324,4.8306,4.8288,4.8288,4.8269,4.8214,4.8139,4.8177,4.8141,4.8214,4.8196,4.8233,4.8269,4.8177,4.8032,4.8014,4.8159,4.8269,4.8324,4.8529,4.8697,4.9196,4.9731,5.0191,5.066,5.1452,4.7908,4.7324,4.7309,4.7309,4.7309,4.7309,4.7309,4.7309,4.7309,4.7309,4.7309,4.7309,4.7309,4.7309,4.7309,4.7668,4.8476,4.9643,5.0197,5.0391,5.087,5.099,5.0705,5.0062,4.9389,4.873,4.8087,4.7668,4.7339,4.7396,4.7467,4.7553,4.788,4.8453,4.9097,5.0026,5.0859,5.1769,5.2433,5.3025,5.3332,5.3433,5.2824,5.1928,5.1048,5.0321,4.9661,4.9137,4.9018,4.9018,4.9018,4.9018,4.8883,4.8714,4.846,4.8325,4.7784,4.7242,4.6802,4.6566,4.6261,4.6278,4.6278,4.6387,4.6673,4.6699,4.6716,4.6482,4.6601,4.6638,4.6803,4.7487,4.7767,4.7824,4.8111,4.8304,4.8324,4.8324,4.8324,4.8324,4.8324,4.8324,4.8324,4.8324,4.8324,4.8324,4.8324,4.8324,4.8324,4.8324,4.8324,4.8324,4.8324,4.8324,4.8324,4.8324,4.8324,4.8324,4.8471,4.8471,4.8489,4.8581,4.8434,4.8233,4.8288,4.8601,4.842,4.8476,4.8772,4.9141,4.9767,5.0461,5.1087,5.1782,5.2599,4.7788,4.7309,4.7309,4.7309,4.7309,4.7309,4.7309,4.7309,4.7309,4.7309,4.7309,4.7309,4.7309,4.7309,4.7369,4.7608,4.8192,4.9314,4.9763,5.0107,5.0631,5.069,5.0212,4.9583,4.8985,4.8401,4.7713,4.7309,4.7396,4.7553,4.7709,4.7949,4.8453,4.9015,4.9566,5.0554,5.1401,5.2148,5.28,5.3264,5.3433,5.3484,5.3129,5.2334,5.1606,5.0828,5.005,4.9357,4.9052,4.9018,4.9018,4.9018,4.9018,4.9001,4.9001,4.8917,4.8443,4.8139,4.775,4.7411,4.7022,4.7022,4.7022,4.709,4.7225,4.731,4.7149,4.7299,4.7391,4.7663,4.7744,4.83,4.8424,4.832,4.8404,4.8508,4.8379,4.8324,4.8324,4.8324,4.8324,4.8343,4.8379,4.8324,4.8324,4.8324,4.8324,4.8324,4.8324,4.8324,4.8324,4.8324,4.8324,4.8324,4.8324,4.8324,4.8324,4.8324,4.8655,4.8875,4.8893,4.893,4.8893,4.904,4.9136,4.9397,4.903,4.8937,4.9524,5.0056,5.0552,5.1256,5.214,5.2891,5.3685,4.7384,4.7309,4.7309,4.7309,4.7309,4.7309,4.7309,4.7309,4.7309,4.7309,4.7309,4.7309,4.7309,4.7309,4.7309,4.7369,4.7683,4.8297,4.9059,4.9524,5.0032,5.0257,5.0077,4.9568,4.891,4.8265,4.7665,4.7426,4.7639,4.788,4.8049,4.8286,4.8934,4.9501,5.012,5.1011,5.1769,5.2449,5.2956,5.3264,5.3433,5.3501,5.3061,5.2418,5.1674,5.098,5.027,4.956,4.912,4.9018,4.9018,4.9018,4.9018,4.9018,4.9018,4.9001,4.8866,4.8595,4.8088,4.7868,4.7784,4.7784,4.7784,4.8122,4.8223,4.8078,4.7885,4.8224,4.8127,4.8241,4.8688,4.9299,4.9368,4.9313,4.923,4.8946,4.8636,4.8656,4.862,4.8433,4.8469,4.8471,4.8471,4.8379,4.8324,4.8324,4.8324,4.8324,4.8324,4.8324,4.8324,4.8324,4.8324,4.8324,4.8324,4.8324,4.8526,4.8471,4.8838,4.9297,4.9517,4.9682,5.0141,5.0291,5.0278,5.0285,5.0195,5.0265,5.0564,5.1139,5.1818,5.2579,5.3376,5.4066,5.467,4.7396,4.7309,4.7309,4.7309,4.7309,4.7309,4.7309,4.7309,4.7309,4.7309,4.7309,4.7309,4.7309,4.7309,4.7309,4.7396,4.7617,4.8128,4.8666,4.9146,4.9584,4.9764,4.9477,4.9087,4.8621,4.8268,4.7905,4.798,4.8118,4.8286,4.8438,4.8918,4.9566,5.0198,5.0723,5.1549,5.2076,5.259,5.3058,5.3433,5.3501,5.3484,5.3331,5.2959,5.2215,5.1471,5.076,5.0033,4.939,4.9154,4.9018,4.9018,4.9018,4.9018,4.9018,4.9001,4.9001,4.8849,4.8595,4.8528,4.8494,4.8511,4.8528,4.8663,4.8883,4.872,4.8657,4.9009,4.9091,4.9288,4.9584,5.0134,5.0145,5.0114,5.0131,4.9701,4.9281,4.9136,4.9062,4.8838,4.8726,4.8873,4.893,4.8746,4.8636,4.8471,4.8398,4.8324,4.8324,4.8324,4.8324,4.8324,4.8324,4.8324,4.8324,4.8343,4.8838,4.8967,4.9242,4.9701,5.0196,5.0545,5.0986,5.1041,5.0845,5.0949,5.1232,5.1379,5.1481,5.2265,5.315,5.3708,5.4272,5.469,5.5183,4.7709,4.7709,4.7639,4.7553,4.7639,4.7624,4.7624,4.7639,4.7639,4.7553,4.7467,4.7467,4.7396,4.7309,4.7309,4.7381,4.7669,4.8238,4.8626,4.9016,4.9361,4.9422,4.9326,4.8966,4.8718,4.8202,4.8317,4.8438,4.8769,4.9015,4.9244,4.9534,5.0338,5.0951,5.1492,5.2092,5.2607,5.2903,5.328,5.3501,5.3518,5.3518,5.3501,5.3247,5.2756,5.2063,5.1471,5.0777,5.005,4.9475,4.9357,4.9306,4.9069,4.9018,4.9018,4.9018,4.9018,4.9001,4.8917,4.8917,4.9001,4.9018,4.9018,4.8917,4.8968,4.9001,4.9168,4.9428,4.9861,5.0076,5.0484,5.097,5.1022,5.1012,5.0955,5.0508,5.011,4.9965,4.9834,4.9738,4.9698,4.9771,4.968,4.9315,4.9022,4.8691,4.8508,4.8398,4.8416,4.8489,4.8434,4.8471,4.8416,4.8526,4.8783,4.8857,4.9224,4.9591,4.9866,5.0288,5.0912,5.1371,5.1775,5.1706,5.1503,5.2081,5.266,5.2489,5.2399,5.3376,5.4202,5.4566,5.5008,5.5361,5.5551,4.8423,4.8723,4.8438,4.837,4.8438,4.8537,4.8537,4.8453,4.8286,4.8202,4.8118,4.7794,4.7553,4.7381,4.7467,4.7538,4.7709,4.794,4.8645,4.9181,4.9496,4.962,4.9581,4.9557,4.9455,4.8996,4.8984,4.9163,4.9486,4.9884,5.012,5.0509,5.1102,5.1623,5.2076,5.2537,5.2989,5.3212,5.3433,5.3501,5.3518,5.3518,5.3518,5.3348,5.279,5.2266,5.2181,5.1505,5.0794,5.0084,4.9898,4.9661,4.9289,4.9069,4.9018,4.9018,4.9018,4.9018,4.9018,4.9018,4.9018,4.9018,4.9018,4.9018,4.9018,4.9018,4.9229,4.9573,5.004,5.0659,5.1205,5.188,5.1846,5.1821,5.1687,5.1385,5.1026,5.0793,5.068,5.0677,5.0652,5.0707,5.0729,5.038,4.9884,4.9572,4.9224,4.9095,4.8893,4.8932,4.8728,4.8655,4.8581,4.882,4.9444,4.9701,4.9939,5.0435,5.0875,5.1316,5.183,5.2234,5.2472,5.2702,5.2692,5.344,5.3936,5.3634,5.3715,5.4569,5.5153,5.523,5.5308,5.5516,5.5618,4.955,4.9868,4.9947,4.9614,4.8984,4.9,4.9,4.8984,4.8918,4.8754,4.8671,4.8355,4.8202,4.8118,4.8118,4.8286,4.862,4.8702,4.9299,4.954,4.9731,4.9812,4.9974,5.0039,4.9866,4.99,4.9868,5.0026,5.0338,5.0663,5.1118,5.1565,5.1858,5.2236,5.2607,5.2972,5.3195,5.3433,5.3518,5.3518,5.3518,5.3518,5.3518,5.345,5.3331,5.2739,5.235,5.2063,5.1471,5.0896,5.0405,4.9999,4.9593,4.9272,4.9052,4.9018,4.9018,4.9018,4.9018,4.9018,4.9018,4.9018,4.9018,4.9018,4.9018,4.9018,4.9185,4.959,5.0057,5.0694,5.1244,5.1928,5.23,5.2423,5.234,5.2113,5.1903,5.1636,5.1375,5.1312,5.1417,5.1545,5.155,5.1499,5.0967,5.0472,5.0105,4.9793,4.963,4.9538,4.9446,4.9426,4.9368,4.9609,5.0233,5.0472,5.0637,5.1224,5.1848,5.2142,5.2472,5.2747,5.2986,5.3369,5.3588,5.3888,5.4149,5.4411,5.4759,5.5148,5.5364,5.5508,5.5599,5.5662,5.5684,5.0432,5.0848,5.1118,5.0707,4.9915,4.9915,4.9915,4.9915,4.9852,4.9534,4.9228,4.9081,4.8934,4.8852,4.8754,4.9015,4.934,4.9582,4.9963,5.023,5.0324,5.0432,5.0647,5.0739,5.0771,5.0876,5.0951,5.1027,5.1252,5.1417,5.1786,5.2236,5.252,5.2817,5.3058,5.3212,5.3332,5.3433,5.3518,5.3518,5.3518,5.3518,5.3518,5.3518,5.345,5.3247,5.2875,5.2655,5.2283,5.1657,5.1082,5.0557,5.0084,4.9673,4.9266,4.9069,4.9018,4.9018,4.9018,4.9018,4.9018,4.9018,4.9018,4.9018,4.9018,4.9001,4.9185,4.953,5.0057,5.0602,5.1158,5.1866,5.2408,5.2561,5.2754,5.2645,5.2535,5.2362,5.2077,5.1925,5.2108,5.2333,5.2339,5.227,5.1591,5.1041,5.0545,5.0343,5.0343,5.0328,5.0423,5.0417,5.0446,5.0743,5.1114,5.1224,5.1408,5.2032,5.2527,5.2656,5.2931,5.3151,5.3272,5.3437,5.3714,5.4038,5.4359,5.4675,5.5002,5.5326,5.5504,5.5618,5.564,5.5684,5.5684,5.1059,5.1499,5.1655,5.1549,5.1311,5.1565,5.1565,5.1401,5.1102,5.0631,5.0026,4.9947,4.9694,4.9439,4.9519,4.9773,5.0104,5.026,5.057,5.1027,5.1161,5.1401,5.1623,5.1712,5.168,5.1915,5.1915,5.1915,5.2148,5.2164,5.2449,5.2747,5.2972,5.3195,5.3433,5.3501,5.3518,5.3518,5.3518,5.3518,5.3518,5.3518,5.3518,5.3518,5.3518,5.3365,5.3298,5.3247,5.2875,5.2367,5.2061,5.1383,5.0371,5.0074,4.9616,4.9052,4.9086,4.9069,4.9035,4.9035,4.9018,4.9018,4.9018,4.9018,4.9018,4.908,4.9124,4.953,4.9924,5.0495,5.114,5.1786,5.2239,5.2627,5.285,5.2987,5.2901,5.2907,5.2608,5.248,5.2834,5.3151,5.3133,5.2931,5.2215,5.1591,5.1022,5.0894,5.1077,5.1242,5.143,5.1463,5.1509,5.166,5.188,5.1958,5.2215,5.2839,5.3115,5.3078,5.3078,5.3151,5.3336,5.3579,5.3849,5.4168,5.4584,5.4993,5.5262,5.5485,5.5596,5.5684,5.5684,5.5684,5.5684,5.2076,5.2236,5.252,5.2661,5.2503,5.2219,5.2076,5.2092,5.1786,5.1549,5.1327,5.1177,5.1011,5.0859,5.0859,5.0935,5.1236,5.1311,5.1696,5.1987,5.2076,5.2236,5.2395,5.2449,5.2433,5.2607,5.2607,5.259,5.2677,5.2694,5.2834,5.3127,5.328,5.3416,5.3501,5.3518,5.3518,5.3518,5.3518,5.3518,5.3518,5.3518,5.3518,5.3518,5.3518,5.3518,5.3518,5.3518,5.3298,5.2959,5.2721,5.1891,5.0926,5.0578,4.9831,4.9385,4.9357,4.9729,4.956,4.939,4.9018,4.9035,4.9018,4.9018,4.9018,4.9018,4.9185,4.9411,4.9732,5.0272,5.0785,5.1416,5.1915,5.2315,5.259,5.29,5.2932,5.3072,5.2999,5.2981,5.3206,5.3206,5.3206,5.3206,5.2656,5.2491,5.205,5.2105,5.2289,5.2454,5.2601,5.2601,5.2614,5.2632,5.2669,5.2582,5.2582,5.2986,5.317,5.317,5.3188,5.3377,5.3603,5.3915,5.4071,5.4298,5.5056,5.5594,5.5519,5.5618,5.5989,5.5992,5.5895,5.5818,5.5684,5.2677,5.2747,5.3041,5.3179,5.3179,5.2834,5.2677,5.259,5.2449,5.2362,5.2219,5.2076,5.1931,5.1931,5.1931,5.1987,5.2219,5.2219,5.2449,5.2731,5.2661,5.2817,5.2972,5.2972,5.2972,5.3058,5.3127,5.3127,5.3127,5.3144,5.3212,5.328,5.3433,5.3501,5.3518,5.3518,5.3518,5.3518,5.3518,5.3518,5.3518,5.3518,5.3518,5.3518,5.3518,5.3518,5.3518,5.3518,5.3501,5.3315,5.2926,5.2283,5.162,5.0917,5.0255,5.0062,5.0135,5.0473,5.0338,4.9813,4.9526,4.9458,4.9187,4.9018,4.9018,4.9018,4.9063,4.929,4.9555,4.9965,5.0474,5.1087,5.1551,5.1994,5.2435,5.2688,5.2969,5.3109,5.3243,5.3243,5.3298,5.328,5.3261,5.3206,5.3041,5.3096,5.3133,5.3206,5.3206,5.3206,5.3206,5.317,5.3151,5.2999,5.2981,5.3041,5.3078,5.3188,5.3261,5.3353,5.3708,5.3934,5.4086,5.442,5.5004,5.558,5.5968,5.6313,5.6533,5.6678,5.6854,5.6703,5.6242,5.6242,5.6319,5.2903,5.2972,5.311,5.3195,5.3264,5.3332,5.3348,5.3179,5.3195,5.2972,5.2661,5.2661,5.252,5.2378,5.2378,5.2449,5.259,5.2661,5.2886,5.311,5.311,5.3264,5.3348,5.3433,5.3365,5.3433,5.3433,5.3365,5.3501,5.3433,5.3433,5.345,5.3518,5.3518,5.3518,5.3518,5.3518,5.3518,5.3518,5.3518,5.3518,5.3518,5.3518,5.3518,5.3518,5.3518,5.3518,5.3518,5.3518,5.3467,5.3416,5.2926,5.2363,5.1605,5.1342,5.1244,5.1217,5.1116,5.1099,5.0507,5.0016,4.9796,4.934,4.912,4.9018,4.9001,4.9063,4.9168,4.9394,4.9767,5.0171,5.0677,5.1226,5.1732,5.2278,5.2599,5.2907,5.3109,5.328,5.3353,5.3427,5.3445,5.3463,5.3408,5.3298,5.3206,5.3206,5.3206,5.3206,5.3206,5.3206,5.3206,5.3188,5.3206,5.3206,5.3243,5.3482,5.3555,5.3573,5.3665,5.4075,5.4601,5.4925,5.5445,5.6294,5.6836,5.7022,5.7407,5.7889,5.7973,5.78,5.7607,5.7223,5.7473,5.7627,5.3365,5.3348,5.3433,5.3433,5.3433,5.3501,5.3433,5.3416,5.3416,5.3348,5.328,5.328,5.3127,5.3127,5.3144,5.3212,5.3195,5.3264,5.328,5.3348,5.3348,5.3433,5.3501,5.3518,5.3518,5.3518,5.3518,5.3518,5.3501,5.3518,5.3518,5.3518,5.3518,5.3518,5.3518,5.3518,5.3518,5.3518,5.3518,5.3518,5.3518,5.3518,5.3518,5.3518,5.3518,5.3518,5.3518,5.3518,5.3518,5.3518,5.3518,5.3129,5.2334,5.2097,5.1965,5.1894,5.164,5.1352,5.164,5.0828,5.0202,5.0135,4.9526,4.912,4.9018,4.9069,4.9131,4.9124,4.9229,4.953,4.9924,5.0457,5.1123,5.1779,5.2372,5.2863,5.3193,5.3512,5.3702,5.4008,5.4063,5.394,5.3922,5.3555,5.3427,5.3298,5.3206,5.3206,5.3206,5.3206,5.3206,5.3206,5.3243,5.3261,5.328,5.3316,5.3665,5.3922,5.4014,5.4308,5.4957,5.5472,5.5817,5.6459,5.7302,5.768,5.7857,5.8312,5.8819,5.8684,5.8511,5.8377,5.8319,5.8569,5.8665,5.3027,5.3078,5.3382,5.3518,5.3518,5.3518,5.3518,5.3518,5.3518,5.3518,5.3518,5.3501,5.3518,5.3433,5.3433,5.3433,5.3433,5.3433,5.3433,5.3433,5.3518,5.3518,5.3518,5.3518,5.3518,5.3518,5.3518,5.3518,5.3518,5.3518,5.3518,5.3518,5.3518,5.3518,5.3518,5.3518,5.3518,5.3518,5.3518,5.3518,5.3518,5.3518,5.3518,5.3518,5.3518,5.3518,5.3518,5.3518,5.3518,5.3518,5.3518,5.3331,5.2824,5.2758,5.2471,5.2401,5.2384,5.2401,5.2536,5.1725,5.1166,5.079,5.026,5.004,4.9656,4.9509,4.9238,4.9063,4.9168,4.935,4.9791,5.0324,5.1122,5.1894,5.26,5.3244,5.3661,5.4044,5.4393,5.477,5.477,5.4656,5.4363,5.394,5.3518,5.3316,5.3206,5.3206,5.3206,5.3206,5.3206,5.3206,5.3261,5.3316,5.3427,5.3739,5.4197,5.4601,5.4821,5.5188,5.5857,5.6424,5.6848,5.7529,5.8353,5.8654,5.8976,5.9235,5.9588,5.9435,5.9435,5.9492,5.9492,5.9608,5.9627,5.2215,5.2283,5.301,5.3264,5.3399,5.3365,5.3416,5.3501,5.3518,5.3518,5.3518,5.3518,5.3518,5.3518,5.3518,5.3518,5.3518,5.3518,5.3518,5.3518,5.3518,5.3518,5.3518,5.3518,5.3518,5.3518,5.3518,5.3518,5.3518,5.3518,5.3518,5.3518,5.3518,5.3518,5.3518,5.3518,5.3518,5.3518,5.3518,5.3518,5.3518,5.3518,5.3518,5.3518,5.3518,5.3518,5.3518,5.3518,5.3518,5.3518,5.3501,5.3484,5.3433,5.3382,5.2993,5.2858,5.2959,5.3129,5.3061,5.2401,5.2164,5.1905,5.1656,5.107,5.0486,5.0101,4.9796,4.9774,4.9887,5.0195,5.0599,5.1181,5.1915,5.2727,5.3471,5.4062,5.4546,5.4998,5.5445,5.5668,5.5632,5.55,5.5152,5.473,5.3959,5.3537,5.3427,5.3445,5.3537,5.3537,5.3555,5.3573,5.3849,5.4087,5.4289,5.462,5.4968,5.5299,5.5574,5.6132,5.6801,5.7359,5.7899,5.854,5.919,5.9826,6.0181,6.0234,6.0223,6.0319,6.0377,6.0608,6.0666,6.0473,6.0377,5.1471,5.1505,5.1674,5.208,5.2553,5.2587,5.2942,5.3501,5.3518,5.3484,5.3501,5.3501,5.3518,5.3518,5.3518,5.3518,5.3518,5.3518,5.3518,5.3518,5.3518,5.3518,5.3518,5.3518,5.3518,5.3518,5.3518,5.3518,5.3518,5.3518,5.3518,5.3518,5.3518,5.3518,5.3518,5.3518,5.3518,5.3518,5.3518,5.3518,5.3518,5.3518,5.3518,5.3518,5.3518,5.3518,5.3518,5.3518,5.3518,5.3518,5.3518,5.3501,5.3501,5.3518,5.3416,5.3298,5.3348,5.3467,5.3331,5.2875,5.2536,5.2198,5.179,5.1434,5.1048,5.0811,5.0676,5.0723,5.0844,5.1121,5.1511,5.2136,5.2836,5.3631,5.4381,5.4945,5.5468,5.598,5.6447,5.6483,5.6502,5.6245,5.5941,5.5354,5.4546,5.4216,5.4161,5.4197,5.4424,5.454,5.4577,5.4651,5.4895,5.5133,5.528,5.5445,5.5757,5.6124,5.6455,5.7051,5.771,5.8187,5.8669,5.9325,5.9994,6.0379,6.0589,6.0661,6.0704,6.08,6.08,6.08,6.08,6.0646,6.0704,5.071,5.0744,5.1082,5.1454,5.1775,5.1826,5.2097,5.2486,5.2824,5.2976,5.3044,5.3315,5.3501,5.3501,5.3518,5.3518,5.3518,5.3518,5.3518,5.3518,5.3518,5.3518,5.3518,5.3518,5.3518,5.3518,5.3518,5.3518,5.3518,5.3518,5.3518,5.3518,5.3518,5.3518,5.3518,5.3518,5.3518,5.3518,5.3518,5.3518,5.3518,5.3518,5.3518,5.3518,5.3518,5.3518,5.3518,5.3518,5.3518,5.3518,5.3518,5.3518,5.3518,5.3518,5.3518,5.3484,5.3484,5.3501,5.3348,5.3112,5.2773,5.257,5.2553,5.2384,5.2467,5.223,5.1668,5.1694,5.1458,5.1682,5.2288,5.2916,5.3922,5.481,5.542,5.6017,5.6539,5.7088,5.7336,5.7336,5.7244,5.7005,5.6657,5.629,5.5537,5.4987,5.4913,5.4913,5.5159,5.5551,5.5595,5.5631,5.5857,5.6006,5.609,5.6263,5.6492,5.6877,5.7226,5.7637,5.8153,5.8772,5.942,5.9782,6.0146,6.0453,6.0647,6.0757,6.08,6.08,6.08,6.08,6.08,6.08,6.08,4.9949,5.0067,5.0642,5.0997,5.1065,5.1065,5.1183,5.1352,5.1894,5.2181,5.2283,5.2976,5.3331,5.3501,5.3518,5.3518,5.3518,5.3518,5.3518,5.3518,5.3518,5.3518,5.3518,5.3518,5.3518,5.3518,5.3518,5.3518,5.3518,5.3518,5.3518,5.3518,5.3518,5.3518,5.3518,5.3518,5.3518,5.3518,5.3518,5.3518,5.3518,5.3518,5.3518,5.3518,5.3518,5.3518,5.3518,5.3518,5.3518,5.3518,5.3518,5.3518,5.3518,5.3518,5.3518,5.3518,5.3518,5.3518,5.3467,5.3433,5.3382,5.3416,5.3518,5.3484,5.3483,5.3194,5.2697,5.2597,5.2437,5.265,5.3264,5.4008,5.5006,5.5853,5.646,5.6923,5.7474,5.7905,5.7923,5.7941,5.7758,5.7538,5.7317,5.6969,5.6473,5.5923,5.5739,5.5739,5.593,5.6408,5.6709,5.661,5.6657,5.6832,5.6933,5.7015,5.7134,5.7373,5.7693,5.812,5.8535,5.9044,5.9474,5.9851,6.0201,6.0514,6.0666,6.0781,6.08,6.08,6.08,6.08,6.08,6.08,6.08,4.9204,4.9221,4.9373,4.9763,5.0253,5.0304,5.0642,5.1183,5.1319,5.142,5.1606,5.2198,5.2824,5.3501,5.3518,5.3518,5.3518,5.3518,5.3518,5.3518,5.3518,5.3518,5.3518,5.3518,5.3518,5.3518,5.3518,5.3518,5.3518,5.3518,5.3518,5.3518,5.3518,5.3518,5.3518,5.3518,5.3518,5.3518,5.3518,5.3518,5.3518,5.3518,5.3518,5.3518,5.3518,5.3518,5.3518,5.3518,5.3518,5.3518,5.3518,5.3518,5.3518,5.3518,5.3518,5.3518,5.3518,5.3518,5.3518,5.3518,5.3518,5.3518,5.3518,5.3501,5.35,5.3632,5.3485,5.3908,5.3914,5.4329,5.4856,5.5417,5.6291,5.6817,5.7368,5.7556,5.7868,5.796,5.796,5.796,5.7905,5.7813,5.7776,5.7373,5.6932,5.6565,5.6583,5.6583,5.662,5.7134,5.7675,5.7538,5.7363,5.7629,5.7758,5.7584,5.7685,5.7905,5.807,5.8275,5.8642,5.914,5.9562,5.9971,6.0262,6.0585,6.071,6.08,6.08,6.08,6.08,6.08,6.08,6.08,6.08]},{"header":{"parameterUnit":"m.s-1","parameterCategory":1,"la1":31.0,"la2":29.5877,"lo1":-88.7671,"lo2":-86.6584,"dy":0.0162,"dx":0.0185,"nx":115,"ny":88,"refTime":"2024-04-03T06:00:00:Z","depth":0,"parameterNumber":3,"parameterNumberName":"V-component_of_WINDS"},"data":[0.0,0.0,0.0,0.0,0.0,0.0,0.0,0.0,0.0,0.0,0.0,0.0,0.0,0.0,0.0,0.0,0.0,0.0,0.0,0.0,0.0,0.0,0.0,0.0,0.0,0.0,0.0,0.0,0.0,0.0,0.0,0.0,0.0,0.0,0.0,0.0,0.0,0.0,0.0,0.0,0.0,0.0,0.0,0.0,0.0,0.0,0.0,0.0,0.0,0.0,0.0,0.0,0.0,0.0,0.0,0.0,0.0,0.0,0.0,0.0,0.0,0.0,0.0,0.0,0.0,0.0,0.0,0.0,0.0,0.0,0.0,0.0,0.0,0.0,0.0,0.0,0.0,0.0,0.0,0.0,0.0,0.0,0.0,0.0,0.0,0.0,0.0,0.0,0.0,0.0,0.0,0.0,0.0,0.0,0.0,0.0,0.0,0.0,0.0,0.0,0.0,0.0,0.0,0.0,0.0,0.0,0.0,0.0,0.0,0.0,0.0,0.0,0.0,0.0,0.0,0.0,0.0,0.0,0.0,0.0,0.0,0.0,0.0,0.0,0.0,0.0,0.0,0.0,0.0,0.0,0.0,0.0,0.0,0.0,0.0,0.0,0.0,0.0,0.0,0.0,0.0,0.0,0.0,0.0,0.0,0.0,0.0,0.0,0.0,0.0,0.0,0.0,0.0,0.0,0.0,0.0,0.0,0.0,0.0,0.0,0.0,0.0,0.0,0.0,0.0,0.0,0.0,0.0,0.0,0.0,0.0,0.0,0.0,0.0,0.0,0.0,0.0,0.0,0.0,0.0,0.0,0.0,0.0,0.0,0.0,0.0,0.0,0.0,0.0,0.0,0.0,0.0,0.0,0.0,0.0,0.0,0.0,0.0,0.0,0.0,0.0,0.0,0.0,0.0,0.0,0.0,0.0,0.0,0.0,0.0,0.0,0.0,0.0,0.0,0.0,0.0,0.0,0.0,0.0,0.0,0.0,0.0,0.0,0.0,0.0,0.0,0.0,0.0,0.0,0.0,0.0,0.0,0.0,0.0,0.0,0.0,0.0,0.0,0.0,0.0,0.0,0.0,0.0,0.0,0.0,0.0,0.0,0.0,0.0,0.0,0.0,0.0,0.0,0.0,0.0,0.0,0.0,0.0,0.0,0.0,0.0,0.0,0.0,0.0,0.0,0.0,0.0,0.0,0.0,0.0,0.0,0.0,0.0,0.0,0.0,0.0,0.0,0.0,0.0,0.0,0.0,0.0,0.0,0.0,0.0,0.0,0.0,0.0,0.0,0.0,0.0,0.0,0.0,0.0,0.0,0.0,0.0,0.0,0.0,0.0,0.0,0.0,0.0,0.0,0.0,0.0,0.0,0.0,0.0,0.0,0.0,0.0,0.0,0.0,0.0,0.0,0.0,0.0,0.0,0.0,0.0,0.0,0.0,0.0,0.0,0.0,0.0,0.0,0.0,0.0,0.0,0.0,0.0,0.0,0.0,0.0,0.0,0.0,0.0,0.0,0.0,0.0,0.0,0.0,0.0,0.0,0.0,0.0,0.0,0.0,0.0,0.0,0.0,0.0,0.0,0.0,0.0,0.0,0.0,0.0,0.0,0.0,0.0,0.0,0.0,0.0,0.0,0.0,0.0,0.0,0.0,0.0,0.0,0.0,0.0,0.0,0.0,0.0,0.0,0.0,0.0,0.0,0.0,0.0,0.0,0.0,0.0,0.0,0.0,0.0,0.0,0.0,0.0,0.0,0.0,0.0,0.0,0.0,0.0,0.0,0.0,0.0,0.0,0.0,0.0,0.0,0.0,0.0,0.0,0.0,0.0,0.0,0.0,0.0,0.0,0.0,0.0,0.0,0.0,0.0,0.0,0.0,0.0,0.0,0.0,0.0,0.0,0.0,0.0,0.0,0.0,0.0,0.0,0.0,0.0,0.0,0.0,0.0,0.0,0.0,0.0,0.0,0.0,0.0,0.0,0.0,0.0,0.0,0.0,0.0,0.0,0.0,0.0,0.0,0.0,0.0,0.0,0.0,0.0,0.0,0.0,0.0,0.0,0.0,0.0,0.0,0.0,0.0,0.0,0.0,0.0,0.0,0.0,0.0,0.0,0.0,0.0,0.0,0.0,0.0,0.0,0.0,0.0,0.0,0.0,0.0,0.0,0.0,0.0,0.0,0.0,0.0,0.0,0.0,0.0,0.0,0.0,0.0,0.0,0.0,0.0,0.0,0.0,0.0,0.0,0.0,0.0,0.0,0.0,0.0,0.0,0.0,0.0,0.0,0.0,0.0,0.0,0.0,0.0,0.0,0.0,0.0,0.0,0.0,0.0,0.0,0.0,0.0,0.0,0.0,0.0,0.0,0.0,0.0,0.0,0.0,0.0,0.0,0.0,0.0,0.0,0.0,0.0,0.0,0.0,0.0,0.0,0.0,0.0,0.0,0.0,0.0,0.0,0.0,0.0,0.0,0.0,0.0,0.0,0.0,0.0,0.0,0.0,0.0,0.0,0.0,0.0,0.0,0.0,0.0,0.0,0.0,0.0,0.0,0.0,0.0,0.0,0.0,0.0,0.0,0.0,0.0,0.0,0.0,0.0,0.0,0.0,0.0,0.0,0.0,0.0,0.0,0.0,0.0,0.0,0.0,0.0,0.0,0.0,0.0,0.0,0.0,0.0,0.0,0.0,0.0,0.0,0.0,0.0,0.0,0.0,0.0,0.0,0.0,0.0,0.0,0.0,0.0,0.0,0.0,0.0,0.0,0.0,0.0,0.0,0.0,0.0,0.0,0.0,0.0,0.0,0.0,0.0,0.0,0.0,0.0,0.0,0.0,0.0,0.0,0.0,0.0,0.0,0.0,0.0,0.0,0.0,0.0,0.0,0.0,0.0,0.0,0.0,0.0,0.0,0.0,0.0,0.0,0.0,0.0,0.0,0.0,0.0,0.0,0.0,0.0,0.0,0.0,0.0,0.0,0.0,0.0,0.0,0.0,0.0,0.0,0.0,0.0,0.0,0.0,0.0,0.0,0.0,0.0,0.0,0.0,0.0,0.0,0.0,0.0,0.0,0.0,0.0,0.0,0.0,0.0,0.0,0.0,0.0,0.0,0.0,0.0,0.0,0.0,0.0,0.0,0.0,0.0,0.0,0.0,0.0,0.0,0.0,0.0,0.0,0.0,0.0,0.0,0.0,0.0,0.0,0.0,0.0,0.0,0.0,0.0,0.0,0.0,0.0,0.0,0.0,0.0,0.0,0.0,0.0,0.0,0.0,0.0,0.0,0.0,0.0,0.0,0.0,0.0,0.0,0.0,0.0,0.0,0.0,0.0,0.0,0.0,0.0,0.0,0.0,0.0,0.0,0.0,0.0,0.0,0.0,0.0,0.0,0.0,0.0,0.0,0.0,0.0,0.0,0.0,0.0,0.0,0.0,0.0,0.0,0.0,0.0,0.0,0.0,0.0,0.0,0.0,0.0,0.0,0.0,0.0,0.0,0.0,0.0,0.0,0.0,0.0,0.0,0.0,0.0,0.0,0.0,0.0,0.0,0.0,0.0,0.0,0.0,0.0,0.0,0.0,0.0,0.0,0.0,0.0,0.0,0.0,0.0,0.0,0.0,0.0,0.0,0.0,0.0,0.0,0.0,0.0,0.0,0.0,0.0,0.0,0.0,0.0,0.0,0.0,0.0,0.0,0.0,0.0,0.0,0.0,0.0,0.0,0.0,0.0,0.0,0.0,0.0,0.0,0.0,0.0,0.0,0.0,0.0,0.0,0.0,0.0,0.0,0.0,0.0,0.0,0.0,0.0,0.0,0.0,0.0,0.0,0.0,0.0,0.0,0.0,0.0,0.0,0.0,0.0,0.0,0.0,0.0,0.0,0.0,0.0,0.0,0.0,0.0,0.0,0.0,0.0,0.0,0.0,0.0,0.0,0.0,0.0,0.0,0.0,0.0,0.0,0.0,0.0,0.0,0.0,0.0,0.0,0.0,0.0,0.0,0.0,0.0,0.0,0.0,0.0,0.0,0.0,0.0,0.0,0.0,0.0,0.0,0.0,0.0,0.0,0.0,0.0,0.0,0.0,0.0,0.0,0.0,0.0,0.0,0.0,0.0,0.0,0.0,0.0,0.0,0.0,0.0,0.0,0.0,0.0,0.0,0.0,0.0,0.0,0.0,0.0,0.0,0.0,0.0,0.0,0.0,0.0,0.0,0.0,0.0,0.0,0.0,0.0,0.0,0.0,0.0,0.0,0.0,0.0,0.0,0.0,0.0,0.0,0.0,0.0,0.8751,0.0,0.0,0.0,0.0,0.0,0.0,0.0,0.0,0.0,0.0,0.0,0.0,0.0,0.0,0.0,0.0,0.0,0.0,0.0,0.0,0.0,0.0,0.0,0.0,0.0,0.0,0.0,0.0,0.0,0.0,0.0,0.0,0.0,0.0,0.0,0.0,0.0,0.0,0.0,0.0,0.0,0.0,0.0,0.0,0.0,0.0,0.0,0.0,0.0,0.0,0.0,0.0,0.0,0.0,0.0,0.0,0.0,0.0,0.0,0.0,0.0,0.0,0.0,0.0,0.0,0.0,0.0,0.0,0.0,0.0,0.0,0.0,0.0,0.0,0.0,0.0,0.0,0.0,0.0,0.0,0.0,0.0,0.0,0.0,0.0,0.0,0.0,0.0,0.0,0.0,0.0,0.0,0.0,0.0,0.0,0.0,0.0,0.0,0.0,0.0,0.0,0.0,0.0,0.0,0.0,0.0,0.0,0.0,0.0,0.0,0.8804,0.8804,0.8804,0.8804,0.8804,0.0,0.0,0.0,0.0,0.0,0.0,0.0,0.0,0.0,0.0,0.0,0.0,0.0,0.0,0.0,0.0,0.0,0.0,0.0,0.0,0.0,0.0,0.0,0.0,0.0,0.0,0.0,0.0,0.0,0.0,0.0,0.0,0.0,0.0,0.0,0.0,0.0,0.0,0.0,0.0,0.0,0.0,0.0,0.0,0.0,0.0,0.0,0.0,0.0,0.0,0.0,0.0,0.0,0.0,0.0,0.0,0.0,0.0,0.0,0.0,0.0,0.0,0.0,0.0,0.0,0.0,0.0,0.0,0.0,0.0,0.0,0.0,0.0,0.0,0.0,0.0,0.0,0.0,0.0,0.0,0.0,0.0,0.0,0.0,0.0,0.0,0.0,0.0,0.0,0.0,0.0,0.0,0.0,0.0,0.0,0.0,0.0,0.0,0.0,0.0,0.0,0.0,0.0,0.0,0.0,0.0,0.0,0.0,0.0,0.0,0.0,0.0,0.8804,0.8804,0.8804,0.0,0.0,0.0,0.0,0.0,0.0,0.0,0.0,0.0,0.0,0.0,0.0,0.0,0.0,0.0,0.0,0.0,0.0,0.0,0.0,0.0,0.0,0.0,0.0,0.0,0.0,0.0,0.0,0.0,0.0,0.0,0.0,0.0,0.0,0.0,0.0,0.0,0.0,0.0,0.0,0.0,0.0,0.0,0.0,0.0,0.0,0.0,0.0,0.0,0.0,0.0,0.0,0.0,0.0,0.0,0.0,0.0,0.0,0.0,0.0,0.0,0.0,0.0,0.0,0.0,0.0,0.0,0.0,0.0,0.0,0.0,0.0,0.0,0.0,0.0,0.0,0.0,0.0,0.0,0.0,0.0,0.0,0.0,0.0,0.0,0.0,0.0,0.0,0.0,0.0,0.0,0.0,0.0,0.0,0.0,0.0,0.0,0.0,0.0,0.0,0.0,0.0,0.0,0.0,0.0,0.0,0.0,0.0,0.0,0.0,0.8804,0.8804,0.8804,0.0,0.8804,0.0,0.0,0.0,0.0,0.0,0.0,0.0,0.0,0.0,0.0,0.0,0.0,0.0,0.0,0.0,0.0,0.0,0.0,0.0,0.0,0.0,0.0,0.0,0.0,0.0,0.0,0.0,0.0,0.0,0.0,0.0,0.0,0.0,0.0,0.0,0.0,0.0,0.0,0.0,0.0,0.0,0.0,0.0,0.0,0.0,0.0,0.0,0.0,0.0,0.0,0.0,0.0,0.0,0.0,0.0,0.0,0.0,0.0,0.0,0.0,0.0,0.0,0.0,0.0,0.0,0.0,0.0,0.0,0.0,0.0,0.0,0.0,0.0,0.0,0.0,0.0,0.0,0.0,0.0,0.0,0.0,0.0,0.0,0.0,0.0,0.0,0.0,0.0,0.0,0.0,0.0,0.0,0.0,0.0,0.0,0.0,0.0,0.0,0.0,0.0,0.0,0.0,0.0,0.0,0.0,0.0,0.0,0.0,0.0,0.0,0.8804,0.8804,0.8804,0.8804,0.0,0.0,0.0,0.0,0.0,0.0,0.0,0.0,0.0,0.0,0.0,0.0,0.0,0.0,0.0,0.0,0.0,0.0,0.0,0.0,0.0,0.0,0.0,0.0,0.0,0.0,0.0,0.0,0.0,0.0,0.0,0.0,0.0,0.0,0.0,0.0,0.0,0.0,0.0,0.0,0.0,0.0,0.0,0.0,0.0,0.0,0.0,0.0,0.0,0.0,0.0,0.0,0.0,0.0,0.0,0.0,0.0,0.0,0.0,0.0,0.0,0.0,0.0,0.0,0.0,0.0,0.0,0.0,0.0,0.0,0.0,0.0,0.0,0.0,0.0,0.0,0.0,0.0,0.0,0.0,0.0,0.0,0.0,0.0,0.0,0.0,0.0,0.0,0.0,0.0,0.0,0.0,0.0,0.0,0.0,0.0,0.0,0.0,0.0,0.0,0.0,0.0,0.0,0.0,0.0,0.0,0.0,0.0,0.0,0.0,0.8804,0.8804,0.8804,0.8804,0.8804,0.8804,0.0,0.0,0.0,0.0,0.0,0.0,0.0,0.0,0.0,0.0,0.0,0.0,0.0,0.0,0.0,0.0,0.0,0.0,0.0,0.0,0.0,0.0,0.0,0.0,0.0,0.0,0.0,0.0,0.0,0.0,0.0,0.0,0.0,0.0,0.0,0.0,0.0,0.0,0.0,0.0,0.0,0.0,0.0,0.0,0.0,0.0,0.0,0.0,0.0,0.0,0.0,0.0,0.0,0.0,0.0,0.0,0.0,0.0,0.0,0.0,0.0,0.0,0.0,0.0,0.0,0.0,0.0,0.0,0.0,0.0,0.0,0.0,0.0,0.0,0.0,0.0,0.0,0.0,0.0,0.0,0.0,0.0,0.0,0.0,0.0,0.0,0.0,0.0,0.0,0.0,0.0,0.0,0.0,0.0,0.0,0.0,0.0,0.0,0.0,0.0,0.0,0.0,0.0,0.0,0.0,0.0,0.0,0.0,0.8804,0.8804,0.8804,0.8804,0.8804,0.8804,0.0,0.0,0.0,0.0,0.0,0.0,0.0,0.0,0.0,0.0,0.0,0.0,0.0,0.0,0.0,0.0,0.0,0.0,0.0,0.0,0.0,0.0,0.0,0.0,0.0,0.0,0.0,0.0,0.0,0.0,0.0,0.0,0.0,0.0,0.0,0.0,0.0,0.0,0.0,0.0,0.0,0.0,0.0,0.0,0.0,0.0,0.0,0.0,0.0,0.0,0.0,0.0,0.0,0.0,0.0,0.0,0.0,0.0,0.0,0.0,0.0,0.0,0.0,0.0,0.0,0.0,0.0,0.0,0.0,0.0,0.0,0.0,0.0,0.0,0.0,0.0,0.0,0.0,0.0,0.0,0.0,0.0,0.0,0.0,0.0,0.0,0.0,0.0,0.0,0.0,0.0,0.0,0.0,0.0,0.0,0.0,0.0,0.0,0.0,0.0,0.0,0.0,0.0,0.0,0.0,0.0,0.0,0.0,0.0,0.8804,0.8804,0.8804,0.8804,0.8804,0.8804,0.0,0.0,0.0,0.0,0.0,0.0,0.0,0.0,0.0,0.0,0.0,0.0,0.0,0.0,0.0,0.0,0.0,0.0,0.0,0.0,0.0,0.0,0.0,0.0,0.0,0.0,0.0,0.0,0.0,0.0,0.0,0.0,0.0,0.0,0.0,0.0,0.0,0.0,0.0,0.0,0.0,0.0,0.0,0.0,0.0,0.0,0.0,0.0,0.0,0.0,0.0,0.0,0.0,0.0,0.0,0.0,0.0,0.0,0.0,0.0,0.0,0.0,0.0,0.0,0.0,0.0,0.0,0.0,0.0,0.0,0.0,0.0,0.0,0.0,0.0,0.0,0.0,0.0,0.0,0.0,0.0,0.0,0.0,0.0,0.0,0.0,0.0,0.0,0.0,0.0,0.0,0.0,0.0,0.0,0.0,0.0,0.0,0.0,0.0,0.0,0.0,0.0,0.0,0.0,0.0,0.0,0.0,0.0,0.0,0.8945,0.0,0.8951,0.8891,0.8945,0.8911,0.0,0.0,0.0,0.0,0.0,0.0,0.0,0.0,0.0,0.0,0.0,0.0,0.0,0.0,0.0,0.0,0.0,0.0,0.0,0.0,0.0,0.0,0.0,0.0,0.0,0.0,0.0,0.0,0.0,0.0,0.0,0.0,0.0,0.0,0.0,0.0,0.0,0.0,0.0,0.0,0.0,0.0,0.0,0.0,0.0,0.0,0.0,0.0,0.0,0.0,0.0,0.0,0.0,0.0,0.0,0.0,0.0,0.0,0.0,0.0,0.0,0.0,0.0,0.0,0.0,0.0,0.0,0.0,0.0,0.0,0.0,0.0,0.0,0.0,0.0,0.0,0.0,0.0,0.0,0.0,0.0,0.0,0.0,0.0,0.0,0.0,0.0,0.0,0.0,0.0,0.0,0.0,0.0,0.0,0.0,0.0,0.0,0.0,0.0,0.0,0.0,0.0,0.0,0.0,0.0,0.0,0.0,0.0,0.8958,0.9163,0.9183,0.919,0.9183,0.9176,0.9044,0.0,0.0,0.0,0.0,0.0,0.0,0.0,0.0,0.0,0.0,0.0,0.0,0.0,0.0,0.0,0.0,0.0,0.0,0.0,0.0,0.0,0.0,0.0,0.0,0.0,0.0,0.0,0.0,0.0,0.0,0.0,0.0,0.0,0.0,0.0,0.0,0.0,0.0,0.0,0.0,0.0,0.0,0.0,0.0,0.0,0.0,0.0,0.0,0.0,0.0,0.0,0.0,0.0,0.0,0.0,0.0,0.0,0.0,0.0,0.0,0.0,0.0,0.0,0.0,0.0,0.0,0.0,0.0,0.0,0.0,0.0,0.0,0.0,0.0,0.0,0.0,0.0,0.0,0.0,0.0,0.0,0.0,0.0,0.0,0.0,0.0,0.0,0.0,0.0,0.0,0.0,0.0,0.0,0.0,0.0,0.0,0.0,0.0,0.0,0.0,0.0,0.0,0.0,0.0,0.0,0.0,0.0,0.0,0.0,0.9356,0.9495,0.9546,0.9546,0.9345,0.9143,0.0,0.0,0.0,0.0,0.0,0.0,0.0,0.0,0.0,0.0,0.0,0.0,0.0,0.0,0.0,0.0,0.0,0.0,0.0,0.0,0.0,0.0,0.0,0.0,0.0,0.0,0.0,0.0,0.0,0.0,0.0,0.0,0.0,0.0,0.0,0.0,0.0,0.0,0.0,0.0,0.0,0.0,0.0,0.0,0.0,0.0,0.0,0.0,0.0,0.0,0.0,0.0,0.0,0.0,0.0,0.0,0.0,0.0,0.0,0.0,0.0,0.0,0.0,0.0,0.0,0.0,0.0,0.0,0.0,0.0,0.0,0.0,0.0,0.0,0.0,0.0,0.0,0.0,0.0,0.0,0.0,0.0,0.0,0.0,0.0,0.0,0.0,0.0,0.0,0.0,0.0,0.0,0.0,0.0,0.0,0.0,0.0,0.0,0.0,0.0,0.0,0.0,0.0,0.0,0.0,0.0,0.0,0.0,0.0,1.084,1.0551,1.0302,1.0127,1.0003,0.9802,0.9411,0.0,0.0,0.0,0.0,0.0,0.0,0.0,0.0,0.0,0.0,0.0,0.0,0.0,0.0,0.0,0.0,0.0,0.0,0.0,0.0,0.0,0.0,0.0,0.0,0.0,0.0,0.0,0.0,0.0,0.0,0.0,0.0,0.0,0.0,0.0,0.0,0.0,0.0,0.0,0.0,0.0,0.0,0.0,0.0,0.0,0.0,0.0,0.0,0.0,0.0,0.0,0.0,0.0,0.0,0.0,0.0,0.0,0.0,0.0,0.0,0.0,0.0,0.0,0.0,0.0,0.0,0.0,0.0,0.0,0.0,0.0,0.0,0.0,0.0,0.0,0.0,0.0,0.0,0.0,0.0,0.0,0.0,0.0,0.0,0.0,0.0,0.0,0.0,0.0,0.0,0.0,0.0,0.0,0.0,0.0,0.0,0.0,0.0,0.0,0.0,0.0,0.0,0.0,0.0,0.0,0.0,0.0,0.0,1.3276,1.241,1.1572,1.096,1.122,1.0902,0.0,0.0,0.0,0.0,0.0,0.0,0.0,0.0,0.0,0.0,0.0,0.0,0.0,0.0,0.0,0.0,0.0,0.0,0.0,0.0,0.0,0.0,0.0,0.0,0.0,0.0,0.0,0.0,0.0,0.0,0.0,0.0,0.0,0.0,0.0,0.0,0.0,0.0,0.0,0.0,0.0,0.0,0.0,0.0,0.0,0.0,0.0,0.0,0.0,0.0,0.0,0.0,0.0,0.0,0.0,0.0,0.0,0.0,0.0,0.0,0.0,0.0,0.0,0.0,0.0,0.0,0.0,0.0,0.0,0.0,0.0,0.0,0.0,0.0,0.0,0.0,0.0,0.0,0.0,0.0,0.0,0.0,0.0,0.0,0.0,0.0,0.0,0.0,0.0,0.0,0.0,0.0,0.0,0.0,0.0,0.0,0.0,0.0,0.0,0.0,0.0,0.0,0.0,0.0,0.0,0.0,0.0,0.0,0.0,1.472,1.5165,1.4556,1.2794,1.2349,1.1921,0.0,0.0,0.0,0.0,0.0,0.0,0.0,0.0,0.0,0.0,0.0,0.0,0.0,0.0,0.0,0.0,0.0,0.0,0.0,0.0,0.0,0.0,0.0,0.0,0.0,0.0,0.0,0.0,0.0,0.0,0.0,0.0,0.0,0.0,0.0,0.0,0.0,0.0,0.0,0.0,0.0,0.0,0.0,0.0,0.0,0.0,0.0,0.0,0.0,0.0,0.0,0.0,0.0,0.0,0.0,0.0,0.0,0.0,0.0,0.0,0.0,0.0,0.0,0.0,0.0,0.0,0.0,0.0,0.0,0.0,0.0,0.0,0.0,0.0,0.0,0.0,0.0,0.0,0.0,0.0,0.0,0.0,0.0,0.0,0.0,0.0,0.0,0.0,0.0,0.0,0.0,0.0,0.0,0.0,0.0,0.0,0.0,0.0,0.0,0.0,0.0,0.0,0.0,0.0,0.0,0.0,0.0,0.0,1.5668,1.6556,1.7386,1.712,1.5815,1.4722,1.3685,0.0,0.0,0.0,0.0,0.0,0.0,0.0,0.0,0.0,0.0,0.0,0.0,0.0,0.0,0.0,0.0,0.0,0.0,0.0,0.0,0.0,0.0,0.0,0.0,0.0,0.0,0.0,0.0,0.0,0.0,0.0,0.0,0.0,0.0,0.0,0.0,0.0,0.0,0.0,0.0,0.0,0.0,0.0,0.0,0.0,0.0,0.0,0.0,0.0,0.0,0.0,0.0,0.0,0.0,0.0,0.0,0.0,0.0,0.0,0.0,0.0,0.0,0.0,0.0,0.0,0.0,0.0,0.0,0.0,0.0,0.0,0.0,0.0,0.0,0.0,0.0,0.0,0.0,0.0,0.0,0.0,0.0,0.0,0.0,0.0,0.0,0.0,0.0,0.0,0.0,0.0,0.0,0.0,0.0,0.0,0.0,0.0,0.0,0.0,0.0,0.0,0.0,0.0,0.0,0.0,0.0,0.0,0.0,1.7334,1.8556,1.9201,1.9434,1.9307,1.7543,1.5756,0.0,0.0,0.0,0.0,0.0,0.0,0.0,0.0,0.0,0.0,0.0,0.0,0.0,0.0,0.0,0.0,0.0,0.0,0.0,0.0,0.0,0.0,0.0,0.0,0.0,0.0,0.0,0.0,0.0,0.0,0.0,0.0,0.0,0.0,0.0,0.0,0.0,0.0,0.0,0.0,0.0,0.0,0.0,0.0,0.0,0.0,0.0,0.0,0.0,0.0,0.0,0.0,0.0,0.0,0.0,0.0,0.0,0.0,0.0,0.0,0.0,0.0,0.0,0.0,0.0,0.0,0.0,0.0,0.0,0.0,0.0,0.0,0.0,0.0,0.0,0.0,0.0,0.0,0.0,0.0,0.0,0.0,0.0,0.0,0.0,0.0,0.0,0.0,0.0,0.0,0.0,0.0,0.0,0.0,0.0,0.0,0.0,0.0,0.0,0.0,0.0,0.0,0.0,0.0,0.0,0.0,0.0,0.0,1.8276,1.9783,2.0606,2.0985,2.0968,1.8788,1.7009,0.0,0.0,0.0,0.0,0.0,0.0,0.0,0.0,0.0,0.0,0.0,0.0,0.0,0.0,0.0,0.0,0.0,0.0,0.0,0.0,0.0,0.0,0.0,0.0,0.0,0.0,0.0,0.0,0.0,0.0,0.0,0.0,0.0,0.0,0.0,0.0,0.0,0.0,0.0,0.0,0.0,0.0,0.0,0.0,0.0,0.0,0.0,0.0,0.5579,0.0,0.0,0.0,0.0,0.0,0.0,0.0,0.0,0.0,0.0,0.0,0.0,0.0,0.0,0.0,0.0,0.0,0.0,0.0,0.0,0.0,0.0,0.0,0.0,0.0,0.0,0.0,0.0,0.0,0.0,0.0,0.0,0.0,0.0,0.0,0.0,0.0,0.0,0.0,0.0,0.0,0.0,0.0,0.0,0.0,0.0,0.0,0.0,0.0,0.0,0.0,0.0,0.0,0.0,0.0,0.0,0.0,0.0,0.0,1.9239,2.0609,2.1549,2.1892,2.1663,2.0273,1.8751,0.0,0.0,0.0,0.0,0.0,0.0,0.0,0.0,0.0,0.0,0.0,0.0,0.0,0.0,0.0,0.0,0.0,0.0,0.0,0.0,0.0,0.0,0.0,0.0,0.0,0.0,0.0,0.0,0.0,0.0,0.0,0.0,0.0,0.0,0.0,0.0,0.0,0.0,0.0,0.0,0.0,0.0,0.0,0.0,0.0,0.0,0.0,0.0,0.0,0.0,0.0,0.0,0.0,0.0,0.0,0.0,0.0,0.0,0.0,0.0,0.0,0.0,0.0,0.0,0.0,0.0,0.0,0.0,0.0,0.0,0.0,0.0,0.0,0.0,0.0,0.0,0.0,0.0,0.0,0.0,0.0,0.0,0.0,0.0,0.0,0.0,0.0,0.0,0.0,0.0,0.0,0.0,0.0,0.0,0.0,0.0,0.0,0.0,0.0,0.0,0.0,0.0,0.0,0.0,0.0,0.0,0.0,1.873,2.0019,2.1299,2.2168,2.2412,2.1992,2.1494,2.0265,1.8285,0.0,0.0,0.0,0.0,0.0,0.0,0.0,0.0,0.0,0.0,0.0,0.0,0.0,0.0,0.0,0.0,0.0,0.0,0.0,0.0,0.0,0.0,0.0,0.0,0.0,0.0,0.0,0.0,0.0,0.0,0.0,0.0,0.0,0.0,0.0,0.0,0.0,0.0,0.4826,0.5525,0.0,0.0,0.0,0.0,0.0,0.0,0.0,0.0,0.7049,0.0,0.0,0.0,0.0,0.0,0.0,0.0,0.0,0.0,0.0,0.0,0.0,0.0,0.0,0.0,0.0,0.0,0.0,0.0,0.0,0.0,0.0,0.0,0.0,0.0,0.0,0.0,0.0,0.0,0.0,0.0,0.0,0.0,0.0,0.0,0.0,0.0,0.0,0.0,0.0,0.0,0.0,0.0,0.0,0.0,0.0,0.0,0.0,0.0,0.0,0.0,0.0,0.0,0.0,0.0,0.0,1.7881,1.916,2.0449,2.1758,2.2607,2.2832,2.2412,2.1641,2.0343,1.8589,0.0,0.0,0.0,0.0,0.0,0.0,0.0,0.0,0.0,0.0,0.0,0.0,0.0,0.0,0.0,0.0,0.0,0.0,0.0,0.0,0.0,0.0,0.0,0.0,0.0,0.0,0.0,0.0,0.0,0.0,0.0,0.0,0.0,0.0,0.0,0.0,0.0,0.0,0.0,0.6089,0.6408,0.0,0.0,0.0,0.0,0.0,0.0,0.0,0.0,0.7683,0.0,0.0,0.0,0.0,0.0,0.0,0.0,0.0,0.0,0.0,0.0,0.0,0.0,0.0,0.0,0.0,0.0,0.0,0.0,0.0,0.0,0.0,0.0,0.0,0.0,0.0,0.0,0.0,0.0,0.0,0.0,0.0,0.0,0.0,0.0,0.0,0.0,0.0,0.0,0.0,0.0,0.0,0.0,0.0,0.0,0.0,0.0,0.0,0.0,0.0,0.0,0.0,0.0,0.0,0.0,1.7969,1.9482,2.0781,2.1865,2.2705,2.2832,2.2197,2.1572,2.0312,0.0,0.0,0.0,0.0,0.0,0.0,0.0,0.0,0.0,0.0,0.0,0.0,0.0,0.0,0.0,0.0,0.0,0.0,0.0,0.0,0.0,0.0,0.0,0.0,0.0,0.0,0.0,0.0,0.0,0.0,0.0,0.0,0.0,0.0,0.0,0.0,0.0,0.0,0.0,0.0,0.6762,0.7283,0.7485,0.0,0.0,0.0,0.0,0.0,0.0,0.9371,0.8548,0.0,0.0,0.0,0.0,0.0,0.0,0.0,0.0,0.0,0.0,0.0,0.0,0.0,0.0,0.0,0.0,0.0,0.0,0.0,0.0,0.0,0.0,0.0,0.0,0.0,0.0,0.0,0.0,0.0,0.0,0.0,0.0,0.0,0.0,0.0,0.0,0.0,0.0,0.0,0.0,0.0,0.0,0.0,0.0,0.0,0.0,0.0,0.0,0.0,0.0,0.0,0.0,0.0,0.0,0.0,1.8115,1.9824,2.1123,2.1992,2.2744,2.2734,2.1914,2.1387,2.0127,0.0,0.0,0.0,0.0,0.0,0.0,0.0,0.0,0.0,0.0,0.0,0.0,0.0,0.0,0.0,0.0,0.0,0.0,0.0,0.0,0.0,0.0,0.0,0.0,0.0,0.0,0.0,0.0,0.0,0.0,0.0,0.0,0.0,0.0,0.0,0.0,0.0,0.0,0.0,0.0,0.0,0.8175,0.8389,0.8179,0.0,0.0,0.0,0.0,1.0826,1.0194,0.0,0.0,0.0,0.0,0.0,0.0,0.0,0.0,0.0,0.0,0.0,0.0,0.0,0.0,0.0,0.0,0.0,0.0,0.0,0.0,0.0,0.0,0.0,0.0,0.0,0.0,0.0,0.0,0.0,0.0,0.0,0.0,0.0,0.0,0.0,0.0,0.0,0.0,0.0,0.0,0.0,0.0,0.0,0.0,0.0,0.0,0.0,0.0,0.0,0.0,0.0,0.0,0.0,0.0,0.0,0.0,1.8545,2.0273,2.1572,2.2412,2.29,2.2744,2.1904,2.1074,1.9814,0.0,0.0,0.0,0.0,0.0,0.0,0.0,0.0,0.0,0.0,0.0,0.0,0.0,0.0,0.0,0.0,0.0,0.0,0.0,0.0,0.0,0.0,0.0,0.0,0.0,0.0,0.0,0.0,0.0,0.0,0.0,0.0,0.0,0.0,0.0,0.0,0.0,0.0,0.0,0.0,0.0,0.89,0.92,0.944,0.9335,0.0,0.0,1.1358,1.2228,1.1354,0.0,0.0,0.0,0.0,0.0,0.0,0.0,0.0,0.0,0.0,0.0,0.0,0.0,0.0,0.0,0.0,0.0,0.0,0.0,0.0,0.0,0.0,0.0,0.0,0.0,0.0,0.0,0.0,0.0,0.0,0.0,0.0,0.0,0.0,0.0,0.0,0.0,0.0,0.0,0.0,0.0,0.0,0.0,0.0,0.0,0.0,0.0,0.0,0.0,0.0,0.0,0.0,0.0,0.0,0.0,1.7285,1.8984,2.0469,2.165,2.249,2.292,2.2734,2.1904,2.1279,2.0137,0.0,0.0,0.0,0.0,0.0,0.0,0.0,0.0,0.0,0.0,0.0,0.0,0.0,0.0,0.0,0.0,0.0,0.0,0.0,0.0,0.0,0.0,0.0,0.0,0.0,0.0,0.0,0.0,0.0,0.0,0.0,0.0,0.0,0.0,0.0,0.0,0.0,0.0,0.0,0.0,0.0,0.0,1.0344,1.079,0.0,0.0,0.0,1.3094,1.3474,0.0,0.0,0.0,0.0,0.0,0.0,0.0,0.0,0.0,0.0,0.0,0.0,0.0,0.0,0.0,0.0,0.0,0.0,0.0,0.0,0.0,0.0,0.0,0.0,0.0,0.0,0.0,0.0,0.0,0.0,0.0,0.0,0.0,0.0,0.0,0.0,0.0,0.0,0.0,0.0,0.0,0.0,0.0,0.0,0.0,0.0,0.0,0.0,0.0,0.0,0.0,0.0,0.0,0.0,0.0,0.0,0.0,1.9424,2.0732,2.1807,2.2637,2.2978,2.2783,2.207,2.1514,0.0,0.0,0.0,0.0,0.0,0.0,0.0,0.0,0.0,0.0,0.0,0.0,0.0,0.0,0.0,0.0,0.0,0.0,0.0,0.0,0.0,0.0,0.0,0.0,0.0,0.0,0.0,0.7504,0.0,0.0,0.0,0.0,0.0,0.0,0.0,0.0,0.0,0.0,0.0,0.0,0.0,0.0,1.0113,1.1386,1.1956,1.205,0.0,0.0,1.4559,1.4635,1.373,1.276,0.0,0.0,0.0,0.0,0.0,0.0,0.0,0.0,0.0,0.0,0.0,0.0,0.0,0.0,0.0,0.0,0.0,0.0,0.0,0.0,0.0,0.0,0.0,0.0,0.0,0.0,0.0,0.0,0.0,0.0,0.0,0.0,0.0,0.0,0.0,0.0,0.0,0.0,0.0,0.0,0.0,0.0,0.0,0.0,0.0,0.0,0.0,0.0,0.0,0.0,0.0,0.0,0.0,0.0,0.0,1.9853,2.1172,2.2236,2.3057,2.3125,2.293,2.2471,2.167,2.0615,0.0,0.0,0.0,0.0,0.0,0.0,0.0,0.0,0.0,0.0,0.0,0.0,0.0,0.0,0.0,0.0,0.0,0.0,0.0,0.0,0.0,0.0,0.0,0.0,0.0,0.0,0.0,0.0,0.0,0.0,0.0,0.0,0.0,0.0,0.0,0.0,0.0,0.0,0.0,0.0,0.0,1.0885,1.2216,1.2917,1.3243,0.0,0.0,1.5122,1.5582,1.4595,1.3572,1.313,0.0,0.0,0.0,0.0,0.0,0.0,0.0,0.0,0.0,0.0,0.0,0.0,0.0,0.0,0.0,0.0,0.0,0.0,0.0,0.0,0.0,0.0,0.0,0.0,0.0,0.0,0.0,0.0,0.0,0.0,0.0,0.0,0.0,0.0,0.0,0.0,0.0,0.0,0.0,0.0,0.0,0.0,0.0,0.0,0.0,0.0,0.0,0.0,0.0,0.0,0.0,0.0,0.0,1.8613,2.0293,2.1348,2.2295,2.3096,2.3144,2.2939,2.2519,2.2197,2.1406,0.0,0.0,0.0,0.0,0.0,0.0,0.0,0.0,0.0,0.0,0.0,0.0,0.0,0.0,0.0,0.0,0.0,0.0,0.0,0.0,0.0,0.0,0.0,0.0,0.0,0.0,0.0,0.0,0.9167,0.9298,0.9174,0.0,0.0,0.0,0.0,0.0,0.0,0.0,0.0,0.0,0.0,1.1734,1.2948,1.3611,0.0,0.0,1.5044,1.554,1.5755,1.5107,1.433,1.3877,1.2943,0.0,0.0,0.0,0.0,0.0,0.0,0.0,0.0,0.0,0.0,0.0,0.0,0.0,0.0,0.0,0.0,0.0,0.0,0.0,0.0,0.0,0.0,0.0,0.0,0.0,0.0,0.0,0.0,0.0,0.0,0.0,0.0,0.0,0.0,0.0,0.0,0.0,0.0,0.0,0.0,0.0,0.0,0.0,0.0,0.0,0.0,0.0,0.0,0.0,0.0,0.0,0.0,1.8848,2.0624,2.1435,2.2295,2.3028,2.3144,2.2998,2.2705,2.2588,2.2021,0.0,0.0,0.0,0.0,0.0,0.0,0.0,0.0,0.0,0.0,0.0,0.0,0.0,0.0,0.0,0.0,0.0,0.0,0.0,0.0,0.0,0.0,0.0,0.0,0.0,0.0,0.0,0.0,0.9774,0.9965,0.9874,0.0,0.0,0.0,0.0,0.0,0.0,0.0,0.0,0.0,0.0,1.2608,1.368,1.4244,1.4631,1.5204,1.5503,1.5844,1.5844,1.5389,1.4933,1.4543,0.0,0.0,0.0,0.0,0.0,0.0,0.0,0.0,0.0,0.0,0.0,0.0,0.0,0.0,0.0,0.0,0.0,0.0,0.0,0.0,0.0,0.0,0.0,0.0,0.0,0.0,0.0,0.0,0.0,0.0,0.0,0.0,0.0,0.0,0.0,0.0,0.0,0.0,0.0,0.0,0.0,0.0,0.0,0.0,0.0,0.0,0.0,0.0,0.0,0.0,0.0,0.0,0.0,1.8877,2.0547,2.1455,2.2305,2.3105,2.3144,2.3135,2.3105,2.2725,2.2305,2.1846,0.0,0.0,0.0,0.0,0.0,0.0,0.0,0.0,0.0,0.0,0.0,0.0,0.0,0.0,0.0,0.0,0.0,0.0,0.0,0.0,0.0,0.0,0.0,0.0,0.0,0.0,1.01,1.0187,1.0378,0.0,0.0,0.0,0.0,0.0,0.0,0.0,0.0,0.0,0.0,1.2355,1.3484,1.441,1.4806,1.5173,1.5657,1.5805,1.5818,1.5812,1.5571,1.5292,0.0,0.0,0.0,0.0,0.0,0.0,0.0,0.0,0.0,0.0,0.0,0.0,0.0,0.0,0.0,0.0,0.0,0.0,0.0,0.0,0.0,0.0,0.0,0.0,0.0,0.0,0.0,0.0,1.7945,0.0,0.0,0.0,0.0,0.0,0.0,0.0,0.0,0.0,0.0,0.0,1.991,1.9781,0.0,0.0,0.0,0.0,0.0,0.0,0.0,0.0,0.0,0.0,0.0,0.0,1.9561,2.0977,2.1865,2.2568,2.3125,2.3144,2.3144,2.3144,2.2921,2.2598,2.1894,0.0,0.0,0.0,0.0,0.0,0.0,0.0,0.0,0.0,0.0,0.0,0.0,0.0,0.0,0.0,0.0,0.0,0.0,0.0,0.0,0.0,0.0,0.0,0.0,0.0,1.0488,0.0,0.0,0.0,0.0,0.0,0.0,0.0,0.0,0.0,0.0,0.0,1.1534,1.2392,1.3288,1.4138,1.48,1.5305,1.5617,0.0,0.0,0.0,0.0,0.0,0.0,0.0,0.0,0.0,0.0,0.0,0.0,0.0,0.0,1.1124,1.1039,1.0275,0.9523,0.9145,0.0,0.0,0.0,0.0,0.0,0.0,0.0,0.0,0.0,0.0,0.0,0.0,0.0,0.0,0.0,0.0,1.9929,0.0,0.0,0.0,0.0,0.0,0.0,0.0,0.0,2.0487,2.0933,2.1549,2.1332,2.1027,0.0,2.0166,1.9541,0.0,0.0,0.0,0.0,0.0,0.0,0.0,0.0,2.0078,2.1131,2.208,2.2715,2.3115,2.3144,2.3144,2.3144,2.3144,2.2803,2.2129,2.1133,2.0,0.0,0.0,0.0,0.0,0.0,0.0,0.0,0.0,0.0,0.0,0.0,0.0,0.0,0.0,0.0,0.0,0.0,0.0,0.0,0.0,0.0,0.0,0.0,1.1162,0.0,0.0,0.0,0.0,0.0,0.0,0.0,0.0,0.0,1.1419,1.1973,1.2657,1.337,1.4138,1.4777,1.5153,0.0,0.0,0.0,0.0,0.0,0.0,0.0,1.5732,1.5838,1.5597,1.5279,1.4995,1.4615,1.4147,1.3755,0.0,0.0,1.3074,1.2357,1.1629,1.1036,1.0961,1.1061,1.1377,1.1577,1.1701,0.0,0.0,0.0,0.0,0.0,0.0,0.0,0.0,2.4542,2.4214,0.0,2.264,0.0,0.0,0.0,0.0,0.0,0.0,0.0,0.0,2.2372,2.26,2.293,2.2563,2.2317,2.2195,2.1617,2.124,2.1103,1.9141,0.0,0.0,0.0,0.0,0.0,0.0,2.0391,2.1289,2.2119,2.2734,2.3125,2.3144,2.3144,2.3144,2.3144,2.2949,2.2549,2.2109,2.1299,2.0019,1.875,0.0,0.0,0.0,0.0,0.0,0.0,0.0,0.0,0.0,0.0,0.0,0.0,0.0,0.0,0.0,0.0,0.0,0.0,0.0,0.0,1.1563,0.0,0.0,0.0,0.0,0.0,0.0,0.0,0.0,0.0,0.0,1.2428,1.3166,1.3966,1.4248,0.0,0.0,0.0,0.0,1.5845,1.5845,1.5852,1.6074,1.6572,1.6501,1.6373,1.664,0.0,0.0,1.6326,1.6039,1.5832,1.5852,1.5399,1.5006,1.4998,1.46,1.3985,1.3145,1.2973,1.3138,1.3585,1.3641,1.3805,2.8425,0.0,0.0,0.0,0.0,2.5436,2.5669,2.5646,2.6166,2.6212,2.5755,2.523,0.0,0.0,0.0,0.0,0.0,0.0,2.3578,2.4338,2.4339,2.4491,2.4702,2.4294,2.3793,2.3132,2.2928,2.2541,2.1915,2.1313,2.0387,1.9209,0.0,0.0,0.0,0.0,2.1279,2.2129,2.2685,2.3018,2.3135,2.3144,2.3144,2.3144,2.3144,2.3076,2.2959,2.2559,2.2021,2.1338,2.0078,0.0,0.0,0.0,0.0,0.0,0.0,0.0,0.0,0.0,0.0,0.0,0.0,0.0,0.0,0.0,0.0,0.0,0.0,0.0,1.2178,1.2599,1.2652,0.0,0.0,0.0,0.0,0.0,0.0,0.0,0.0,0.0,1.4203,1.4455,1.4734,0.0,0.0,1.5464,1.5671,1.5965,1.6139,1.5822,0.0,0.0,0.0,1.6686,1.6607,1.6693,1.6707,1.6673,1.6593,1.6513,1.646,1.6572,1.6453,1.6235,1.6381,1.6188,1.5629,1.481,1.4665,1.4848,1.5006,1.519,1.5373,3.173,3.0111,2.8363,2.7553,2.753,2.7928,2.81,2.8124,2.8553,2.8598,2.8301,2.7831,2.7203,2.6407,2.5663,0.0,0.0,0.0,2.6071,2.6759,2.6673,2.6724,2.6749,2.6174,2.5594,2.5051,2.4708,2.4327,2.3665,2.3398,2.2639,2.1371,0.0,0.0,2.085,2.1611,2.2256,2.2764,2.335,2.3564,2.3398,2.3232,2.3144,2.3144,2.3144,2.3144,2.3144,2.29,2.2568,2.2139,2.1211,2.0225,0.0,0.0,0.0,0.0,0.0,0.0,0.0,0.0,0.0,0.0,0.0,0.988,0.0,0.0,0.0,0.0,1.2141,1.2351,1.2886,1.32,0.0,0.0,0.0,0.0,0.0,0.0,0.0,1.4351,1.4423,1.4515,1.507,1.5237,1.5371,1.5545,1.5565,1.5678,1.5965,0.0,1.6313,1.6196,1.66,1.6981,1.7083,1.6995,1.6914,1.7041,1.7054,1.7054,1.7054,1.7054,1.7061,1.7177,1.7163,1.7061,1.7279,1.7109,1.6796,1.5947,1.5934,1.6084,1.6201,1.6371,1.6514,3.4537,3.3809,3.126,3.0143,3.0105,3.0595,3.0809,3.0846,3.1323,3.1142,3.0493,3.0226,2.9487,2.8273,2.7468,0.0,0.0,2.8036,2.85,2.927,2.9078,2.8947,2.8849,2.7995,2.7558,2.747,2.684,2.6315,2.6034,2.5351,2.4598,2.368,2.265,2.1855,2.1484,2.2568,2.3184,2.3252,2.4014,2.4209,2.3799,2.3398,2.3174,2.3144,2.3144,2.3144,2.3144,2.3144,2.2969,2.2578,2.2168,2.1348,2.0088,0.0,0.0,0.0,0.0,0.0,0.0,0.0,0.0,0.0,0.0,0.0,0.0,0.0,0.0,0.0,1.3286,0.0,1.3347,1.3587,0.0,0.0,0.0,1.3563,1.3263,1.3413,1.3979,1.4952,0.0,0.0,0.0,0.0,1.5825,1.5825,1.5825,1.5939,1.6233,1.6404,1.6511,1.6693,1.6881,1.7218,1.749,1.74,1.7261,1.7482,1.7589,1.7549,1.7549,1.7549,1.7569,1.7549,1.7582,1.7569,1.7582,1.7522,1.7415,1.6867,1.678,1.686,1.7101,1.7174,1.7255,3.5655,3.5052,3.3997,3.3068,3.2303,3.2441,3.2491,3.2503,3.2629,3.2353,3.1755,3.1743,3.1203,3.0325,3.0028,2.9878,3.0,3.0041,3.0245,3.0379,3.0181,2.9978,2.9785,2.9374,2.8947,2.8516,2.8245,2.7711,2.674,2.6477,2.5747,2.4826,2.4366,2.3624,2.2754,2.2998,2.3467,2.4102,2.4316,2.4219,2.3809,2.3691,2.3477,2.3154,2.3144,2.3144,2.3144,2.3144,2.3008,2.2988,2.2588,2.1924,2.0967,1.9785,0.0,0.0,0.0,0.0,0.0,0.0,0.0,0.0,0.0,1.1528,1.1006,0.0,1.312,0.0,1.3858,1.4062,1.4502,1.4603,0.0,0.0,1.4469,1.4462,1.3952,1.418,1.4761,1.5561,1.5349,1.52,1.5691,1.5792,1.5825,1.5825,1.5825,1.5939,1.6226,1.6466,1.67,1.6751,1.7098,1.7506,1.7573,1.7586,1.7495,1.7569,1.7589,1.7589,1.7589,1.7589,1.7589,1.7589,1.7589,1.7589,1.7589,1.7589,1.7549,1.7402,1.7375,1.7388,1.7462,1.7475,1.7495,3.701,3.6257,3.5956,3.5316,3.45,3.4022,3.3809,3.3809,3.3809,3.3633,3.3307,3.3068,3.2719,3.2334,3.2,3.194,3.2164,3.2164,3.2301,3.2524,3.2377,3.2117,3.2005,3.1656,3.1304,3.0938,3.0737,3.0099,2.917,2.8316,2.7382,2.6187,2.5643,2.5043,2.4316,2.4102,2.4228,2.4697,2.4707,2.4502,2.4082,2.3877,2.3584,2.3154,2.2959,2.2861,2.2852,2.2685,2.2578,2.2568,2.2363,2.1934,2.1179,2.0361,1.9473,0.0,0.0,0.0,0.0,0.0,0.0,0.0,0.0,0.0,0.0,0.0,1.4019,0.0,1.448,0.0,1.4937,1.506,1.4897,1.4736,1.4983,1.4987,1.4532,1.4865,1.5305,1.5785,1.5591,1.5544,1.5805,1.5825,1.5825,1.5825,1.5825,1.5939,1.6239,1.652,1.6807,1.7094,1.7388,1.7589,1.7589,1.7589,1.7589,1.7589,1.7589,1.7589,1.7589,1.7589,1.7589,1.7589,1.7589,1.7589,1.7589,1.7589,1.7589,1.7589,1.7589,1.7589,1.7589,1.7589,1.7589,3.8291,3.74,3.7324,3.701,3.6496,3.5554,3.5064,3.4939,3.4926,3.4889,3.4801,3.4248,3.401,3.3972,3.3508,3.3545,3.3997,3.401,3.4261,3.4713,3.4557,3.4466,3.4388,3.3998,3.3802,3.3802,3.3317,3.2746,3.1887,3.0535,2.9179,2.7662,2.694,2.638,2.6064,2.5604,2.5388,2.5244,2.5176,2.4912,2.4424,2.4062,2.3643,2.3154,2.2734,2.251,2.25,2.21,2.1894,2.1894,2.1894,2.1709,2.1338,2.0898,2.0322,0.0,1.8976,0.0,0.0,0.0,0.0,0.0,0.0,0.0,0.0,1.4402,1.4933,1.506,1.5023,1.5037,1.507,1.507,1.5077,1.5084,1.5297,1.5345,1.5147,1.5564,1.5825,1.5825,1.5825,1.5825,1.5825,1.5825,1.5825,1.5825,1.5825,1.5919,1.6172,1.6446,1.6847,1.7503,1.7536,1.7402,1.7415,1.7435,1.7455,1.7495,1.7508,1.7542,1.7575,1.7589,1.7589,1.7589,1.7589,1.7589,1.7589,1.7589,1.7589,1.7589,1.7589,1.7589,1.7589,1.7589,1.7589,3.8743,3.8504,3.8052,3.7789,3.7676,3.7475,3.6885,3.6056,3.6056,3.5793,3.5366,3.4813,3.4562,3.4562,3.4449,3.4474,3.4562,3.4575,3.4625,3.4726,3.4635,3.4635,3.4635,3.4545,3.4454,3.4284,3.4181,3.3606,3.2665,3.1973,3.0925,2.9699,2.8953,2.8276,2.7752,0.0,0.0,0.0,2.5781,2.5225,2.4453,2.4336,2.3926,2.3164,2.2725,0.0,2.25,2.2109,2.1894,2.1894,2.1894,0.0,0.0,0.0,0.0,0.0,0.0,0.0,0.0,0.0,0.0,0.0,1.8932,1.735,1.5094,1.5282,1.5493,1.5376,1.5311,1.5411,1.5638,1.5665,1.5665,1.5671,1.5718,1.5651,1.5651,1.5697,1.5825,1.5825,1.5825,1.5825,1.5825,1.5825,1.5825,1.5825,1.5825,1.5852,1.5905,1.6186,1.6677,1.741,1.7218,1.6887,1.6867,1.6894,1.7007,1.7148,1.7228,1.7321,1.7515,1.7582,1.7589,1.7589,1.7589,1.7589,1.7589,1.7589,1.7589,1.7589,1.7589,1.7589,1.7589,1.7589,1.7589,3.912,0.0,3.8555,3.8278,0.0,3.8002,3.7688,3.7149,3.6885,3.6458,3.5931,3.5655,3.5529,3.5529,3.5529,3.5529,3.5529,3.5529,3.5529,3.5529,3.5529,3.5529,3.5529,3.5529,3.5437,3.5356,3.5356,3.4891,3.4006,3.3363,3.2364,3.1018,3.0339,2.9542,2.8827,2.8126,2.7317,2.6396,2.6172,2.5635,2.4785,2.4531,2.4111,2.3477,0.0,0.0,0.0,0.0,0.0,0.0,0.0,0.0,0.0,0.0,0.0,2.1553,2.1348,2.1221,2.106,2.088,2.09,2.1237,2.0817,1.9419,1.6695,1.6277,1.6106,1.5871,1.5805,1.5765,1.5805,1.5825,1.5825,1.5825,1.5825,1.5825,1.5825,1.5825,1.5825,1.5825,1.5825,1.5825,1.5825,1.5825,1.5825,1.5825,1.5825,1.5825,1.5858,1.6086,1.6491,1.71,1.66,1.6367,1.66,1.6707,1.6734,1.6907,1.7054,1.7194,1.7348,1.7482,1.7589,1.7589,1.7589,1.7589,1.7589,1.7589,1.7589,1.7589,1.7589,1.7589,1.7589,1.7589,1.7589,3.9433,3.9019,3.9019,3.8743,3.8304,3.8304,3.8241,3.8115,0.0,0.0,0.0,3.6646,3.6646,3.6646,3.6546,3.6508,3.6508,3.6395,3.637,3.637,3.637,3.637,3.637,3.637,3.637,3.637,3.637,3.6073,3.532,3.4678,3.3683,3.2419,3.1617,3.0705,2.9486,2.8682,2.7796,2.6641,2.6465,2.6006,2.5205,2.4756,2.4297,2.3799,2.3037,2.2588,2.25,2.2109,2.1894,2.1885,2.1875,2.1914,2.1992,2.1982,2.2021,2.21,2.2109,2.2109,2.2109,2.1923,2.1984,2.2265,2.1957,2.0747,1.83,1.7243,1.6629,1.6292,1.6224,1.6123,1.5832,1.5825,1.5825,1.5825,1.5825,1.5825,1.5825,1.5825,1.5825,1.5825,1.5825,1.5825,1.5825,1.5825,1.5825,1.5825,1.5825,1.5825,1.5852,1.6019,1.6246,1.6446,1.6137,1.5972,1.6421,1.652,1.6567,1.662,1.6827,1.7001,1.7094,1.7268,1.7408,1.7382,1.7462,1.7607,1.7508,1.7542,1.7582,1.7589,1.7589,1.7589,1.7589,1.7589,1.7589,3.9647,3.9584,3.9572,3.9534,3.9459,3.9459,3.9195,3.8718,3.814,3.7839,3.7764,3.7776,3.7776,3.7751,3.7274,3.7073,3.7036,3.6571,3.637,0.0,3.637,3.637,3.637,3.637,3.637,3.637,3.637,3.6181,3.5908,3.5547,3.5005,3.4314,3.3406,3.1871,3.0068,2.9556,2.88,2.7584,2.6768,2.6143,2.5654,2.5195,2.459,2.3818,2.332,2.2871,2.2529,2.2129,2.1894,2.1885,2.1661,2.1723,2.2393,2.2318,2.2473,2.292,2.2969,2.2969,2.2969,2.2872,2.2814,2.2698,2.2511,2.1338,1.9198,1.7934,1.703,1.6581,1.64,1.6123,1.5832,1.5825,1.5825,1.5825,1.5825,1.5825,1.5825,1.5825,1.5825,1.5825,1.5825,1.5825,1.5825,1.5825,1.5825,1.5825,1.5825,1.5825,1.5832,1.5858,1.5905,1.5945,1.585,1.585,1.6012,1.5959,1.6086,1.6299,1.6386,1.654,1.674,1.6847,1.6901,1.6854,1.7286,1.7421,1.7324,1.7422,1.7528,1.7555,1.7562,1.7582,1.7589,1.7589,1.7589,3.9697,3.9697,3.9697,3.9697,3.9697,3.9697,3.9559,3.9308,3.9044,3.8567,3.8015,3.8002,3.8002,3.7977,3.7739,3.7626,3.7626,3.7362,3.7249,3.7249,3.7249,3.7098,3.6835,3.681,3.681,3.681,3.6822,3.6864,3.681,3.6478,3.5941,3.533,3.3849,3.2185,3.0671,2.9963,2.9147,2.8219,2.7506,2.6768,2.6103,2.5654,2.5127,2.4502,2.4053,2.375,2.3555,2.3359,2.3262,2.3252,2.294,2.2901,2.3174,2.2882,2.2833,2.3038,2.3144,2.3144,2.3144,2.3144,2.3047,2.2803,2.2823,2.2106,2.0546,1.8975,1.7957,1.7419,1.6972,1.6501,1.6028,1.5927,1.5825,1.5825,1.5825,1.5825,1.5825,1.5825,1.5825,1.5825,1.5825,1.5825,1.5825,1.5825,1.5825,1.5825,1.5825,1.5825,1.5825,1.5825,1.5825,1.5825,1.5825,1.5832,1.5825,1.5825,1.5885,1.6025,1.6172,1.6306,1.6473,1.6573,1.6687,1.6707,1.6935,1.7009,1.6914,1.7271,1.7432,1.7368,1.7495,1.7562,1.7589,1.7589,1.7589,3.9697,3.9697,3.9697,3.9697,3.9697,3.9697,3.9697,3.9697,3.9685,3.9195,3.8454,3.8391,3.8391,3.8379,3.8253,3.8191,3.8191,3.8065,3.8002,3.8002,3.8002,3.7776,3.74,3.7374,3.7374,3.7374,3.7362,3.749,3.7605,3.7269,3.6702,3.5866,3.4065,3.2488,3.1289,3.0266,2.9459,2.8708,2.8084,2.7441,2.6699,2.6162,2.5674,2.5234,2.4785,2.4521,2.4424,2.4424,2.4424,2.4404,2.4222,2.4045,2.3916,2.3613,2.3428,2.3428,2.3428,2.3379,2.3301,2.3281,2.3164,2.2891,2.3008,2.2735,2.1713,2.0335,1.9141,1.8334,1.7527,1.6878,1.6407,1.6028,1.5832,1.5825,1.5825,1.5825,1.5825,1.5825,1.5825,1.5825,1.5825,1.5825,1.5825,1.5825,1.5825,1.5825,1.5825,1.5825,1.5825,1.5825,1.5825,1.5825,1.5825,1.5825,1.5825,1.5825,1.5832,1.5832,1.6012,1.6126,1.6206,1.6366,1.648,1.6473,1.6441,1.6494,1.6627,1.684,1.7123,1.7061,1.7261,1.7482,1.7569,1.7582,1.7589,3.9697,3.9697,3.9697,3.9697,3.9697,3.9697,3.9697,3.9697,3.9697,3.9659,3.9484,3.9534,3.9496,3.9471,3.9007,3.8793,3.8743,3.8241,3.804,3.8052,3.8002,3.799,3.7927,3.7927,3.7939,3.7927,3.7927,3.799,3.8003,3.7878,3.7295,3.6001,3.4856,3.33,3.1688,3.0795,2.9764,2.8727,2.8368,2.8018,2.7539,2.6748,2.6113,2.5684,2.5254,2.4814,2.4502,2.4424,2.4424,2.4414,2.4394,2.4365,2.4355,2.4316,2.4287,2.4277,2.4277,2.4141,2.3779,2.373,2.3564,2.3096,2.3096,2.2998,2.2637,2.1882,2.0683,1.9155,1.8156,1.7326,1.6676,1.6312,1.6028,1.5832,1.5825,1.5825,1.5825,1.5825,1.5825,1.5825,1.5825,1.5825,1.5825,1.5825,1.5825,1.5825,1.5825,1.5825,1.5825,1.5825,1.5825,1.5825,1.5825,1.5825,1.5825,1.5825,1.5825,1.5832,1.5845,1.5899,1.5939,1.5932,1.5925,1.6099,1.5945,1.6077,1.615,1.6203,1.6179,1.668,1.7001,1.7281,1.7502,1.7589,1.7589,3.9697,3.9697,3.9697,3.9697,3.9697,3.9697,3.9697,3.9697,3.9697,3.9697,3.9697,3.9697,3.9697,3.9672,3.9446,3.9346,3.9333,3.9107,3.9007,3.9007,3.8994,3.8831,3.8542,3.8517,3.8517,3.8517,3.8517,3.8693,3.8894,3.8668,3.8029,3.6973,3.5719,3.444,3.3005,3.1636,3.038,2.9248,2.8727,2.8426,2.7998,2.7451,2.6816,2.6191,2.5937,2.5644,2.5254,2.5195,2.5195,2.5185,2.5189,2.5051,2.4805,2.505,2.4921,2.4434,2.4424,2.4346,2.417,2.417,2.4082,2.3896,2.3419,2.3124,2.3178,2.2792,2.188,2.0473,1.9163,1.8056,1.7333,1.677,1.6305,1.6123,1.5927,1.5832,1.5825,1.5825,1.5825,1.5825,1.5825,1.5825,1.5825,1.5825,1.5825,1.5825,1.5825,1.5825,1.5825,1.5825,1.5825,1.5825,1.5825,1.5825,1.5825,1.5825,1.5825,1.5825,1.5825,1.5825,1.5825,1.5825,1.5832,1.5825,1.5836,1.5813,1.5999,1.5908,1.5901,1.6421,1.6867,1.7235,1.7522,1.7582,1.7589,3.9697,3.9697,3.9697,3.9697,3.9697,3.9697,3.9697,3.9697,3.9697,3.9697,3.9697,3.9697,3.9697,3.9697,3.9697,3.9697,3.9697,3.9697,3.9697,3.9697,3.9697,3.9484,3.912,3.9094,3.9094,3.9094,3.9094,3.9295,3.9597,3.9145,3.8542,3.7804,3.6563,3.5313,3.4026,3.2347,3.0912,2.9764,2.9046,2.8621,2.8252,2.7998,2.748,2.6807,2.6504,2.623,2.5937,2.5791,2.5732,2.5723,2.5681,2.5513,2.5349,2.558,2.5411,2.4795,2.4785,2.4717,2.4609,2.46,2.4541,2.4331,2.3798,2.348,2.3631,2.352,2.3013,2.1935,2.0566,1.9362,1.8115,1.7276,1.6714,1.6348,1.6054,1.5932,1.5845,1.5825,1.5825,1.5825,1.5825,1.5825,1.5825,1.5825,1.5825,1.5825,1.5825,1.5825,1.5825,1.5825,1.5825,1.5825,1.5825,1.5825,1.5825,1.5825,1.5825,1.5825,1.5825,1.5825,1.5825,1.5825,1.5825,1.5825,1.5825,1.5838,1.5885,1.584,1.5901,1.6241,1.668,1.7114,1.7368,1.7488,1.7575,3.9697,3.9697,3.9697,3.9697,3.9697,3.9697,3.9697,3.9697,3.9697,3.9697,3.9697,3.9697,3.9697,3.9697,3.9697,3.9697,3.9697,3.9697,3.9697,3.9697,3.9697,3.9672,3.9672,3.9672,3.9647,3.9584,3.9584,3.9622,3.9659,3.917,3.8755,3.8376,3.7351,3.6009,3.4493,3.3034,3.1546,3.0151,2.9152,2.8621,2.8291,2.8271,2.8027,2.7559,2.6836,2.6426,2.6299,2.5967,2.5742,2.5732,2.5703,2.5693,2.5684,2.5664,2.5635,2.5625,2.5635,2.5469,2.5107,2.5049,2.4893,2.4541,2.4409,2.4322,2.4312,2.4239,2.3923,2.3215,2.229,2.1036,1.9201,1.8001,1.7223,1.6752,1.6461,1.6139,1.5872,1.5879,1.5832,1.5825,1.5825,1.5825,1.5825,1.5825,1.5825,1.5825,1.5825,1.5825,1.5825,1.5825,1.5825,1.5825,1.5825,1.5825,1.5825,1.5825,1.5825,1.5825,1.5825,1.5825,1.5825,1.5825,1.5825,1.5825,1.5825,1.5832,1.5832,1.5919,1.5963,1.6253,1.6533,1.6887,1.7315,1.7455,1.7549,3.9697,3.9697,3.9697,3.9697,3.9697,3.9697,3.9697,3.9697,3.9697,3.9697,3.9697,3.9697,3.9697,3.9697,3.9697,3.9697,3.9697,3.9697,3.9697,3.9697,3.9697,3.9697,3.9697,3.9697,3.9697,3.9697,3.9697,3.9697,3.9685,3.9484,3.9396,3.9103,3.8132,3.7013,3.5801,3.3878,3.2219,3.079,2.9601,2.8717,2.8301,2.8301,2.8213,2.8047,2.751,2.6943,2.6396,2.623,2.6035,2.5752,2.5732,2.5732,2.5732,2.5732,2.5732,2.5732,2.5732,2.5664,2.5527,2.5498,2.5439,2.5293,2.5264,2.5107,2.4902,2.473,2.4446,2.3664,2.2933,2.177,2.0524,1.9025,1.7934,1.7344,1.6844,1.6433,1.6192,1.5996,1.5827,1.5783,1.5825,1.5825,1.5825,1.5825,1.5825,1.5825,1.5825,1.5825,1.5825,1.5825,1.5825,1.5825,1.5825,1.5825,1.5825,1.5825,1.5825,1.5825,1.5825,1.5825,1.5825,1.5825,1.5825,1.5825,1.5825,1.5825,1.5832,1.5845,1.5992,1.6373,1.664,1.6874,1.7335,1.7475,1.7549,3.9697,3.9697,3.9697,3.9697,3.9697,3.9697,3.9697,3.9697,3.9697,3.9697,3.9697,3.9697,3.9697,3.9697,3.9697,3.9697,3.9697,3.9697,3.9697,3.9697,3.9697,3.9697,3.9697,3.9697,3.9697,3.9697,3.9697,3.9697,3.9697,3.9697,3.9697,3.9659,3.8795,3.7788,3.668,3.4785,3.2867,3.1381,3.0007,2.8963,2.8427,2.8301,2.8301,2.8252,2.8018,2.7539,2.6826,2.6543,2.6269,2.5977,2.581,2.5732,2.5732,2.5732,2.5732,2.5732,2.5732,2.5732,2.5732,2.5732,2.5732,2.5732,2.5723,2.5586,2.5312,2.5168,2.4822,2.425,2.3613,2.277,2.161,2.0221,1.8955,1.7881,1.715,1.6727,1.6453,1.6072,1.583,1.582,1.579,1.5838,1.5825,1.5825,1.5825,1.5825,1.5825,1.5825,1.5825,1.5825,1.5825,1.5825,1.5825,1.5825,1.5825,1.5825,1.5825,1.5825,1.5825,1.5825,1.5825,1.5825,1.5825,1.5825,1.5825,1.5825,1.5825,1.5825,1.6099,1.65,1.668,1.684,1.7201,1.7495,1.7555,3.9697,3.9697,3.9697,3.9697,3.9697,3.9697,3.9697,3.9697,3.9697,3.9697,3.9697,3.9697,3.9697,3.9697,3.9697,3.9697,3.9697,3.9697,3.9697,3.9697,3.9697,3.9697,3.9697,3.9697,3.9697,3.9697,3.9697,3.9697,3.9697,3.9697,3.9697,3.9581,3.9025,3.8221,3.7216,3.5476,3.3546,3.1732,3.0335,2.9349,2.8466,2.831,2.8301,2.8301,2.8262,2.8047,2.7637,2.6855,2.6416,2.6309,2.5957,2.5742,2.5732,2.5732,2.5732,2.5732,2.5732,2.5732,2.5732,2.5732,2.5732,2.5732,2.5732,2.5713,2.5664,2.5664,2.545,2.5208,2.4613,2.3881,2.2567,2.1314,1.9967,1.833,1.7558,1.713,1.668,1.624,1.5812,1.5869,1.5873,1.5865,1.5845,1.5885,1.5885,1.5838,1.5825,1.5825,1.5825,1.5825,1.5825,1.5825,1.5825,1.5825,1.5825,1.5825,1.5825,1.5825,1.5825,1.5825,1.5825,1.5825,1.5825,1.5825,1.5825,1.5825,1.5858,1.5885,1.6079,1.6413,1.658,1.6874,1.7208,1.7508,1.7555,3.9697,3.9697,3.9697,3.9697,3.9697,3.9697,3.9697,3.9697,3.9697,3.9697,3.9697,3.9697,3.9697,3.9697,3.9697,3.9697,3.9697,3.9697,3.9697,3.9697,3.9697,3.9697,3.9697,3.9697,3.9697,3.9697,3.9697,3.9697,3.9697,3.9697,3.9697,3.9594,3.9062,3.8441,3.7709,3.5764,3.3865,3.2402,3.074,2.9391,2.8701,2.8437,2.8301,2.8301,2.8291,2.8223,2.8066,2.7275,2.6699,2.6416,2.5977,2.5732,2.5732,2.5732,2.5732,2.5732,2.5732,2.5732,2.5732,2.5732,2.5732,2.5732,2.5732,2.5732,2.5732,2.5732,2.5655,2.5488,2.496,2.4026,2.292,2.1599,2.031,1.869,1.8074,1.7536,1.7048,1.6713,1.646,1.6474,1.6381,1.6359,1.6186,1.6132,1.6039,1.5872,1.5838,1.5825,1.5825,1.5825,1.5825,1.5825,1.5825,1.5825,1.5825,1.5825,1.5825,1.5825,1.5825,1.5825,1.5825,1.5825,1.5825,1.5825,1.5825,1.5838,1.5865,1.5999,1.6192,1.648,1.6787,1.7081,1.7368,1.7397,1.7358,3.9697,3.9697,3.9697,3.9697,3.9697,3.9697,3.9697,3.9697,3.9697,3.9697,3.9697,3.9697,3.9697,3.9697,3.9697,3.9697,3.9697,3.9697,3.9697,3.9697,3.9697,3.9697,3.9697,3.9697,3.9697,3.9697,3.9697,3.9697,3.9697,3.9697,3.9697,3.9594,3.927,3.8736,3.8068,3.6256,3.4612,3.3136,3.1454,3.0018,2.9154,2.8662,2.8447,2.832,2.8301,2.8301,2.8242,2.7617,2.706,2.6602,2.6064,2.5752,2.5732,2.5732,2.5732,2.5732,2.5732,2.5732,2.5732,2.5732,2.5732,2.5732,2.5732,2.5732,2.5732,2.5732,2.5664,2.5576,2.5147,2.4332,2.332,2.2215,2.0885,1.9242,1.8415,1.7823,1.7405,1.7048,1.6995,1.6955,1.6867,1.662,1.6486,1.6306,1.6219,1.6025,1.5899,1.5825,1.5825,1.5825,1.5838,1.5838,1.5825,1.5825,1.5825,1.5825,1.5825,1.5825,1.5825,1.5825,1.5825,1.5825,1.5825,1.5825,1.5825,1.5825,1.5858,1.6079,1.6299,1.6647,1.6967,1.7001,1.7219,1.7002,1.6849,3.9697,3.9697,3.9697,3.9697,3.9697,3.9697,3.9697,3.9697,3.9697,3.9697,3.9697,3.9697,3.9697,3.9697,3.9697,3.9697,3.971,3.981,3.9823,3.981,3.9798,3.9798,3.971,3.9697,3.9697,3.9697,3.9697,3.9697,3.9697,3.9697,3.9697,3.9697,3.9362,3.8945,3.8185,3.6881,3.5425,3.3791,3.2316,3.0853,2.9481,2.9015,2.8701,2.833,2.8301,2.8301,2.8232,2.7842,2.7412,2.6934,2.6191,2.581,2.5752,2.5732,2.5732,2.5732,2.5732,2.5732,2.5732,2.5732,2.5732,2.5732,2.5732,2.5732,2.5732,2.5732,2.5742,2.5645,2.544,2.4833,2.3827,2.2828,2.1505,1.9879,1.8534,1.7884,1.766,1.7321,1.7304,1.736,1.7056,1.6747,1.6747,1.6526,1.638,1.6219,1.6066,1.6012,1.583,1.5856,1.5797,1.5803,1.583,1.577,1.5777,1.5825,1.5825,1.5825,1.5832,1.5838,1.5832,1.5832,1.5825,1.5825,1.5872,1.5858,1.5965,1.6316,1.6473,1.678,1.6952,1.697,1.6806,1.6704,1.6211,3.9697,3.9697,3.9697,3.9697,3.9697,3.9697,3.9697,3.9697,3.9697,3.9697,3.9697,3.9697,3.9697,3.9697,3.9697,3.9697,3.981,4.0111,4.03,4.03,4.03,4.0049,3.9772,3.9697,3.9697,3.9697,3.9697,3.9697,3.9697,3.9697,3.9697,3.9685,3.9478,3.905,3.8303,3.7227,3.5859,3.4361,3.2696,3.1208,3.0018,2.9192,2.8721,2.835,2.8301,2.8301,2.8262,2.7891,2.7305,2.6621,2.6377,2.6055,2.581,2.5742,2.5732,2.5732,2.5732,2.5732,2.5732,2.5732,2.5732,2.5732,2.5732,2.5732,2.5732,2.5732,2.5732,2.5635,2.544,2.4941,2.4035,2.3029,2.1497,1.945,1.8318,1.7687,1.7569,1.7522,1.7573,1.7566,1.7375,1.7228,1.7061,1.6921,1.6827,1.6433,1.6353,1.6359,1.6135,1.596,1.598,1.5862,1.5829,1.58,1.5817,1.5852,1.5825,1.5825,1.5838,1.5858,1.5852,1.5852,1.5838,1.5825,1.5883,1.5909,1.6303,1.6538,1.68,1.6941,1.7015,1.695,1.6666,1.6418,1.5672,3.991,3.9697,3.9697,3.9697,3.9697,3.9697,3.9697,3.9697,3.9697,3.9697,3.9697,3.9697,3.9697,3.9697,3.9697,3.9848,4.0061,4.0375,4.0639,4.0814,4.0614,4.0212,3.981,3.9697,3.9697,3.9697,3.9697,3.9697,3.9697,3.9697,3.9697,3.9697,3.9594,3.9154,3.8514,3.7548,3.6352,3.4869,3.3285,3.184,3.0518,2.9636,2.8994,2.8603,2.8418,2.8301,2.8262,2.8057,2.7598,2.7012,2.6611,2.6269,2.6035,2.583,2.5742,2.5732,2.5732,2.5732,2.5732,2.5732,2.5732,2.5732,2.5732,2.5732,2.5732,2.5732,2.5732,2.5635,2.5538,2.5039,2.4035,2.2619,2.0885,1.925,1.8213,1.7589,1.7589,1.7582,1.7582,1.7589,1.7575,1.7535,1.7335,1.7235,1.7001,1.6754,1.6653,1.6587,1.65,1.6301,1.6127,1.6196,1.6216,1.6241,1.6279,1.6233,1.6186,1.6146,1.6099,1.6079,1.5972,1.5965,1.5909,1.5943,1.6022,1.6142,1.6565,1.678,1.6887,1.7045,1.7016,1.6823,1.6518,1.5879,1.5137,4.0187,3.9697,3.9697,3.9697,3.9697,3.9697,3.9697,3.9697,3.9697,3.9697,3.9697,3.9697,3.9697,3.9697,3.971,3.9973,4.0488,4.0614,4.0978,4.1153,4.1028,4.0551,4.0099,3.9923,3.9885,3.986,3.9798,3.9747,3.9722,3.9697,3.9697,3.9697,3.9697,3.9374,3.8724,3.7856,3.6773,3.5356,3.3754,3.2354,3.1063,3.0122,2.9385,2.8867,2.8467,2.831,2.8301,2.8242,2.8057,2.7744,2.6953,2.6602,2.6445,2.6055,2.585,2.581,2.5791,2.5732,2.5732,2.5732,2.5732,2.5732,2.5732,2.5732,2.5732,2.5732,2.5732,2.5732,2.5732,2.5137,2.3827,2.17,2.0181,1.916,1.8325,1.7694,1.7589,1.7589,1.7589,1.7589,1.7589,1.7589,1.7522,1.7382,1.7168,1.6987,1.6934,1.6921,1.6867,1.6813,1.6793,1.6787,1.6747,1.6834,1.6787,1.6753,1.6607,1.6567,1.6513,1.644,1.6226,1.6199,1.6162,1.6124,1.617,1.6421,1.6841,1.7042,1.7101,1.7164,1.718,1.6823,1.6318,1.5351,1.46,4.0187,3.9697,3.9697,3.9697,3.9697,3.9697,3.9697,3.9697,3.9697,3.9697,3.9697,3.9697,3.9697,3.9697,3.9722,3.9986,4.0601,4.099,4.1467,4.1907,4.1894,4.1492,4.0965,4.0588,4.0337,4.0312,4.0325,4.0099,3.981,3.9697,3.9697,3.9697,3.9594,3.9374,3.8736,3.7856,3.6762,3.5356,3.3909,3.2457,3.1224,3.0438,2.9668,2.8975,2.8525,2.832,2.8301,2.8301,2.8242,2.8047,2.7666,2.7217,2.6875,2.6475,2.626,2.6172,2.5928,2.5752,2.5742,2.5752,2.5732,2.5732,2.5732,2.5732,2.5732,2.5732,2.5732,2.5732,2.5635,2.503,2.3628,2.1497,2.0078,1.9264,1.8325,1.7589,1.7589,1.7589,1.7589,1.7589,1.7589,1.7589,1.7589,1.7549,1.7382,1.7228,1.7208,1.7248,1.7248,1.7228,1.7271,1.7177,1.7265,1.7143,1.7171,1.7049,1.6934,1.6927,1.6901,1.6867,1.6647,1.6547,1.654,1.644,1.6407,1.67,1.715,1.7081,1.7111,1.718,1.7206,1.6717,1.6105,1.5137,1.3996,4.0438,3.971,3.9697,3.9697,3.9697,3.9697,3.9697,3.9697,3.9697,3.9697,3.9697,3.9697,3.9697,3.9697,3.9735,4.0111,4.0965,4.1743,4.2258,4.2434,4.2308,4.212,4.1982,4.1304,4.0814,4.0588,4.0513,4.0212,3.9835,3.9697,3.9697,3.9697,3.9594,3.9154,3.8526,3.7643,3.634,3.5024,3.3582,3.2323,3.1341,3.0512,2.9785,2.9082,2.8691,2.8516,2.831,2.8301,2.8301,2.8232,2.8066,2.7754,2.7334,2.6924,2.6709,2.6611,2.6289,2.6064,2.6035,2.5859,2.5732,2.5742,2.5732,2.5732,2.5732,2.5732,2.5732,2.5732,2.5528,2.503,2.3429,2.1404,1.9983,1.9264,1.8318,1.7694,1.7589,1.7589,1.7589,1.7589,1.7589,1.7589,1.7589,1.7589,1.7562,1.7395,1.7395,1.7428,1.7442,1.7428,1.7539,1.7492,1.7583,1.7542,1.7455,1.7427,1.7228,1.7241,1.7255,1.7248,1.7161,1.7094,1.7074,1.6905,1.6731,1.7141,1.7445,1.7348,1.7237,1.7364,1.714,1.6624,1.5897,1.4741,1.3624,4.0614,3.9697,3.9697,3.9697,3.9697,3.9697,3.9697,3.9697,3.9697,3.9697,3.9697,3.9697,3.9697,3.9697,3.9697,4.0312,4.1216,4.2195,4.2635,4.2597,4.2484,4.2534,4.2522,4.1919,4.1204,4.0689,4.0551,4.0224,3.9835,3.9697,3.9697,3.9685,3.9478,3.8945,3.8185,3.7215,3.5904,3.4469,3.3243,3.2227,3.1361,3.0718,2.9932,2.9228,2.8916,2.8662,2.8379,2.8301,2.8301,2.8301,2.8301,2.8096,2.7764,2.7373,2.7109,2.71,2.6709,2.6445,2.6279,2.6064,2.5879,2.584,2.585,2.5781,2.5712,2.5898,2.5878,2.5644,2.54,2.4735,2.3229,2.1302,1.9983,1.916,1.8206,1.7687,1.7589,1.7589,1.7589,1.7589,1.7589,1.7589,1.7589,1.7589,1.7589,1.7589,1.7589,1.7589,1.7589,1.7582,1.766,1.7654,1.7607,1.7593,1.7519,1.759,1.7408,1.7422,1.7482,1.7482,1.7488,1.7422,1.7321,1.7198,1.7211,1.7462,1.7522,1.7495,1.7515,1.7477,1.7138,1.6681,1.5695,1.4467,1.3277,4.0275,3.9697,3.9697,3.9697,3.9697,3.9697,3.9697,3.9697,3.9697,3.9697,3.9697,3.9697,3.9697,3.9697,3.9697,4.0086,4.0865,4.1831,4.2359,4.2446,4.2559,4.2886,4.2698,4.217,4.1605,4.1204,4.0727,4.0162,3.981,3.9697,3.9697,3.9581,3.9374,3.8828,3.7868,3.6881,3.5454,3.4022,3.2903,3.1893,3.1285,3.0839,3.0322,2.9512,2.918,2.8769,2.8428,2.831,2.8301,2.8301,2.8301,2.8242,2.8096,2.7764,2.7588,2.7471,2.7148,2.6807,2.6553,2.6367,2.6279,2.6279,2.6269,2.6068,2.5992,2.6319,2.6274,2.5705,2.4942,2.3981,2.2728,2.1146,1.9872,1.8938,1.8206,1.7589,1.7589,1.7589,1.7589,1.7589,1.7589,1.7589,1.7589,1.7589,1.7589,1.7589,1.7589,1.7589,1.7589,1.7589,1.7582,1.7575,1.7575,1.7569,1.7549,1.764,1.7535,1.7522,1.7549,1.7542,1.7555,1.7569,1.7535,1.7364,1.7357,1.7528,1.7569,1.7589,1.7424,1.7244,1.694,1.664,1.5465,1.4288,1.3306,4.0199,3.971,3.9697,3.9697,3.9697,3.9697,3.9697,3.9697,3.9697,3.9697,3.9697,3.9697,3.9697,3.9697,3.9697,3.9998,4.0676,4.1656,4.212,4.2283,4.2685,4.2785,4.2547,4.2007,4.1442,4.089,4.035,3.9998,3.9722,3.9594,3.9478,3.9374,3.8945,3.8198,3.7334,3.6013,3.4792,3.3459,3.2446,3.1546,3.1102,3.1005,3.0498,2.998,2.9473,2.9053,2.8672,2.8369,2.8301,2.8301,2.8301,2.8301,2.8223,2.8125,2.7978,2.79,2.7588,2.7275,2.7021,2.6885,2.6709,2.6719,2.6719,2.6647,2.6541,2.6691,2.6701,2.6164,2.5302,2.4149,2.2954,2.1267,2.003,1.8959,1.8108,1.7701,1.7589,1.7589,1.7589,1.7589,1.7589,1.7589,1.7589,1.7589,1.7589,1.7589,1.7589,1.7589,1.7589,1.7589,1.7589,1.7589,1.7589,1.7589,1.7589,1.7589,1.7589,1.7589,1.7642,1.7642,1.7649,1.7682,1.7629,1.7555,1.7575,1.7569,1.7265,1.7166,1.7032,1.6921,1.6531,1.591,1.5133,1.4117,1.2993,4.0099,3.9697,3.9697,3.9697,3.9697,3.9697,3.9697,3.9697,3.9697,3.9697,3.9697,3.9697,3.9697,3.9697,3.9747,3.9948,4.0438,4.1379,4.1756,4.2045,4.2484,4.2534,4.2133,4.1605,4.1103,4.0614,4.0036,3.9697,3.9594,3.9374,3.9154,3.8828,3.8198,3.7441,3.6677,3.5234,3.4022,3.2903,3.1883,3.1218,3.1005,3.0879,3.0674,3.0215,2.9795,2.9346,2.8896,2.8496,2.832,2.8301,2.8301,2.8301,2.8301,2.8291,2.8291,2.8242,2.7969,2.7793,2.7568,2.7373,2.7148,2.7148,2.7148,2.7187,2.7266,2.7314,2.7085,2.6624,2.5731,2.4548,2.3029,2.1505,2.0182,1.9034,1.8218,1.7655,1.7609,1.7589,1.7589,1.7589,1.7589,1.7595,1.7609,1.7589,1.7589,1.7589,1.7589,1.7589,1.7589,1.7589,1.7589,1.7589,1.7589,1.7589,1.7589,1.7589,1.7589,1.7589,1.7709,1.7789,1.7796,1.7809,1.7796,1.7849,1.7642,1.7492,1.7122,1.6612,1.6211,1.6023,1.5818,1.5183,1.4215,1.3433,1.2394,3.976,3.9697,3.9697,3.9697,3.9697,3.9697,3.9697,3.9697,3.9697,3.9697,3.9697,3.9697,3.9697,3.9697,3.9697,3.9747,4.0011,4.0526,4.0984,4.1372,4.1982,4.217,4.202,4.1593,4.0858,4.032,3.9819,3.9619,3.927,3.8945,3.8736,3.8409,3.7548,3.6796,3.5916,3.4569,3.3459,3.2457,3.1662,3.1218,3.1005,3.0889,3.0635,3.0264,2.9834,2.9434,2.9023,2.8613,2.8359,2.8301,2.8301,2.8301,2.8301,2.8301,2.8301,2.8291,2.8213,2.8057,2.7764,2.7637,2.7588,2.7588,2.7588,2.7783,2.7842,2.7898,2.7646,2.6731,2.5724,2.4447,2.3093,2.1564,2.0197,1.9177,1.8406,1.7936,1.7702,1.7589,1.7576,1.7748,1.7761,1.7642,1.7642,1.7609,1.7589,1.7589,1.7589,1.7589,1.7589,1.7589,1.7589,1.7589,1.7589,1.7589,1.7589,1.7589,1.7662,1.7642,1.7776,1.7943,1.8023,1.8083,1.825,1.818,1.7928,1.7437,1.6917,1.6332,1.558,1.5027,1.4859,1.4088,1.3185,1.2482,1.1745,3.9594,3.9697,3.9697,3.9697,3.9697,3.9697,3.9697,3.9697,3.9697,3.9697,3.9697,3.9697,3.9697,3.9697,3.9697,3.9594,3.9603,4.0027,4.0296,4.0513,4.1056,4.1205,4.0786,4.0645,4.0259,3.9612,3.9315,3.8853,3.8619,3.8409,3.8185,3.7536,3.6677,3.5806,3.5024,3.3797,3.3016,3.2227,3.1566,3.1005,3.0889,3.0879,3.0791,3.0576,3.0146,2.9717,2.9307,2.8887,2.8516,2.8379,2.8301,2.8301,2.8301,2.8301,2.8301,2.8291,2.8291,2.8203,2.8057,2.8018,2.7998,2.8008,2.8018,2.8096,2.8223,2.827,2.795,2.7166,2.624,2.4843,2.3253,2.1799,2.0515,1.9488,1.8619,1.809,1.7815,1.7642,1.7615,1.7776,1.7855,1.7909,1.7809,1.7742,1.7702,1.7642,1.7615,1.7589,1.7589,1.7589,1.7589,1.7589,1.7589,1.7589,1.7589,1.7595,1.7776,1.7822,1.7923,1.809,1.827,1.8397,1.8557,1.8577,1.8255,1.7668,1.6894,1.5586,1.4398,1.4127,1.3993,1.3142,1.2281,1.1749,1.1102,3.9154,3.9154,3.927,3.9374,3.927,3.9258,3.9258,3.927,3.927,3.9374,3.9478,3.9478,3.9594,3.9697,3.9697,3.9581,3.9295,3.9588,3.9729,3.987,3.9972,4.0021,3.9766,3.9652,3.9275,3.8514,3.8433,3.8185,3.7761,3.7441,3.7108,3.6654,3.5576,3.4692,3.392,3.3027,3.2238,3.1787,3.1228,3.0889,3.0898,3.0898,3.0889,3.0742,3.0459,3.0059,2.9717,2.9316,2.8896,2.8564,2.8496,2.8467,2.833,2.8301,2.8301,2.8301,2.8301,2.8291,2.8242,2.8242,2.8291,2.8301,2.8301,2.8242,2.8271,2.8291,2.796,2.7257,2.6372,2.5103,2.3541,2.203,2.0744,1.971,1.8925,1.8384,1.7991,1.7816,1.7892,1.8103,1.8211,1.8238,1.8205,1.7949,1.7842,1.7722,1.7655,1.7615,1.7622,1.7649,1.7629,1.7642,1.7622,1.7662,1.7756,1.7782,1.7916,1.805,1.815,1.8303,1.8531,1.8698,1.8844,1.8692,1.8619,1.7679,1.673,1.4927,1.3308,1.3185,1.3013,1.2222,1.1567,1.1012,1.0547,3.8173,3.7725,3.8185,3.8303,3.8185,3.8092,3.8092,3.8198,3.8409,3.8514,3.8619,3.905,3.9374,3.9581,3.9478,3.9362,3.9154,3.8995,3.8867,3.8946,3.902,3.8767,3.8563,3.8371,3.812,3.7596,3.7418,3.7215,3.6785,3.6243,3.5916,3.5367,3.4469,3.3685,3.3016,3.2352,3.1682,3.1344,3.1005,3.0889,3.0898,3.0898,3.0898,3.0801,3.0478,3.0176,3.0127,2.9736,2.9326,2.8916,2.8809,2.8672,2.8457,2.833,2.8301,2.8301,2.8301,2.8301,2.8301,2.8301,2.8301,2.8301,2.8301,2.8301,2.8301,2.8301,2.7853,2.7196,2.6327,2.4982,2.3471,2.1888,2.0685,1.9892,1.9197,1.883,1.8446,1.8112,1.8196,1.832,1.8561,1.8581,1.8464,1.8337,1.8156,1.8043,1.7916,1.7869,1.7796,1.7689,1.7736,1.7709,1.7682,1.7769,1.7996,1.809,1.8176,1.8357,1.8517,1.8677,1.8865,1.9011,1.9098,1.8922,1.8659,1.7493,1.6105,1.3995,1.2525,1.2473,1.2101,1.1362,1.0876,1.0415,1.0183,3.6665,3.6231,3.6122,3.6545,3.7418,3.7429,3.7429,3.7418,3.7536,3.7749,3.7856,3.8291,3.8514,3.8619,3.8619,3.8409,3.7986,3.788,3.7488,3.7331,3.7305,3.7197,3.6979,3.6858,3.6731,3.6254,3.6231,3.6013,3.5576,3.5146,3.448,3.3808,3.3356,3.2799,3.2238,3.1672,3.1334,3.1005,3.0898,3.0898,3.0898,3.0898,3.0898,3.0859,3.0791,3.0449,3.0225,3.0059,2.9717,2.9385,2.9101,2.8867,2.8633,2.8447,2.832,2.8301,2.8301,2.8301,2.8301,2.8301,2.8301,2.8301,2.8301,2.8301,2.8301,2.8301,2.797,2.7206,2.6336,2.5,2.376,2.2176,2.0866,2.0123,1.9569,1.9226,1.8891,1.8539,1.8572,1.8803,1.8969,1.9016,1.889,1.8744,1.8551,1.837,1.8237,1.8123,1.7941,1.7908,1.7875,1.7989,1.809,1.8056,1.8283,1.837,1.843,1.8644,1.8871,1.8978,1.9098,1.9199,1.9285,1.903,1.8583,1.7379,1.5655,1.3063,1.1889,1.1848,1.139,1.0664,1.0179,0.994,0.9819,3.5477,3.4947,3.448,3.5013,3.61,3.61,3.61,3.61,3.622,3.6654,3.7096,3.7322,3.7548,3.7655,3.7749,3.7441,3.7012,3.6688,3.6134,3.5829,3.573,3.5477,3.5135,3.5035,3.5058,3.4803,3.4692,3.458,3.4246,3.4032,3.347,3.2799,3.2342,3.1893,3.1566,3.1344,3.1102,3.1005,3.0898,3.0898,3.0898,3.0898,3.0898,3.0898,3.0859,3.0742,3.0527,3.04,3.0185,2.9824,2.9492,2.9189,2.8916,2.8534,2.8301,2.833,2.8301,2.8301,2.8301,2.8301,2.8301,2.8301,2.8301,2.8301,2.8301,2.8291,2.797,2.7314,2.6336,2.5229,2.3991,2.2418,2.1174,2.0308,1.9855,1.9422,1.9381,1.9058,1.9212,1.9285,1.9353,1.9307,1.9179,1.9025,1.8778,1.8577,1.8397,1.8323,1.8323,1.8194,1.8104,1.835,1.8611,1.8594,1.8604,1.8644,1.8711,1.8938,1.9118,1.9165,1.9265,1.9345,1.9127,1.8661,1.7972,1.7168,1.5203,1.2623,1.1691,1.1382,1.0789,1.0183,1.0061,0.9819,0.9819,3.4602,3.4086,3.3706,3.3797,3.4123,3.3808,3.3808,3.4022,3.4469,3.5124,3.6013,3.6122,3.6437,3.675,3.6642,3.6329,3.5904,3.5685,3.5245,3.458,3.4346,3.4022,3.3685,3.3582,3.3561,3.3233,3.3233,3.3233,3.2903,3.2913,3.2457,3.2008,3.1672,3.1334,3.1005,3.0889,3.0898,3.0898,3.0898,3.0898,3.0898,3.0898,3.0898,3.0898,3.0898,3.081,3.0771,3.0742,3.0527,3.0234,2.9906,2.9517,2.9082,2.862,2.8358,2.832,2.834,2.833,2.831,2.831,2.8301,2.8301,2.8301,2.8301,2.8301,2.8194,2.8077,2.7314,2.6545,2.5313,2.3983,2.2652,2.1638,2.073,2.0155,1.9679,1.9516,1.9387,1.9408,1.9361,1.9361,1.9345,1.9339,1.9265,1.9005,1.8778,1.8571,1.8524,1.8591,1.8651,1.8592,1.8731,1.9003,1.893,1.9011,1.8911,1.9005,1.9232,1.9332,1.9319,1.9319,1.9345,1.8887,1.8188,1.7626,1.7079,1.4753,1.2192,1.1495,1.0785,1.0304,0.9819,0.9819,0.9819,0.9819,3.3016,3.2799,3.2342,3.2113,3.2332,3.2789,3.3016,3.3027,3.347,3.3797,3.4134,3.4357,3.4569,3.4792,3.4792,3.4681,3.4235,3.4123,3.3572,3.3119,3.3016,3.2799,3.2581,3.2457,3.2446,3.2238,3.2238,3.2227,3.2123,3.2133,3.1903,3.145,3.1228,3.0995,3.0889,3.0898,3.0898,3.0898,3.0898,3.0898,3.0898,3.0898,3.0898,3.0898,3.0898,3.0898,3.0898,3.0898,3.0771,3.0576,3.0285,2.9809,2.9254,2.8761,2.8337,2.8369,2.8496,2.8711,2.8613,2.8516,2.8301,2.831,2.8301,2.8301,2.8301,2.8301,2.797,2.753,2.6862,2.5753,2.477,2.3432,2.2305,2.1402,2.0716,1.991,1.9659,1.9448,1.9421,1.9414,1.9366,1.9366,1.9366,1.9366,1.9165,1.9105,1.8945,1.8965,1.9032,1.9092,1.9145,1.9145,1.928,1.9287,1.93,1.9138,1.9138,1.9285,1.9352,1.9352,1.9359,1.9296,1.8719,1.8171,1.7699,1.699,1.411,1.1817,1.0917,1.0183,0.9998,0.9873,0.9856,0.9842,0.9819,3.2123,3.2008,3.1556,3.1325,3.1325,3.1903,3.2123,3.2227,3.2457,3.2561,3.2789,3.3016,3.3243,3.3243,3.3243,3.3119,3.2789,3.2789,3.2457,3.1998,3.2113,3.1893,3.1672,3.1672,3.1672,3.1566,3.145,3.145,3.145,3.146,3.1344,3.1228,3.1005,3.0889,3.0898,3.0898,3.0898,3.0898,3.0898,3.0898,3.0898,3.0898,3.0898,3.0898,3.0898,3.0898,3.0898,3.0898,3.0889,3.0781,3.0557,3.0185,2.9653,2.8954,2.8578,2.8758,2.8945,2.9141,2.9062,2.876,2.8594,2.8555,2.8398,2.8301,2.8301,2.8301,2.8184,2.7745,2.7187,2.6427,2.5441,2.4094,2.3087,2.207,2.1052,2.0357,1.9673,1.9461,1.9379,1.9379,1.9399,1.9392,1.9386,1.9366,1.9305,1.9325,1.9339,1.9366,1.9366,1.9366,1.9366,1.9352,1.9345,1.9421,1.9414,1.9305,1.9319,1.9359,1.9386,1.9419,1.9415,1.9364,1.8756,1.8077,1.7607,1.6332,1.3437,1.1329,1.0605,1.0249,1.0153,0.9998,0.9917,0.9917,0.993,3.1787,3.1672,3.1441,3.1334,3.1218,3.1102,3.1112,3.1325,3.1334,3.1672,3.2113,3.2113,3.2342,3.2571,3.2571,3.2457,3.2227,3.2113,3.1777,3.1441,3.1441,3.1218,3.1112,3.1005,3.1122,3.1005,3.1005,3.1122,3.0889,3.1005,3.1005,3.1015,3.0898,3.0898,3.0898,3.0898,3.0898,3.0898,3.0898,3.0898,3.0898,3.0898,3.0898,3.0898,3.0898,3.0898,3.0898,3.0898,3.0898,3.0869,3.084,3.0557,2.9928,2.9048,2.9196,2.9288,2.957,2.9512,2.9502,2.916,2.8877,2.875,2.8486,2.8359,2.8301,2.8291,2.8184,2.796,2.752,2.6881,2.6118,2.4991,2.3751,2.2628,2.1388,2.0587,1.9781,1.9461,1.9392,1.9419,1.9446,1.9452,1.9459,1.9439,1.9399,1.9366,1.9366,1.9366,1.9366,1.9366,1.9366,1.9366,1.9359,1.9366,1.9366,1.9379,1.9466,1.9492,1.9499,1.9533,1.9548,1.9469,1.8778,1.8149,1.748,1.5628,1.2511,1.1029,1.0468,1.0222,1.0192,1.0158,1.009,1.0134,1.0161,3.1122,3.1112,3.1005,3.1005,3.1005,3.0889,3.1005,3.0995,3.0995,3.1112,3.1228,3.1228,3.145,3.145,3.146,3.1344,3.1334,3.1218,3.1228,3.1112,3.1112,3.1005,3.0889,3.0898,3.0898,3.0898,3.0898,3.0898,3.0889,3.0898,3.0898,3.0898,3.0898,3.0898,3.0898,3.0898,3.0898,3.0898,3.0898,3.0898,3.0898,3.0898,3.0898,3.0898,3.0898,3.0898,3.0898,3.0898,3.0898,3.0898,3.0898,3.0674,3.0215,3.0078,3.0305,2.9961,2.9814,2.9648,2.9814,2.9346,2.8984,2.8945,2.8594,2.8359,2.8301,2.833,2.8223,2.8077,2.7853,2.7314,2.6545,2.5432,2.4248,2.3054,2.1827,2.0823,2.002,1.9609,1.9546,1.9791,1.9811,1.9633,1.9626,1.9492,1.9446,1.9399,1.9366,1.9366,1.9366,1.9366,1.9366,1.9366,1.9379,1.9386,1.9392,1.9406,1.9533,1.9626,1.9659,1.9766,1.9867,1.9644,1.8947,1.7802,1.6566,1.4248,1.1377,1.0545,1.0371,1.0348,1.0317,1.0293,1.0283,1.0327,1.0344,3.0615,3.0644,3.082,3.0898,3.0898,3.0898,3.0898,3.0898,3.0898,3.0898,3.0898,3.0889,3.0898,3.1005,3.1005,3.1005,3.1005,3.1005,3.1005,3.1005,3.0898,3.0898,3.0898,3.0898,3.0898,3.0898,3.0898,3.0898,3.0898,3.0898,3.0898,3.0898,3.0898,3.0898,3.0898,3.0898,3.0898,3.0898,3.0898,3.0898,3.0898,3.0898,3.0898,3.0898,3.0898,3.0898,3.0898,3.0898,3.0898,3.0898,3.0898,3.0791,3.0498,3.0768,3.06,3.0254,3.0244,3.0254,3.0332,2.9863,2.9541,2.9176,2.8726,2.86,2.8524,2.8584,2.8428,2.8184,2.796,2.7638,2.6754,2.578,2.4658,2.3513,2.2192,2.0974,2.033,1.9804,1.9932,2.0206,2.0206,1.9893,1.9786,1.9633,1.9479,1.9406,1.9366,1.9366,1.9366,1.9366,1.9366,1.9366,1.9386,1.9406,1.9446,1.9559,1.9726,1.9873,1.9953,2.0087,2.0192,1.9704,1.8883,1.7178,1.5091,1.3003,1.0931,1.0711,1.0507,1.048,1.048,1.049,1.049,1.051,1.0514,3.0146,3.0185,3.0605,3.0752,3.083,3.081,3.084,3.0889,3.0898,3.0898,3.0898,3.0898,3.0898,3.0898,3.0898,3.0898,3.0898,3.0898,3.0898,3.0898,3.0898,3.0898,3.0898,3.0898,3.0898,3.0898,3.0898,3.0898,3.0898,3.0898,3.0898,3.0898,3.0898,3.0898,3.0898,3.0898,3.0898,3.0898,3.0898,3.0898,3.0898,3.0898,3.0898,3.0898,3.0898,3.0898,3.0898,3.0898,3.0898,3.0898,3.0889,3.0879,3.085,3.082,3.0596,3.0518,3.0576,3.0674,3.0635,3.0254,3.0117,2.9666,2.9077,2.9041,2.9001,2.8926,2.875,2.8593,2.8513,2.7967,2.7188,2.6078,2.4901,2.3614,2.2285,2.1296,2.053,2.0154,2.018,2.0537,2.0524,2.0201,2.0074,1.992,1.9639,1.9486,1.9446,1.9452,1.9486,1.9486,1.9492,1.9499,1.9599,1.9686,1.976,1.988,2.0007,2.0127,2.0227,2.0292,2.0394,1.975,1.8813,1.6924,1.4895,1.2853,1.129,1.0892,1.0619,1.0636,1.0646,1.0687,1.0697,1.0663,1.0646,2.9717,2.9736,2.9834,3.0068,3.0342,3.0361,3.0566,3.0889,3.0898,3.0879,3.0889,3.0889,3.0898,3.0898,3.0898,3.0898,3.0898,3.0898,3.0898,3.0898,3.0898,3.0898,3.0898,3.0898,3.0898,3.0898,3.0898,3.0898,3.0898,3.0898,3.0898,3.0898,3.0898,3.0898,3.0898,3.0898,3.0898,3.0898,3.0898,3.0898,3.0898,3.0898,3.0898,3.0898,3.0898,3.0898,3.0898,3.0898,3.0898,3.0898,3.0898,3.0889,3.0889,3.0898,3.084,3.0771,3.0801,3.0869,3.0791,3.0527,3.0332,3.0137,2.975,2.9546,2.9473,2.9336,2.9258,2.9137,2.8766,2.8191,2.7389,2.6136,2.4919,2.3598,2.2386,2.1505,2.0739,2.0652,2.0684,2.0698,2.0705,2.0611,2.0361,2.0147,1.9853,1.9733,1.9713,1.9726,1.9674,1.9582,1.9595,1.9622,1.998,2.0067,2.012,2.018,2.0294,2.0428,2.0548,2.0624,2.0578,1.9187,1.7797,1.6592,1.4819,1.2696,1.123,1.0833,1.0704,1.0721,1.0721,1.0721,1.0721,1.0694,1.0704,2.9277,2.9297,2.9492,2.9707,2.9893,2.9922,3.0078,3.0303,3.0498,3.0586,3.0625,3.0781,3.0889,3.0889,3.0898,3.0898,3.0898,3.0898,3.0898,3.0898,3.0898,3.0898,3.0898,3.0898,3.0898,3.0898,3.0898,3.0898,3.0898,3.0898,3.0898,3.0898,3.0898,3.0898,3.0898,3.0898,3.0898,3.0898,3.0898,3.0898,3.0898,3.0898,3.0898,3.0898,3.0898,3.0898,3.0898,3.0898,3.0898,3.0898,3.0898,3.0898,3.0898,3.0898,3.0898,3.0879,3.0879,3.0889,3.0801,3.0664,3.0469,3.0351,3.0342,3.0244,3.0139,3.0003,2.9531,2.9247,2.8671,2.8061,2.6786,2.5524,2.429,2.2984,2.211,2.1223,2.0999,2.092,2.0869,2.0869,2.0835,2.0748,2.0621,2.0488,2.0214,2.0013,1.9987,1.9987,1.994,1.9945,1.9824,1.9837,2.0192,2.0523,2.0693,2.0617,2.0561,2.0702,2.0828,2.0552,2.0024,1.839,1.6758,1.5879,1.444,1.2437,1.124,1.085,1.0721,1.0721,1.0721,1.0721,1.0721,1.0721,1.0721,2.8838,2.8906,2.9238,2.9443,2.9482,2.9482,2.9551,2.9648,2.9961,3.0127,3.0185,3.0586,3.0791,3.0889,3.0898,3.0898,3.0898,3.0898,3.0898,3.0898,3.0898,3.0898,3.0898,3.0898,3.0898,3.0898,3.0898,3.0898,3.0898,3.0898,3.0898,3.0898,3.0898,3.0898,3.0898,3.0898,3.0898,3.0898,3.0898,3.0898,3.0898,3.0898,3.0898,3.0898,3.0898,3.0898,3.0898,3.0898,3.0898,3.0898,3.0898,3.0898,3.0898,3.0898,3.0898,3.0898,3.0898,3.0898,3.0869,3.085,3.082,3.084,3.0898,3.0879,3.0723,3.0403,2.9815,2.9155,2.8471,2.77,2.6412,2.5041,2.3917,2.2708,2.1814,2.1141,2.1061,2.1076,2.1082,2.1089,2.1022,2.0942,2.0862,2.0735,2.0555,2.0354,2.0287,2.0287,2.0219,2.0391,2.0361,2.0465,2.0621,2.0826,2.1004,2.0893,2.0795,2.0882,2.0856,2.0297,1.9444,1.777,1.6494,1.5618,1.4037,1.2037,1.1244,1.0717,1.0721,1.0721,1.0721,1.0721,1.0721,1.0721,1.0721,2.8408,2.8418,2.8506,2.873,2.9014,2.9043,2.9238,2.9551,2.9629,2.9687,2.9795,3.0137,3.0498,3.0889,3.0898,3.0898,3.0898,3.0898,3.0898,3.0898,3.0898,3.0898,3.0898,3.0898,3.0898,3.0898,3.0898,3.0898,3.0898,3.0898,3.0898,3.0898,3.0898,3.0898,3.0898,3.0898,3.0898,3.0898,3.0898,3.0898,3.0898,3.0898,3.0898,3.0898,3.0898,3.0898,3.0898,3.0898,3.0898,3.0898,3.0898,3.0898,3.0898,3.0898,3.0898,3.0898,3.0898,3.0898,3.0898,3.0898,3.0898,3.0898,3.0898,3.0889,3.0733,3.0344,2.9647,2.8663,2.8066,2.7384,2.6312,2.5109,2.3894,2.2668,2.1735,2.1233,2.1062,2.1096,2.1096,2.1096,2.1076,2.1042,2.1029,2.0882,2.0722,2.0588,2.0595,2.0595,2.0608,2.0795,2.085,2.0942,2.102,2.0975,2.1022,2.1101,2.0995,2.1076,2.0849,2.0208,1.9054,1.7238,1.6099,1.5231,1.3774,1.1776,1.1115,1.0721,1.0721,1.0721,1.0721,1.0721,1.0721,1.0721,1.0721]}]]